[[{"header":{"parameterUnit":"m.s-1","parameterCategory":1,"la1":31.0,"la2":29.5877,"lo1":-88.7671,"lo2":-86.6584,"dy":0.0162,"dx":0.0185,"nx":115,"ny":88,"refTime":"2024-07-01T00:00:00:Z","depth":0,"parameterNumber":2,"parameterNumberName":"U-component_of_WINDS"},"data":[0.0,0.0,0.0,0.0,0.0,0.0,0.0,0.0,0.0,0.0,0.0,0.0,0.0,0.0,0.0,0.0,0.0,0.0,0.0,0.0,0.0,0.0,0.0,0.0,0.0,0.0,0.0,0.0,0.0,0.0,0.0,0.0,0.0,0.0,0.0,0.0,0.0,0.0,0.0,0.0,0.0,0.0,0.0,0.0,0.0,0.0,0.0,0.0,0.0,0.0,0.0,0.0,0.0,0.0,0.0,0.0,0.0,0.0,0.0,0.0,0.0,0.0,0.0,0.0,0.0,0.0,0.0,0.0,0.0,0.0,0.0,0.0,0.0,0.0,0.0,0.0,0.0,0.0,0.0,0.0,0.0,0.0,0.0,0.0,0.0,0.0,0.0,0.0,0.0,0.0,0.0,0.0,0.0,0.0,0.0,0.0,0.0,0.0,0.0,0.0,0.0,0.0,0.0,0.0,0.0,0.0,0.0,0.0,0.0,0.0,0.0,0.0,0.0,0.0,0.0,0.0,0.0,0.0,0.0,0.0,0.0,0.0,0.0,0.0,0.0,0.0,0.0,0.0,0.0,0.0,0.0,0.0,0.0,0.0,0.0,0.0,0.0,0.0,0.0,0.0,0.0,0.0,0.0,0.0,0.0,0.0,0.0,0.0,0.0,0.0,0.0,0.0,0.0,0.0,0.0,0.0,0.0,0.0,0.0,0.0,0.0,0.0,0.0,0.0,0.0,0.0,0.0,0.0,0.0,0.0,0.0,0.0,0.0,0.0,0.0,0.0,0.0,0.0,0.0,0.0,0.0,0.0,0.0,0.0,0.0,0.0,0.0,0.0,0.0,0.0,0.0,0.0,0.0,0.0,0.0,0.0,0.0,0.0,0.0,0.0,0.0,0.0,0.0,0.0,0.0,0.0,0.0,0.0,0.0,0.0,0.0,0.0,0.0,0.0,0.0,0.0,0.0,0.0,0.0,0.0,0.0,0.0,0.0,0.0,0.0,0.0,0.0,0.0,0.0,0.0,0.0,0.0,0.0,0.0,0.0,0.0,0.0,0.0,0.0,0.0,0.0,0.0,0.0,0.0,0.0,0.0,0.0,0.0,0.0,0.0,0.0,0.0,0.0,0.0,0.0,0.0,0.0,0.0,0.0,0.0,0.0,0.0,0.0,0.0,0.0,0.0,0.0,0.0,0.0,0.0,0.0,0.0,0.0,0.0,0.0,0.0,0.0,0.0,0.0,0.0,0.0,0.0,0.0,0.0,0.0,0.0,0.0,0.0,0.0,0.0,0.0,0.0,0.0,0.0,0.0,0.0,0.0,0.0,0.0,0.0,0.0,0.0,0.0,0.0,0.0,0.0,0.0,0.0,0.0,0.0,0.0,0.0,0.0,0.0,0.0,0.0,0.0,0.0,0.0,0.0,0.0,0.0,0.0,0.0,0.0,0.0,0.0,0.0,0.0,0.0,0.0,0.0,0.0,0.0,0.0,0.0,0.0,0.0,0.0,0.0,0.0,0.0,0.0,0.0,0.0,0.0,0.0,0.0,0.0,0.0,0.0,0.0,0.0,0.0,0.0,0.0,0.0,0.0,0.0,0.0,0.0,0.0,0.0,0.0,0.0,0.0,0.0,0.0,0.0,0.0,0.0,0.0,0.0,0.0,0.0,0.0,0.0,0.0,0.0,0.0,0.0,0.0,0.0,0.0,0.0,0.0,0.0,0.0,0.0,0.0,0.0,0.0,0.0,0.0,0.0,0.0,0.0,0.0,0.0,0.0,0.0,0.0,0.0,0.0,0.0,0.0,0.0,0.0,0.0,0.0,0.0,0.0,0.0,0.0,0.0,0.0,0.0,0.0,0.0,0.0,0.0,0.0,0.0,0.0,0.0,0.0,0.0,0.0,0.0,0.0,0.0,0.0,0.0,0.0,0.0,0.0,0.0,0.0,0.0,0.0,0.0,0.0,0.0,0.0,0.0,0.0,0.0,0.0,0.0,0.0,0.0,0.0,0.0,0.0,0.0,0.0,0.0,0.0,0.0,0.0,0.0,0.0,0.0,0.0,0.0,0.0,0.0,0.0,0.0,0.0,0.0,0.0,0.0,0.0,0.0,0.0,0.0,0.0,0.0,0.0,0.0,0.0,0.0,0.0,0.0,0.0,0.0,0.0,0.0,0.0,0.0,0.0,0.0,0.0,0.0,0.0,0.0,0.0,0.0,0.0,0.0,0.0,0.0,0.0,0.0,0.0,0.0,0.0,0.0,0.0,0.0,0.0,0.0,0.0,0.0,0.0,0.0,0.0,0.0,0.0,0.0,0.0,0.0,0.0,0.0,0.0,0.0,0.0,0.0,0.0,0.0,0.0,0.0,0.0,0.0,0.0,0.0,0.0,0.0,0.0,0.0,0.0,0.0,0.0,0.0,0.0,0.0,0.0,0.0,0.0,0.0,0.0,0.0,0.0,0.0,0.0,0.0,0.0,0.0,0.0,0.0,0.0,0.0,0.0,0.0,0.0,0.0,0.0,0.0,0.0,0.0,0.0,0.0,0.0,0.0,0.0,0.0,0.0,0.0,0.0,0.0,0.0,0.0,0.0,0.0,0.0,0.0,0.0,0.0,0.0,0.0,0.0,0.0,0.0,0.0,0.0,0.0,0.0,0.0,0.0,0.0,0.0,0.0,0.0,0.0,0.0,0.0,0.0,0.0,0.0,0.0,0.0,0.0,0.0,0.0,0.0,0.0,0.0,0.0,0.0,0.0,0.0,0.0,0.0,0.0,0.0,0.0,0.0,0.0,0.0,0.0,0.0,0.0,0.0,0.0,0.0,0.0,0.0,0.0,0.0,0.0,0.0,0.0,0.0,0.0,0.0,0.0,0.0,0.0,0.0,0.0,0.0,0.0,0.0,0.0,0.0,0.0,0.0,0.0,0.0,0.0,0.0,0.0,0.0,0.0,0.0,0.0,0.0,0.0,0.0,0.0,0.0,0.0,0.0,0.0,0.0,0.0,0.0,0.0,0.0,0.0,0.0,0.0,0.0,0.0,0.0,0.0,0.0,0.0,0.0,0.0,0.0,0.0,0.0,0.0,0.0,0.0,0.0,0.0,0.0,0.0,0.0,0.0,0.0,0.0,0.0,0.0,0.0,0.0,0.0,0.0,0.0,0.0,0.0,0.0,0.0,0.0,0.0,0.0,0.0,0.0,0.0,0.0,0.0,0.0,0.0,0.0,0.0,0.0,0.0,0.0,0.0,0.0,0.0,0.0,0.0,0.0,0.0,0.0,0.0,0.0,0.0,0.0,0.0,0.0,0.0,0.0,0.0,0.0,0.0,0.0,0.0,0.0,0.0,0.0,0.0,0.0,0.0,0.0,0.0,0.0,0.0,0.0,0.0,0.0,0.0,0.0,0.0,0.0,0.0,0.0,0.0,0.0,0.0,0.0,0.0,0.0,0.0,0.0,0.0,0.0,0.0,0.0,0.0,0.0,0.0,0.0,0.0,0.0,0.0,0.0,0.0,0.0,0.0,0.0,0.0,0.0,0.0,0.0,0.0,0.0,0.0,0.0,0.0,0.0,0.0,0.0,0.0,0.0,0.0,0.0,0.0,0.0,0.0,0.0,0.0,0.0,0.0,0.0,0.0,0.0,0.0,0.0,0.0,0.0,0.0,0.0,0.0,0.0,0.0,0.0,0.0,0.0,0.0,0.0,0.0,0.0,0.0,0.0,0.0,0.0,0.0,0.0,0.0,0.0,0.0,0.0,0.0,0.0,0.0,0.0,0.0,0.0,0.0,0.0,0.0,0.0,0.0,0.0,0.0,0.0,0.0,0.0,0.0,0.0,0.0,0.0,0.0,0.0,0.0,0.0,0.0,0.0,0.0,0.0,0.0,0.0,0.0,0.0,0.0,0.0,0.0,0.0,0.0,0.0,0.0,0.0,0.0,0.0,0.0,0.0,0.0,0.0,0.0,0.0,0.0,0.0,0.0,0.0,0.0,0.0,0.0,0.0,0.0,0.0,0.0,0.0,0.0,0.0,0.0,0.0,0.0,0.0,0.0,0.0,0.0,0.0,0.0,0.0,0.0,0.0,0.0,0.0,0.0,0.0,0.0,0.0,0.0,0.0,0.0,0.0,0.0,0.0,0.0,0.0,0.0,0.0,0.0,0.0,0.0,0.0,0.0,0.0,0.0,0.0,0.0,0.0,0.0,0.0,0.0,0.0,0.0,0.0,0.0,0.0,0.0,0.0,0.0,0.0,0.0,0.0,0.0,0.0,0.0,0.0,0.0,-0.7107,0.0,0.0,0.0,0.0,0.0,0.0,0.0,0.0,0.0,0.0,0.0,0.0,0.0,0.0,0.0,0.0,0.0,0.0,0.0,0.0,0.0,0.0,0.0,0.0,0.0,0.0,0.0,0.0,0.0,0.0,0.0,0.0,0.0,0.0,0.0,0.0,0.0,0.0,0.0,0.0,0.0,0.0,0.0,0.0,0.0,0.0,0.0,0.0,0.0,0.0,0.0,0.0,0.0,0.0,0.0,0.0,0.0,0.0,0.0,0.0,0.0,0.0,0.0,0.0,0.0,0.0,0.0,0.0,0.0,0.0,0.0,0.0,0.0,0.0,0.0,0.0,0.0,0.0,0.0,0.0,0.0,0.0,0.0,0.0,0.0,0.0,0.0,0.0,0.0,0.0,0.0,0.0,0.0,0.0,0.0,0.0,0.0,0.0,0.0,0.0,0.0,0.0,0.0,0.0,0.0,0.0,0.0,0.0,0.0,0.0,-0.7101,-0.7104,-0.7107,-0.7107,-0.7107,0.0,0.0,0.0,0.0,0.0,0.0,0.0,0.0,0.0,0.0,0.0,0.0,0.0,0.0,0.0,0.0,0.0,0.0,0.0,0.0,0.0,0.0,0.0,0.0,0.0,0.0,0.0,0.0,0.0,0.0,0.0,0.0,0.0,0.0,0.0,0.0,0.0,0.0,0.0,0.0,0.0,0.0,0.0,0.0,0.0,0.0,0.0,0.0,0.0,0.0,0.0,0.0,0.0,0.0,0.0,0.0,0.0,0.0,0.0,0.0,0.0,0.0,0.0,0.0,0.0,0.0,0.0,0.0,0.0,0.0,0.0,0.0,0.0,0.0,0.0,0.0,0.0,0.0,0.0,0.0,0.0,0.0,0.0,0.0,0.0,0.0,0.0,0.0,0.0,0.0,0.0,0.0,0.0,0.0,0.0,0.0,0.0,0.0,0.0,0.0,0.0,0.0,0.0,0.0,0.0,0.0,0.0,0.0,0.0,0.0,0.0,0.0,-0.7104,-0.7107,-0.7107,0.0,0.0,0.0,0.0,0.0,0.0,0.0,0.0,0.0,0.0,0.0,0.0,0.0,0.0,0.0,0.0,0.0,0.0,0.0,0.0,0.0,0.0,0.0,0.0,0.0,0.0,0.0,0.0,0.0,0.0,0.0,0.0,0.0,0.0,0.0,0.0,0.0,0.0,0.0,0.0,0.0,0.0,0.0,0.0,0.0,0.0,0.0,0.0,0.0,0.0,0.0,0.0,0.0,0.0,0.0,0.0,0.0,0.0,0.0,0.0,0.0,0.0,0.0,0.0,0.0,0.0,0.0,0.0,0.0,0.0,0.0,0.0,0.0,0.0,0.0,0.0,0.0,0.0,0.0,0.0,0.0,0.0,0.0,0.0,0.0,0.0,0.0,0.0,0.0,0.0,0.0,0.0,0.0,0.0,0.0,0.0,0.0,0.0,0.0,0.0,0.0,0.0,0.0,0.0,0.0,0.0,0.0,0.0,0.0,0.0,-0.7112,-0.7112,-0.7118,0.0,-0.7107,0.0,0.0,0.0,0.0,0.0,0.0,0.0,0.0,0.0,0.0,0.0,0.0,0.0,0.0,0.0,0.0,0.0,0.0,0.0,0.0,0.0,0.0,0.0,0.0,0.0,0.0,0.0,0.0,0.0,0.0,0.0,0.0,0.0,0.0,0.0,0.0,0.0,0.0,0.0,0.0,0.0,0.0,0.0,0.0,0.0,0.0,0.0,0.0,0.0,0.0,0.0,0.0,0.0,0.0,0.0,0.0,0.0,0.0,0.0,0.0,0.0,0.0,0.0,0.0,0.0,0.0,0.0,0.0,0.0,0.0,0.0,0.0,0.0,0.0,0.0,0.0,0.0,0.0,0.0,0.0,0.0,0.0,0.0,0.0,0.0,0.0,0.0,0.0,0.0,0.0,0.0,0.0,0.0,0.0,0.0,0.0,0.0,0.0,0.0,0.0,0.0,0.0,0.0,0.0,0.0,0.0,0.0,0.0,0.0,0.0,0.0,-0.7623,-0.7631,-0.7459,0.0,0.0,0.0,0.0,0.0,0.0,0.0,0.0,0.0,0.0,0.0,0.0,0.0,0.0,0.0,0.0,0.0,0.0,0.0,0.0,0.0,0.0,0.0,0.0,0.0,0.0,0.0,0.0,0.0,0.0,0.0,0.0,0.0,0.0,0.0,0.0,0.0,0.0,0.0,0.0,0.0,0.0,0.0,0.0,0.0,0.0,0.0,0.0,0.0,0.0,0.0,0.0,0.0,0.0,0.0,0.0,0.0,0.0,0.0,0.0,0.0,0.0,0.0,0.0,0.0,0.0,0.0,0.0,0.0,0.0,0.0,0.0,0.0,0.0,0.0,0.0,0.0,0.0,0.0,0.0,0.0,0.0,0.0,0.0,0.0,0.0,0.0,0.0,0.0,0.0,0.0,0.0,0.0,0.0,0.0,0.0,0.0,0.0,0.0,0.0,0.0,0.0,0.0,0.0,0.0,0.0,0.0,0.0,0.0,0.0,-0.769,0.0,-0.8163,-0.804,-0.7762,-0.7327,0.0,0.0,0.0,0.0,0.0,0.0,0.0,0.0,0.0,0.0,0.0,0.0,0.0,0.0,0.0,0.0,0.0,0.0,0.0,0.0,0.0,0.0,0.0,0.0,0.0,0.0,0.0,0.0,0.0,0.0,0.0,0.0,0.0,0.0,0.0,0.0,0.0,0.0,0.0,0.0,0.0,0.0,0.0,0.0,0.0,0.0,0.0,0.0,0.0,0.0,0.0,0.0,0.0,0.0,0.0,0.0,0.0,0.0,0.0,0.0,0.0,0.0,0.0,0.0,0.0,0.0,0.0,0.0,0.0,0.0,0.0,0.0,0.0,0.0,0.0,0.0,0.0,0.0,0.0,0.0,0.0,0.0,0.0,0.0,0.0,0.0,0.0,0.0,0.0,0.0,0.0,0.0,0.0,0.0,0.0,0.0,0.0,0.0,0.0,0.0,0.0,0.0,0.0,0.0,0.0,0.0,0.0,0.0,0.0,-0.8232,-0.8594,-0.8657,-0.8173,-0.7899,0.0,0.0,0.0,0.0,0.0,0.0,0.0,0.0,0.0,0.0,0.0,0.0,0.0,0.0,0.0,0.0,0.0,0.0,0.0,0.0,0.0,0.0,0.0,0.0,0.0,0.0,0.0,0.0,0.0,0.0,0.0,0.0,0.0,0.0,0.0,0.0,0.0,0.0,0.0,0.0,0.0,0.0,0.0,0.0,0.0,0.0,0.0,0.0,0.0,0.0,0.0,0.0,0.0,0.0,0.0,0.0,0.0,0.0,0.0,0.0,0.0,0.0,0.0,0.0,0.0,0.0,0.0,0.0,0.0,0.0,0.0,0.0,0.0,0.0,0.0,0.0,0.0,0.0,0.0,0.0,0.0,0.0,0.0,0.0,0.0,0.0,0.0,0.0,0.0,0.0,0.0,0.0,0.0,0.0,0.0,0.0,0.0,0.0,0.0,0.0,0.0,0.0,0.0,0.0,0.0,0.0,0.0,0.0,0.0,-0.7528,-0.858,-0.9183,0.0,-0.9073,-0.8631,0.0,0.0,0.0,0.0,0.0,0.0,0.0,0.0,0.0,0.0,0.0,0.0,0.0,0.0,0.0,0.0,0.0,0.0,0.0,0.0,0.0,0.0,0.0,0.0,0.0,0.0,0.0,0.0,0.0,0.0,0.0,0.0,0.0,0.0,0.0,0.0,0.0,0.0,0.0,0.0,0.0,0.0,0.0,0.0,0.0,0.0,0.0,0.0,0.0,0.0,0.0,0.0,0.0,0.0,0.0,0.0,0.0,0.0,0.0,0.0,0.0,0.0,0.0,0.0,0.0,0.0,0.0,0.0,0.0,0.0,0.0,0.0,0.0,0.0,0.0,0.0,0.0,0.0,0.0,0.0,0.0,0.0,0.0,0.0,0.0,0.0,0.0,0.0,0.0,0.0,0.0,0.0,0.0,0.0,0.0,0.0,0.0,0.0,0.0,0.0,0.0,0.0,0.0,0.0,0.0,0.0,0.0,0.0,0.0,-0.8278,0.0,-0.9749,0.0,-0.9636,-0.9162,0.0,0.0,0.0,0.0,0.0,0.0,0.0,0.0,0.0,0.0,0.0,0.0,0.0,0.0,0.0,0.0,0.0,0.0,0.0,0.0,0.0,0.0,0.0,0.0,0.0,0.0,0.0,0.0,0.0,0.0,0.0,0.0,0.0,0.0,0.0,0.0,0.0,0.0,0.0,0.0,0.0,0.0,0.0,0.0,0.0,0.0,0.0,0.0,0.0,0.0,0.0,0.0,0.0,0.0,0.0,0.0,0.0,0.0,0.0,0.0,0.0,0.0,0.0,0.0,0.0,0.0,0.0,0.0,0.0,0.0,0.0,0.0,0.0,0.0,0.0,0.0,0.0,0.0,0.0,0.0,0.0,0.0,0.0,0.0,0.0,0.0,0.0,0.0,0.0,0.0,0.0,0.0,0.0,0.0,0.0,0.0,0.0,0.0,0.0,0.0,0.0,0.0,0.0,0.0,0.0,0.0,0.0,0.0,-0.8767,-1.002,-1.0173,-1.0276,-1.0312,-0.9828,-0.9514,0.0,0.0,0.0,0.0,0.0,0.0,0.0,0.0,0.0,0.0,0.0,0.0,0.0,0.0,0.0,0.0,0.0,0.0,0.0,0.0,0.0,0.0,0.0,0.0,0.0,0.0,0.0,0.0,0.0,0.0,0.0,0.0,0.0,0.0,0.0,0.0,0.0,0.0,0.0,0.0,0.0,0.0,0.0,0.0,0.0,0.0,0.0,0.0,0.0,0.0,0.0,0.0,0.0,0.0,0.0,0.0,0.0,0.0,0.0,0.0,0.0,0.0,0.0,0.0,0.0,0.0,0.0,0.0,0.0,0.0,0.0,0.0,0.0,0.0,0.0,0.0,0.0,0.0,0.0,0.0,0.0,0.0,0.0,0.0,0.0,0.0,0.0,0.0,0.0,0.0,0.0,0.0,0.0,0.0,0.0,0.0,0.0,0.0,0.0,0.0,0.0,0.0,0.0,0.0,0.0,0.0,0.0,0.0,0.0,-1.0646,-1.1112,-1.1402,-1.146,-1.1005,-1.0494,0.0,0.0,0.0,0.0,0.0,0.0,0.0,0.0,0.0,0.0,0.0,0.0,0.0,0.0,0.0,0.0,0.0,0.0,0.0,0.0,0.0,0.0,0.0,0.0,0.0,0.0,0.0,0.0,0.0,0.0,0.0,0.0,0.0,0.0,0.0,0.0,0.0,0.0,0.0,0.0,0.0,0.0,0.0,0.0,0.0,0.0,0.0,0.0,0.0,0.0,0.0,0.0,0.0,0.0,0.0,0.0,0.0,0.0,0.0,0.0,0.0,0.0,0.0,0.0,0.0,0.0,0.0,0.0,0.0,0.0,0.0,0.0,0.0,0.0,0.0,0.0,0.0,0.0,0.0,0.0,0.0,0.0,0.0,0.0,0.0,0.0,0.0,0.0,0.0,0.0,0.0,0.0,0.0,0.0,0.0,0.0,0.0,0.0,0.0,0.0,0.0,0.0,0.0,0.0,0.0,0.0,0.0,0.0,0.0,-1.1933,-1.2117,-1.2303,-1.2406,-1.2126,-1.1517,-1.0521,0.0,0.0,0.0,0.0,0.0,0.0,0.0,0.0,0.0,0.0,0.0,0.0,0.0,0.0,0.0,0.0,0.0,0.0,0.0,0.0,0.0,0.0,0.0,0.0,0.0,0.0,0.0,0.0,0.0,0.0,0.0,0.0,0.0,0.0,0.0,0.0,0.0,0.0,0.0,0.0,0.0,0.0,0.0,0.0,0.0,0.0,0.0,0.0,0.0,0.0,0.0,0.0,0.0,0.0,0.0,0.0,0.0,0.0,0.0,0.0,0.0,0.0,0.0,0.0,0.0,0.0,0.0,0.0,0.0,0.0,0.0,0.0,0.0,0.0,0.0,0.0,0.0,0.0,0.0,0.0,0.0,0.0,0.0,0.0,0.0,0.0,0.0,0.0,0.0,0.0,0.0,0.0,0.0,0.0,0.0,0.0,0.0,0.0,0.0,0.0,0.0,0.0,0.0,0.0,0.0,0.0,0.0,0.0,-1.3766,-1.3276,-1.3076,-1.3261,-1.3187,-1.2472,0.0,0.0,0.0,0.0,0.0,0.0,0.0,0.0,0.0,0.0,0.0,0.0,0.0,0.0,0.0,0.0,0.0,0.0,0.0,0.0,0.0,0.0,0.0,0.0,0.0,0.0,0.0,0.0,0.0,0.0,0.0,0.0,0.0,0.0,0.0,0.0,0.0,0.0,0.0,0.0,0.0,0.0,0.0,0.0,0.0,0.0,0.0,0.0,0.0,0.0,0.0,0.0,0.0,0.0,0.0,0.0,0.0,0.0,0.0,0.0,0.0,0.0,0.0,0.0,0.0,0.0,0.0,0.0,0.0,0.0,0.0,0.0,0.0,0.0,0.0,0.0,0.0,0.0,0.0,0.0,0.0,0.0,0.0,0.0,0.0,0.0,0.0,0.0,0.0,0.0,0.0,0.0,0.0,0.0,0.0,0.0,0.0,0.0,0.0,0.0,0.0,0.0,0.0,0.0,0.0,0.0,0.0,0.0,0.0,-1.5007,-1.5261,-1.5297,-1.5284,-1.4128,-1.3129,0.0,0.0,0.0,0.0,0.0,0.0,0.0,0.0,0.0,0.0,0.0,0.0,0.0,0.0,0.0,0.0,0.0,0.0,0.0,0.0,0.0,0.0,0.0,0.0,0.0,0.0,0.0,0.0,0.0,0.0,0.0,0.0,0.0,0.0,0.0,0.0,0.0,0.0,0.0,0.0,0.0,0.0,0.0,0.0,0.0,0.0,0.0,0.0,0.0,0.0,0.0,0.0,0.0,0.0,0.0,0.0,0.0,0.0,0.0,0.0,0.0,0.0,0.0,0.0,0.0,0.0,0.0,0.0,0.0,0.0,0.0,0.0,0.0,0.0,0.0,0.0,0.0,0.0,0.0,0.0,0.0,0.0,0.0,0.0,0.0,0.0,0.0,0.0,0.0,0.0,0.0,0.0,0.0,0.0,0.0,0.0,0.0,0.0,0.0,0.0,0.0,0.0,0.0,0.0,0.0,0.0,0.0,0.0,-1.3921,-1.5642,-1.6156,-1.6509,-1.6822,-1.5312,-1.3963,0.0,0.0,0.0,0.0,0.0,0.0,0.0,0.0,0.0,0.0,0.0,0.0,0.0,0.0,0.0,0.0,0.0,0.0,0.0,0.0,0.0,0.0,0.0,0.0,0.0,0.0,0.0,0.0,0.0,0.0,0.0,0.0,0.0,0.0,0.0,0.0,0.0,0.0,0.0,0.0,0.0,0.0,0.0,0.0,0.0,0.0,0.0,0.0,0.0,0.0,0.0,0.0,0.0,0.0,0.0,0.0,0.0,0.0,0.0,0.0,0.0,0.0,0.0,0.0,0.0,0.0,0.0,0.0,0.0,0.0,0.0,0.0,0.0,0.0,0.0,0.0,0.0,0.0,0.0,0.0,0.0,0.0,0.0,0.0,0.0,0.0,0.0,0.0,0.0,0.0,0.0,0.0,0.0,0.0,0.0,0.0,0.0,0.0,0.0,0.0,0.0,0.0,0.0,0.0,0.0,0.0,0.0,0.0,-1.4357,-1.584,-1.6426,-1.7119,-1.782,-1.6455,-1.483,0.0,0.0,0.0,0.0,0.0,0.0,0.0,0.0,0.0,0.0,0.0,0.0,0.0,0.0,0.0,0.0,0.0,0.0,0.0,0.0,0.0,0.0,0.0,0.0,0.0,0.0,0.0,0.0,0.0,0.0,0.0,0.0,0.0,0.0,0.0,0.0,0.0,0.0,0.0,0.0,0.0,0.0,0.0,0.0,0.0,0.0,0.0,0.0,0.0,0.0,0.0,0.0,0.0,0.0,0.0,0.0,0.0,0.0,0.0,0.0,0.0,0.0,0.0,0.0,0.0,0.0,0.0,0.0,0.0,0.0,0.0,0.0,0.0,0.0,0.0,0.0,0.0,0.0,0.0,0.0,0.0,0.0,0.0,0.0,0.0,0.0,0.0,0.0,0.0,0.0,0.0,0.0,0.0,0.0,0.0,0.0,0.0,0.0,0.0,0.0,0.0,0.0,0.0,0.0,0.0,0.0,0.0,0.0,-1.5241,-1.6426,-1.7215,-1.7687,-1.7881,-1.6262,-1.4901,0.0,0.0,0.0,0.0,0.0,0.0,0.0,0.0,0.0,0.0,0.0,0.0,0.0,0.0,0.0,0.0,0.0,0.0,0.0,0.0,0.0,0.0,0.0,0.0,0.0,0.0,0.0,0.0,0.0,0.0,0.0,0.0,0.0,0.0,0.0,0.0,0.0,0.0,0.0,0.0,0.0,0.0,0.0,0.0,0.0,0.0,0.0,0.0,-0.5394,0.0,0.0,0.0,0.0,0.0,0.0,0.0,0.0,0.0,0.0,0.0,0.0,0.0,0.0,0.0,0.0,0.0,0.0,0.0,0.0,0.0,0.0,0.0,0.0,0.0,0.0,0.0,0.0,0.0,0.0,0.0,0.0,0.0,0.0,0.0,0.0,0.0,0.0,0.0,0.0,0.0,0.0,0.0,0.0,0.0,0.0,0.0,0.0,0.0,0.0,0.0,0.0,0.0,0.0,0.0,0.0,0.0,0.0,0.0,-1.5516,-1.656,-1.7521,-1.791,-1.7629,-1.6692,-1.5517,0.0,0.0,0.0,0.0,0.0,0.0,0.0,0.0,0.0,0.0,0.0,0.0,0.0,0.0,0.0,0.0,0.0,0.0,0.0,0.0,0.0,0.0,0.0,0.0,0.0,0.0,0.0,0.0,0.0,0.0,0.0,0.0,0.0,0.0,0.0,0.0,0.0,0.0,0.0,0.0,0.0,0.0,0.0,0.0,0.0,0.0,0.0,0.0,0.0,0.0,0.0,0.0,0.0,0.0,0.0,0.0,0.0,0.0,0.0,0.0,0.0,0.0,0.0,0.0,0.0,0.0,0.0,0.0,0.0,0.0,0.0,0.0,0.0,0.0,0.0,0.0,0.0,0.0,0.0,0.0,0.0,0.0,0.0,0.0,0.0,0.0,0.0,0.0,0.0,0.0,0.0,0.0,0.0,0.0,0.0,0.0,0.0,0.0,0.0,0.0,0.0,0.0,0.0,0.0,0.0,0.0,0.0,-1.4317,-1.5636,-1.6691,-1.77,-1.7953,-1.7424,-1.7125,-1.6076,-1.4323,0.0,0.0,0.0,0.0,0.0,0.0,0.0,0.0,0.0,0.0,0.0,0.0,0.0,0.0,0.0,0.0,0.0,0.0,0.0,0.0,0.0,0.0,0.0,0.0,0.0,0.0,0.0,0.0,0.0,0.0,0.0,0.0,0.0,0.0,0.0,0.0,0.0,0.0,-0.4416,-0.4899,0.0,0.0,0.0,0.0,0.0,0.0,0.0,0.0,-0.5804,0.0,0.0,0.0,0.0,0.0,0.0,0.0,0.0,0.0,0.0,0.0,0.0,0.0,0.0,0.0,0.0,0.0,0.0,0.0,0.0,0.0,0.0,0.0,0.0,0.0,0.0,0.0,0.0,0.0,0.0,0.0,0.0,0.0,0.0,0.0,0.0,0.0,0.0,0.0,0.0,0.0,0.0,0.0,0.0,0.0,0.0,0.0,0.0,0.0,0.0,0.0,0.0,0.0,0.0,0.0,0.0,-1.336,-1.4898,-1.6176,-1.7255,-1.7881,-1.7941,-1.7412,-1.6623,-1.5648,-1.4481,0.0,0.0,0.0,0.0,0.0,0.0,0.0,0.0,0.0,0.0,0.0,0.0,0.0,0.0,0.0,0.0,0.0,0.0,0.0,0.0,0.0,0.0,0.0,0.0,0.0,0.0,0.0,0.0,0.0,0.0,0.0,0.0,0.0,0.0,0.0,0.0,0.0,0.0,0.0,-0.5549,-0.6063,0.0,0.0,0.0,0.0,0.0,0.0,0.0,0.0,-0.6508,0.0,0.0,0.0,0.0,0.0,0.0,0.0,0.0,0.0,0.0,0.0,0.0,0.0,0.0,0.0,0.0,0.0,0.0,0.0,0.0,0.0,0.0,0.0,0.0,0.0,0.0,0.0,0.0,0.0,0.0,0.0,0.0,0.0,0.0,0.0,0.0,0.0,0.0,0.0,0.0,0.0,0.0,0.0,0.0,0.0,0.0,0.0,0.0,0.0,0.0,0.0,0.0,0.0,0.0,0.0,-1.3879,-1.5332,-1.6511,-1.7376,-1.7664,-1.7763,-1.7642,-1.6765,-1.5798,0.0,0.0,0.0,0.0,0.0,0.0,0.0,0.0,0.0,0.0,0.0,0.0,0.0,0.0,0.0,0.0,0.0,0.0,0.0,0.0,0.0,0.0,0.0,0.0,0.0,0.0,0.0,0.0,0.0,0.0,0.0,0.0,0.0,0.0,0.0,0.0,0.0,0.0,0.0,0.0,-0.6064,-0.6655,-0.6945,0.0,0.0,0.0,0.0,0.0,0.0,-0.7641,-0.7254,0.0,0.0,0.0,0.0,0.0,0.0,0.0,0.0,0.0,0.0,0.0,0.0,0.0,0.0,0.0,0.0,0.0,0.0,0.0,0.0,0.0,0.0,0.0,0.0,0.0,0.0,0.0,0.0,0.0,0.0,0.0,0.0,0.0,0.0,0.0,0.0,0.0,0.0,0.0,0.0,0.0,0.0,0.0,0.0,0.0,0.0,0.0,0.0,0.0,0.0,0.0,0.0,0.0,0.0,0.0,-1.4292,-1.5568,-1.654,-1.7207,-1.7291,-1.7435,-1.7614,-1.6748,-1.5822,0.0,0.0,0.0,0.0,0.0,0.0,0.0,0.0,0.0,0.0,0.0,0.0,0.0,0.0,0.0,0.0,0.0,0.0,0.0,0.0,0.0,0.0,0.0,0.0,0.0,0.0,0.0,0.0,0.0,0.0,0.0,0.0,0.0,0.0,0.0,0.0,0.0,0.0,0.0,0.0,0.0,-0.72,-0.7652,-0.7946,0.0,0.0,0.0,0.0,-0.8406,-0.8228,0.0,0.0,0.0,0.0,0.0,0.0,0.0,0.0,0.0,0.0,0.0,0.0,0.0,0.0,0.0,0.0,0.0,0.0,0.0,0.0,0.0,0.0,0.0,0.0,0.0,0.0,0.0,0.0,0.0,0.0,0.0,0.0,0.0,0.0,0.0,0.0,0.0,0.0,0.0,0.0,0.0,0.0,0.0,0.0,0.0,0.0,0.0,0.0,0.0,0.0,0.0,0.0,0.0,0.0,0.0,0.0,-1.4253,-1.5338,-1.6113,-1.6678,-1.7014,-1.7014,-1.6749,-1.5824,-1.5145,0.0,0.0,0.0,0.0,0.0,0.0,0.0,0.0,0.0,0.0,0.0,0.0,0.0,0.0,0.0,0.0,0.0,0.0,0.0,0.0,0.0,0.0,0.0,0.0,0.0,0.0,0.0,0.0,0.0,0.0,0.0,0.0,0.0,0.0,0.0,0.0,0.0,0.0,0.0,0.0,0.0,-0.7619,-0.8077,-0.8175,-0.8201,0.0,0.0,-0.8801,-0.8838,-0.8801,0.0,0.0,0.0,0.0,0.0,0.0,0.0,0.0,0.0,0.0,0.0,0.0,0.0,0.0,0.0,0.0,0.0,0.0,0.0,0.0,0.0,0.0,0.0,0.0,0.0,0.0,0.0,0.0,0.0,0.0,0.0,0.0,0.0,0.0,0.0,0.0,0.0,0.0,0.0,0.0,0.0,0.0,0.0,0.0,0.0,0.0,0.0,0.0,0.0,0.0,0.0,0.0,0.0,0.0,0.0,-1.3286,-1.4619,-1.5803,-1.6566,-1.688,-1.6744,-1.6834,-1.7132,-1.5702,-1.5044,0.0,0.0,0.0,0.0,0.0,0.0,0.0,0.0,0.0,0.0,0.0,0.0,0.0,0.0,0.0,0.0,0.0,0.0,0.0,0.0,0.0,0.0,0.0,0.0,0.0,0.0,0.0,0.0,0.0,0.0,0.0,0.0,0.0,0.0,0.0,0.0,0.0,0.0,0.0,0.0,0.0,0.0,-0.8486,-0.8961,0.0,0.0,0.0,-0.9953,-1.0027,0.0,0.0,0.0,0.0,0.0,0.0,0.0,0.0,0.0,0.0,0.0,0.0,0.0,0.0,0.0,0.0,0.0,0.0,0.0,0.0,0.0,0.0,0.0,0.0,0.0,0.0,0.0,0.0,0.0,0.0,0.0,0.0,0.0,0.0,0.0,0.0,0.0,0.0,0.0,0.0,0.0,0.0,0.0,0.0,0.0,0.0,0.0,0.0,0.0,0.0,0.0,0.0,0.0,0.0,0.0,0.0,0.0,-1.4903,-1.6217,-1.6939,-1.7042,-1.6753,-1.687,-1.7383,-1.5871,0.0,0.0,0.0,0.0,0.0,0.0,0.0,0.0,0.0,0.0,0.0,0.0,0.0,0.0,0.0,0.0,0.0,0.0,0.0,0.0,0.0,0.0,0.0,0.0,0.0,0.0,0.0,-0.4071,0.0,0.0,0.0,0.0,0.0,0.0,0.0,0.0,0.0,0.0,0.0,0.0,0.0,0.0,-0.8675,-0.9047,-0.9762,-1.0322,0.0,0.0,-1.0858,-1.0737,-1.0501,-1.0047,0.0,0.0,0.0,0.0,0.0,0.0,0.0,0.0,0.0,0.0,0.0,0.0,0.0,0.0,0.0,0.0,0.0,0.0,0.0,0.0,0.0,0.0,0.0,0.0,0.0,0.0,0.0,0.0,0.0,0.0,0.0,0.0,0.0,0.0,0.0,0.0,0.0,0.0,0.0,0.0,0.0,0.0,0.0,0.0,0.0,0.0,0.0,0.0,0.0,0.0,0.0,0.0,0.0,0.0,0.0,-1.4993,-1.6258,-1.6901,-1.694,-1.717,-1.7212,-1.6956,-1.6283,-1.5761,0.0,0.0,0.0,0.0,0.0,0.0,0.0,0.0,0.0,0.0,0.0,0.0,0.0,0.0,0.0,0.0,0.0,0.0,0.0,0.0,0.0,0.0,0.0,0.0,0.0,0.0,0.0,0.0,0.0,0.0,0.0,0.0,0.0,0.0,0.0,0.0,0.0,0.0,0.0,0.0,0.0,-0.9511,-0.9798,-1.0424,-1.0864,0.0,0.0,-1.1187,-1.0478,-1.0643,-1.0383,-0.8973,0.0,0.0,0.0,0.0,0.0,0.0,0.0,0.0,0.0,0.0,0.0,0.0,0.0,0.0,0.0,0.0,0.0,0.0,0.0,0.0,0.0,0.0,0.0,0.0,0.0,0.0,0.0,0.0,0.0,0.0,0.0,0.0,0.0,0.0,0.0,0.0,0.0,0.0,0.0,0.0,0.0,0.0,0.0,0.0,0.0,0.0,0.0,0.0,0.0,0.0,0.0,0.0,0.0,-1.4608,-1.5474,-1.6611,-1.7199,-1.7199,-1.731,-1.7352,-1.7199,-1.6547,-1.6017,0.0,0.0,0.0,0.0,0.0,0.0,0.0,0.0,0.0,0.0,0.0,0.0,0.0,0.0,0.0,0.0,0.0,0.0,0.0,0.0,0.0,0.0,0.0,0.0,0.0,0.0,0.0,0.0,-0.5479,-0.5838,-0.602,0.0,0.0,0.0,0.0,0.0,0.0,0.0,0.0,0.0,0.0,-0.9803,-1.0319,-1.0886,0.0,0.0,-1.1628,-1.1746,-1.1481,-1.1131,-1.0657,-0.9938,-0.9112,0.0,0.0,0.0,0.0,0.0,0.0,0.0,0.0,0.0,0.0,0.0,0.0,0.0,0.0,0.0,0.0,0.0,0.0,0.0,0.0,0.0,0.0,0.0,0.0,0.0,0.0,0.0,0.0,0.0,0.0,0.0,0.0,0.0,0.0,0.0,0.0,0.0,0.0,0.0,0.0,0.0,0.0,0.0,0.0,0.0,0.0,0.0,0.0,0.0,0.0,0.0,0.0,-1.5045,-1.5858,-1.697,-1.757,-1.7529,-1.7529,-1.7584,-1.7503,-1.6864,-1.6332,0.0,0.0,0.0,0.0,0.0,0.0,0.0,0.0,0.0,0.0,0.0,0.0,0.0,0.0,0.0,0.0,0.0,0.0,0.0,0.0,0.0,0.0,0.0,0.0,0.0,0.0,0.0,0.0,-0.5753,-0.6094,-0.6328,0.0,0.0,0.0,0.0,0.0,0.0,0.0,0.0,0.0,0.0,-1.055,-1.0993,-1.1397,-1.1711,-1.1663,-1.1902,-1.203,-1.192,-1.1425,-1.0958,-1.0606,0.0,0.0,0.0,0.0,0.0,0.0,0.0,0.0,0.0,0.0,0.0,0.0,0.0,0.0,0.0,0.0,0.0,0.0,0.0,0.0,0.0,0.0,0.0,0.0,0.0,0.0,0.0,-0.9205,0.0,0.0,-0.9241,0.0,0.0,0.0,0.0,0.0,0.0,0.0,0.0,0.0,0.0,0.0,0.0,0.0,0.0,0.0,0.0,0.0,0.0,0.0,0.0,0.0,0.0,-1.5784,-1.6022,-1.7246,-1.7882,-1.7882,-1.7882,-1.7882,-1.7868,-1.7312,-1.6677,-1.6082,0.0,0.0,0.0,0.0,0.0,0.0,0.0,0.0,0.0,0.0,0.0,0.0,0.0,0.0,0.0,0.0,0.0,0.0,0.0,0.0,0.0,0.0,0.0,0.0,0.0,0.0,-0.587,-0.6237,-0.6454,0.0,0.0,0.0,0.0,0.0,0.0,0.0,0.0,0.0,0.0,-1.1305,-1.1918,-1.1864,-1.1985,-1.2107,-1.2049,-1.2067,-1.1938,-1.159,-1.1489,-1.1287,0.0,0.0,0.0,0.0,0.0,0.0,0.0,0.0,0.0,0.0,0.0,0.0,0.0,0.0,0.0,0.0,0.0,0.0,0.0,0.0,0.0,0.0,0.0,0.0,0.0,0.0,0.0,-1.1396,-1.171,0.0,0.0,0.0,0.0,0.0,0.0,0.0,0.0,0.0,0.0,0.0,-1.515,-1.495,0.0,0.0,0.0,0.0,0.0,0.0,0.0,0.0,0.0,0.0,0.0,0.0,-1.6096,-1.6677,-1.7475,-1.7922,-1.7922,-1.7922,-1.7922,-1.7868,-1.7732,-1.6932,-1.5535,0.0,0.0,0.0,0.0,0.0,0.0,0.0,0.0,0.0,0.0,0.0,0.0,0.0,0.0,0.0,0.0,0.0,0.0,0.0,0.0,0.0,0.0,0.0,0.0,0.0,-0.6038,0.0,0.0,0.0,0.0,0.0,0.0,0.0,0.0,0.0,0.0,0.0,-1.0875,-1.1412,-1.1853,-1.2175,-1.2272,-1.2278,-1.2175,0.0,0.0,0.0,0.0,0.0,0.0,0.0,0.0,0.0,0.0,0.0,0.0,0.0,0.0,-0.8749,-0.7831,-0.7741,-0.7741,-0.747,0.0,0.0,0.0,0.0,0.0,0.0,0.0,0.0,0.0,0.0,0.0,0.0,0.0,0.0,-1.3355,0.0,-1.3669,0.0,0.0,0.0,0.0,0.0,0.0,0.0,0.0,-1.6715,-1.7122,-1.7155,-1.6953,-1.6859,0.0,-1.6442,-1.5376,0.0,0.0,0.0,0.0,0.0,0.0,0.0,0.0,-1.6467,-1.7,-1.7583,-1.7922,-1.7922,-1.7922,-1.7922,-1.7882,-1.7678,-1.6919,-1.5548,-1.4721,-1.3618,0.0,0.0,0.0,0.0,0.0,0.0,0.0,0.0,0.0,0.0,0.0,0.0,0.0,0.0,0.0,0.0,0.0,0.0,0.0,0.0,0.0,0.0,0.0,-0.6394,0.0,0.0,0.0,0.0,0.0,0.0,0.0,0.0,0.0,-1.0725,-1.1233,-1.1829,-1.2373,-1.2483,-1.2539,-1.2667,0.0,0.0,0.0,0.0,0.0,0.0,0.0,-1.1691,-1.1595,-1.1368,-1.1139,-1.1,-1.08,-1.0672,-1.071,0.0,0.0,-0.9047,-0.8879,-0.8879,-0.8667,-0.8537,-0.8524,-0.8668,-0.8581,-0.8512,0.0,0.0,0.0,0.0,0.0,0.0,0.0,0.0,-1.5005,-1.52,0.0,-1.5117,0.0,0.0,0.0,0.0,0.0,-1.6545,0.0,0.0,-1.8645,-1.9318,-1.9591,-1.9035,-1.8833,-1.8765,-1.7651,-1.7095,-1.7027,-1.6284,0.0,0.0,0.0,0.0,0.0,0.0,-1.6858,-1.7054,-1.7597,-1.7922,-1.7922,-1.7922,-1.7922,-1.7882,-1.7339,-1.6769,-1.6132,-1.5033,-1.4065,-1.3323,-1.2181,0.0,0.0,0.0,0.0,0.0,0.0,0.0,0.0,0.0,0.0,0.0,0.0,0.0,0.0,0.0,0.0,0.0,0.0,0.0,0.0,-0.661,0.0,0.0,0.0,0.0,0.0,0.0,0.0,0.0,0.0,0.0,-1.1346,-1.2404,-1.3228,-1.3284,0.0,0.0,0.0,0.0,-1.2126,-1.2076,-1.2076,-1.2076,-1.2076,-1.2067,-1.2067,-1.2067,0.0,0.0,-1.1918,-1.1465,-1.1234,-1.1639,-1.1447,-1.1098,-1.0386,-1.0228,-1.0183,-1.0129,-0.9877,-0.9698,-0.9584,-0.9392,-0.9206,-1.8461,0.0,0.0,0.0,0.0,-1.5935,-1.6631,-1.8085,-1.7841,-1.7463,-1.707,-1.707,0.0,0.0,0.0,0.0,0.0,0.0,-1.8276,-1.9114,-1.9464,-1.9642,-1.9686,-1.951,-1.9442,-1.9402,-1.9103,-1.8927,-1.8913,-1.8708,-1.772,-1.6059,0.0,0.0,0.0,0.0,-1.7151,-1.7611,-1.7787,-1.7922,-1.7922,-1.7922,-1.7922,-1.7922,-1.7719,-1.7353,-1.6769,-1.6417,-1.5548,-1.4078,-1.3249,0.0,0.0,0.0,0.0,0.0,0.0,0.0,0.0,0.0,0.0,0.0,0.0,0.0,0.0,0.0,0.0,0.0,0.0,0.0,-0.6645,-0.7143,-0.7703,0.0,0.0,0.0,0.0,0.0,0.0,0.0,0.0,0.0,-1.2978,-1.3194,-1.3446,0.0,0.0,-1.3362,-1.317,-1.2803,-1.2471,-1.2274,-1.2175,0.0,-1.2076,-1.2076,-1.2076,-1.2076,-1.2076,-1.2076,-1.2076,-1.1926,-1.1849,-1.1968,-1.1935,-1.1768,-1.161,-1.1309,-1.1044,-1.0886,-1.0745,-1.0651,-1.0548,-1.0458,-1.031,-2.1627,-1.9429,-1.8798,-1.8854,-1.9239,-1.8758,-1.9094,-1.9967,-1.9632,-1.9144,-1.8615,-1.8601,-1.8194,-1.7529,-1.7503,0.0,0.0,0.0,-1.9146,-2.0026,-2.0057,-2.018,-2.0365,-2.0392,-2.0378,-2.0378,-2.0134,-2.0039,-2.0039,-1.9809,-1.8981,-1.757,0.0,0.0,-1.7339,-1.7353,-1.7516,-1.7868,-1.7922,-1.7922,-1.7922,-1.7922,-1.7922,-1.7922,-1.7922,-1.7706,-1.7353,-1.7122,-1.639,-1.5074,-1.4154,-1.3125,0.0,0.0,0.0,0.0,0.0,0.0,0.0,0.0,0.0,0.0,0.0,-0.7956,0.0,0.0,0.0,0.0,-0.6727,-0.6833,-0.7543,-0.8052,0.0,0.0,0.0,0.0,0.0,0.0,0.0,-1.2746,-1.3324,-1.3761,-1.3936,-1.3913,-1.3839,-1.3862,-1.3716,-1.3515,-1.3362,0.0,-1.2852,-1.2696,-1.2608,-1.2501,-1.2372,-1.2332,-1.2274,-1.2135,-1.2076,-1.2076,-1.2076,-1.2076,-1.2076,-1.2076,-1.2076,-1.2076,-1.2076,-1.1874,-1.1718,-1.1526,-1.1429,-1.1314,-1.1242,-1.1116,-1.1023,-2.3933,-2.3297,-2.2183,-2.164,-2.1559,-2.1559,-2.1247,-2.0711,-2.0711,-2.0433,-1.9917,-1.9917,-1.9876,-1.9836,-1.9836,0.0,-1.9904,-1.9863,-2.0148,-2.063,-2.0576,-2.0847,-2.141,-2.1396,-2.141,-2.1396,-2.082,-2.0562,-2.0535,-2.0093,-1.9809,-1.9754,-1.9228,-1.8629,-1.8031,-1.799,-1.7963,-1.7922,-1.7922,-1.7922,-1.7922,-1.7922,-1.7922,-1.7922,-1.7922,-1.7922,-1.7909,-1.7312,-1.6729,-1.6118,-1.4938,-1.374,-1.2532,0.0,0.0,0.0,0.0,0.0,0.0,0.0,0.0,0.0,0.0,0.0,0.0,0.0,0.0,0.0,-0.73,0.0,-0.879,-0.9283,0.0,0.0,0.0,-1.2197,-1.276,-1.2929,-1.3183,-1.3685,0.0,0.0,-1.4329,-1.443,-1.4373,-1.4222,-1.3894,-1.3658,-1.3621,-1.3409,-1.3218,-1.317,-1.3218,-1.3074,-1.2725,-1.2627,-1.2471,-1.2184,-1.2076,-1.2076,-1.2076,-1.2076,-1.2076,-1.2076,-1.2076,-1.2076,-1.2076,-1.2058,-1.2076,-1.2058,-1.1909,-1.1719,-1.1678,-1.1477,-1.1326,-2.5385,-2.5195,-2.4462,-2.3635,-2.2769,-2.2755,-2.2661,-2.2539,-2.2539,-2.2251,-2.1694,-2.1681,-2.1437,-2.1016,-2.1003,-2.1247,-2.1667,-2.122,-2.1328,-2.183,-2.1423,-2.1274,-2.141,-2.141,-2.141,-2.141,-2.1226,-2.1158,-2.1192,-2.107,-2.0772,-2.0351,-2.0143,-1.9591,-1.8643,-1.8602,-1.8385,-1.7922,-1.7922,-1.7922,-1.7922,-1.7922,-1.7922,-1.7922,-1.7922,-1.7922,-1.7909,-1.7312,-1.6729,-1.6082,-1.4951,-1.3947,-1.3185,-1.2101,0.0,0.0,0.0,0.0,0.0,0.0,0.0,0.0,0.0,-0.9565,-0.988,0.0,-0.9324,0.0,-0.9533,-0.9797,-1.0415,-1.1236,0.0,0.0,-1.315,-1.3616,-1.4009,-1.397,-1.4026,-1.4439,-1.4301,-1.4264,-1.4419,-1.443,-1.4373,-1.4326,-1.4186,-1.3999,-1.3915,-1.3668,-1.3467,-1.3382,-1.3334,-1.3084,-1.2774,-1.2431,-1.2234,-1.2135,-1.2076,-1.2076,-1.2076,-1.2076,-1.2076,-1.2076,-1.2076,-1.2076,-1.2076,-1.2076,-1.2076,-1.2076,-1.2026,-1.1927,-1.1728,-1.1628,-1.1528,-2.6307,-2.6253,-2.5772,-2.5131,-2.4394,-2.4137,-2.3825,-2.3581,-2.3581,-2.3229,-2.2726,-2.2726,-2.2536,-2.2237,-2.2187,-2.2363,-2.2685,-2.2373,-2.2414,-2.2698,-2.2373,-2.2237,-2.2237,-2.2173,-2.2074,-2.1817,-2.1803,-2.1681,-2.1423,-2.141,-2.1247,-2.0887,-2.0887,-2.0473,-1.9578,-1.9307,-1.8929,-1.833,-1.8004,-1.7922,-1.7922,-1.7922,-1.7922,-1.7922,-1.7922,-1.7922,-1.7868,-1.7556,-1.7,-1.6145,-1.5467,-1.4585,-1.3473,-1.2738,-1.2182,0.0,0.0,0.0,0.0,0.0,0.0,0.0,0.0,0.0,0.0,0.0,-1.0954,-1.1347,-1.1147,-1.1327,-1.2051,-1.2567,-1.3162,-1.3923,-1.4146,-1.4385,-1.4702,-1.4562,-1.4496,-1.4663,-1.4616,-1.4647,-1.4846,-1.489,-1.492,-1.4985,-1.4969,-1.4796,-1.4585,-1.4537,-1.4539,-1.4468,-1.4241,-1.3828,-1.3278,-1.2715,-1.2382,-1.2382,-1.2224,-1.2076,-1.2076,-1.2076,-1.2076,-1.2076,-1.2076,-1.2076,-1.2076,-1.2076,-1.2076,-1.2076,-1.2076,-1.2026,-1.1927,-1.1877,-1.1828,-2.6945,-2.6891,-2.6503,-2.6188,-2.5846,-2.5344,-2.4788,-2.4232,-2.4232,-2.3947,-2.3419,-2.3405,-2.3405,-2.3405,-2.3419,-2.3405,-2.3405,-2.3337,-2.3337,-2.3405,-2.3256,-2.3216,-2.3297,-2.3216,-2.2904,-2.2427,-2.2427,-2.2115,-2.1559,-2.1483,-2.1491,-2.1423,-2.141,-2.1165,-2.0603,-2.0161,-1.9578,-1.8929,-1.8303,-1.8045,-1.8031,-1.7923,-1.7922,-1.7922,-1.7922,-1.7922,-1.7922,-1.7814,-1.7299,-1.6295,-1.6122,-1.5372,-1.3744,-1.3568,-1.3212,0.0,-1.2438,0.0,0.0,0.0,0.0,0.0,0.0,0.0,0.0,-1.2289,-1.2657,-1.2878,-1.2553,-1.2662,-1.3614,-1.3643,-1.3998,-1.4977,-1.483,-1.4778,-1.5141,-1.4971,-1.4789,-1.48,-1.4845,-1.5023,-1.5404,-1.5575,-1.5702,-1.5796,-1.5939,-1.584,-1.5471,-1.5574,-1.5709,-1.5785,-1.5426,-1.4718,-1.4098,-1.336,-1.288,-1.2812,-1.2508,-1.2184,-1.2175,-1.2126,-1.2076,-1.2076,-1.2076,-1.2076,-1.2076,-1.2076,-1.2076,-1.2076,-1.2076,-1.2076,-1.2076,-1.2076,-1.2076,-2.7542,-2.7474,-2.6952,-2.6421,-2.5887,-2.5765,-2.5385,-2.4829,-2.4829,-2.4774,-2.4666,-2.4666,-2.4679,-2.4666,-2.4666,-2.4679,-2.4639,-2.4109,-2.4204,-2.4639,-2.3622,-2.3432,-2.3852,-2.3405,-2.3121,-2.3013,-2.3013,-2.2739,-2.2129,-2.2129,-2.1884,-2.1423,-2.141,-2.1369,-2.126,0.0,0.0,0.0,-1.8913,-1.8643,-1.8629,-1.8126,-1.7922,-1.7922,-1.7922,0.0,-1.7909,-1.746,-1.7068,-1.6837,-1.6376,0.0,0.0,0.0,0.0,0.0,0.0,0.0,0.0,0.0,0.0,0.0,-1.4664,-1.4204,-1.3099,-1.3533,-1.3944,-1.3987,-1.4249,-1.4497,-1.4689,-1.5085,-1.5432,-1.5612,-1.5592,-1.5584,-1.5647,-1.548,-1.5334,-1.5334,-1.5556,-1.5609,-1.5612,-1.6064,-1.6409,-1.6328,-1.6723,-1.6927,-1.664,-1.6188,-1.5858,-1.5774,-1.5483,-1.5171,-1.4974,-1.4235,-1.3661,-1.3581,-1.3066,-1.2675,-1.2567,-1.2351,-1.2135,-1.2144,-1.2076,-1.2076,-1.2076,-1.2076,-1.2076,-1.2076,-1.2076,-1.2076,-1.2076,-1.2076,-1.2076,-2.8139,0.0,-2.7797,-2.7358,0.0,-2.7308,-2.6903,-2.586,-2.5263,-2.5061,-2.5257,-2.5061,-2.5075,-2.5257,-2.5061,-2.5005,-2.4991,-2.4693,-2.472,-2.4964,-2.4394,-2.4272,-2.4544,-2.4259,-2.3906,-2.3622,-2.3622,-2.3214,-2.2346,-2.2305,-2.1993,-2.141,-2.141,-2.141,-2.141,-2.141,-2.0941,-2.0075,-1.9537,-1.9076,-1.8806,-1.8521,-1.8221,-1.7896,-1.7922,0.0,0.0,0.0,0.0,0.0,0.0,0.0,0.0,0.0,0.0,-1.4775,-1.4463,-1.4403,-1.4734,-1.5019,-1.5331,-1.563,-1.5803,-1.5415,-1.4324,-1.4505,-1.4766,-1.5007,-1.5241,-1.5396,-1.5396,-1.5636,-1.5792,-1.5792,-1.5792,-1.5748,-1.5683,-1.5783,-1.5879,-1.5949,-1.6268,-1.6532,-1.6627,-1.6958,-1.7248,-1.7231,-1.7482,-1.7642,-1.7362,-1.7022,-1.664,-1.6219,-1.6007,-1.5753,-1.5476,-1.5017,-1.4512,-1.4481,-1.4094,-1.3618,-1.3352,-1.3159,-1.2864,-1.2503,-1.2373,-1.2332,-1.2126,-1.2076,-1.2076,-1.2076,-1.2076,-1.2076,-1.2076,-1.2076,-1.2076,-2.8587,-2.861,-2.8595,-2.8257,-2.7767,-2.8615,-2.8144,-2.6788,0.0,0.0,0.0,-2.5131,-2.5131,-2.5369,-2.5131,-2.5005,-2.5005,-2.5005,-2.5059,-2.5154,-2.5059,-2.5059,-2.5154,-2.5059,-2.4747,-2.4286,-2.4272,-2.3702,-2.2644,-2.2509,-2.2169,-2.1627,-2.1477,-2.141,-2.141,-2.141,-2.1131,-2.0644,-2.0134,-1.9591,-1.9103,-1.8915,-1.8575,-1.8045,-1.7936,-1.7922,-1.7922,-1.7922,-1.7651,-1.719,-1.7163,-1.6892,-1.6308,-1.6267,-1.6227,-1.6132,-1.6118,-1.6159,-1.6267,-1.6267,-1.6285,-1.6342,-1.6544,-1.632,-1.5541,-1.5344,-1.5398,-1.5744,-1.5792,-1.5792,-1.5792,-1.5792,-1.5792,-1.5792,-1.5792,-1.5772,-1.5745,-1.6054,-1.6385,-1.6492,-1.699,-1.7426,-1.7702,-1.7906,-1.8014,-1.812,-1.819,-1.8127,-1.792,-1.7655,-1.728,-1.6786,-1.6602,-1.6471,-1.6144,-1.5719,-1.5468,-1.5405,-1.5081,-1.4619,-1.4251,-1.4004,-1.3623,-1.293,-1.2804,-1.2635,-1.2304,-1.2204,-1.2199,-1.2135,-1.2076,-1.2076,-1.2076,-1.2076,-1.2076,-2.8587,-2.8587,-2.862,-2.8243,-2.7705,-2.7816,-2.7646,-2.7148,-2.6239,-2.548,-2.5061,-2.5005,-2.5005,-2.5061,-2.5005,-2.5005,-2.5005,-2.5005,-2.5276,-2.5724,-2.5236,-2.5276,-2.5724,-2.5249,-2.4964,-2.4883,-2.4883,-2.453,-2.3879,-2.3297,-2.2793,-2.2183,-2.1681,-2.141,-2.141,-2.141,-2.1334,-2.1287,-2.0671,-2.0332,-2.0224,-1.9293,-1.8765,-1.867,-1.8181,-1.7922,-1.7922,-1.7922,-1.7841,-1.776,-1.776,-1.7475,-1.6919,-1.6878,-1.6647,-1.6159,-1.6118,-1.6335,-1.6837,-1.6878,-1.6979,-1.7183,-1.7234,-1.7109,-1.6718,-1.6353,-1.6034,-1.5836,-1.5836,-1.5792,-1.5792,-1.5792,-1.5792,-1.5792,-1.5804,-1.596,-1.6334,-1.6513,-1.6752,-1.7159,-1.7723,-1.7945,-1.7934,-1.8382,-1.8696,-1.859,-1.8614,-1.8721,-1.8398,-1.781,-1.7368,-1.7191,-1.7169,-1.7136,-1.695,-1.6613,-1.6342,-1.6309,-1.568,-1.5133,-1.472,-1.4407,-1.4,-1.3303,-1.3264,-1.3097,-1.2715,-1.2641,-1.2485,-1.2195,-1.2113,-1.2076,-1.2076,-1.2076,-1.2076,-2.8587,-2.8587,-2.878,-2.8693,-2.8433,-2.8622,-2.8767,-2.8736,-2.7819,-2.6967,-2.626,-2.5936,-2.5644,-2.5467,-2.5174,-2.5005,-2.5005,-2.5005,-2.5141,-2.5371,-2.5127,-2.5154,-2.5371,-2.5127,-2.5005,-2.5005,-2.5005,-2.4706,-2.4137,-2.3784,-2.3228,-2.2332,-2.1708,-2.141,-2.141,-2.141,-2.141,-2.141,-2.1104,-2.0806,-2.0481,-1.9714,-1.9146,-1.882,-1.8221,-1.7922,-1.7922,-1.7922,-1.7922,-1.7922,-1.7922,-1.78,-1.7502,-1.7489,-1.7353,-1.7095,-1.7068,-1.719,-1.7461,-1.7475,-1.7544,-1.7679,-1.7666,-1.7543,-1.7199,-1.682,-1.6466,-1.612,-1.6076,-1.5988,-1.5836,-1.5792,-1.5792,-1.5792,-1.6032,-1.6308,-1.6596,-1.7135,-1.758,-1.7832,-1.8301,-1.8574,-1.847,-1.879,-1.8987,-1.8839,-1.8839,-1.8721,-1.8602,-1.8139,-1.7656,-1.7545,-1.7379,-1.7334,-1.7267,-1.7103,-1.694,-1.6929,-1.6645,-1.6169,-1.5756,-1.5447,-1.4992,-1.4189,-1.4,-1.3717,-1.3171,-1.2862,-1.266,-1.2461,-1.2245,-1.2104,-1.2076,-1.2076,-1.2076,-2.8587,-2.8587,-2.8844,-2.9035,-2.9099,-2.954,-2.9837,-3.0025,-2.9419,-2.8653,-2.774,-2.689,-2.6371,-2.6049,-2.541,-2.5131,-2.5131,-2.5005,-2.5005,-2.5005,-2.5005,-2.5005,-2.5005,-2.5005,-2.5005,-2.5005,-2.5005,-2.4761,-2.4354,-2.4191,-2.3499,-2.2359,-2.1708,-2.141,-2.141,-2.141,-2.141,-2.141,-2.141,-2.1192,-2.0698,-2.0175,-1.9591,-1.8981,-1.8439,-1.8058,-1.7896,-1.7922,-1.7922,-1.7922,-1.7922,-1.7922,-1.7922,-1.7922,-1.7922,-1.7922,-1.7922,-1.7922,-1.7922,-1.7922,-1.7922,-1.7922,-1.7922,-1.7801,-1.7529,-1.7295,-1.6905,-1.6398,-1.6194,-1.6076,-1.5869,-1.5792,-1.584,-1.596,-1.632,-1.6691,-1.7027,-1.7712,-1.8265,-1.8386,-1.8746,-1.8975,-1.8987,-1.8987,-1.8987,-1.8987,-1.8827,-1.8721,-1.8667,-1.8398,-1.8139,-1.792,-1.7656,-1.7501,-1.7379,-1.7368,-1.7357,-1.7334,-1.7256,-1.6957,-1.6623,-1.6501,-1.6111,-1.5117,-1.4899,-1.4562,-1.3827,-1.342,-1.3125,-1.2942,-1.2617,-1.2415,-1.2424,-1.2424,-1.2269,-2.8587,-2.8587,-2.8651,-2.8844,-2.9162,-2.9803,-3.005,-3.0158,-3.0329,-3.0044,-2.9218,-2.7541,-2.6807,-2.6596,-2.5855,-2.5466,-2.5466,-2.5131,-2.5005,-2.5005,-2.5005,-2.5005,-2.5005,-2.5005,-2.5005,-2.5005,-2.5005,-2.4964,-2.4856,-2.4367,-2.3513,-2.2373,-2.1708,-2.1423,-2.141,-2.141,-2.141,-2.141,-2.141,-2.1396,-2.1266,-2.0711,-2.0188,-1.9632,-1.9051,-1.8466,-1.799,-1.7922,-1.7922,-1.7922,-1.7922,-1.7922,-1.7922,-1.7922,-1.7922,-1.7922,-1.7922,-1.7922,-1.7922,-1.7922,-1.7922,-1.7922,-1.7922,-1.7882,-1.7842,-1.7788,-1.7365,-1.6607,-1.6044,-1.5925,-1.5792,-1.5816,-1.6032,-1.6522,-1.6608,-1.6991,-1.782,-1.8133,-1.8374,-1.8867,-1.8939,-1.8987,-1.8987,-1.8987,-1.8987,-1.8987,-1.8934,-1.8934,-1.8881,-1.8732,-1.856,-1.8452,-1.8236,-1.792,-1.7767,-1.7656,-1.7601,-1.739,-1.7334,-1.7155,-1.6888,-1.6652,-1.6373,-1.5899,-1.5723,-1.5399,-1.4824,-1.4371,-1.4098,-1.3513,-1.3266,-1.3131,-1.3167,-1.3157,-1.2917,-2.9162,-2.9226,-2.9162,-2.9415,-2.9727,-3.0205,-3.0401,-3.0401,-3.0507,-3.0422,-3.0089,-2.8943,-2.8168,-2.7613,-2.6666,-2.6288,-2.6204,-2.559,-2.5313,-2.5257,-2.5061,-2.5005,-2.5005,-2.5005,-2.5005,-2.5005,-2.5005,-2.5005,-2.491,-2.4408,-2.3689,-2.2823,-2.2251,-2.1776,-2.145,-2.141,-2.141,-2.141,-2.141,-2.141,-2.1342,-2.0806,-2.0386,-2.0134,-1.9279,-1.8711,-1.8439,-1.8113,-1.7922,-1.7922,-1.7922,-1.7922,-1.7922,-1.7922,-1.7922,-1.7922,-1.7922,-1.7922,-1.7922,-1.7922,-1.7922,-1.7922,-1.7922,-1.7922,-1.7882,-1.7747,-1.7538,-1.7446,-1.6853,-1.6473,-1.6549,-1.6384,-1.6476,-1.7015,-1.7364,-1.7736,-1.8121,-1.847,-1.877,-1.8963,-1.8987,-1.8987,-1.8987,-1.8987,-1.8987,-1.8987,-1.8987,-1.8987,-1.8999,-1.8881,-1.8827,-1.8827,-1.8721,-1.841,-1.803,-1.7931,-1.7877,-1.7767,-1.7656,-1.7423,-1.7312,-1.7099,-1.6864,-1.64,-1.6332,-1.611,-1.5528,-1.4912,-1.4419,-1.4006,-1.3561,-1.3296,-1.3296,-1.3504,-1.3415,-2.9602,-2.9602,-2.9727,-2.9865,-3.0111,-3.0462,-3.0642,-3.0642,-3.0642,-3.0642,-3.0524,-3.0074,-2.9507,-2.8742,-2.7542,-2.6849,-2.6567,-2.5939,-2.5605,-2.5592,-2.5355,-2.5286,-2.523,-2.5188,-2.5131,-2.5131,-2.5061,-2.5005,-2.4937,-2.4408,-2.3892,-2.3365,-2.2685,-2.2088,-2.1681,-2.1532,-2.141,-2.141,-2.141,-2.141,-2.1355,-2.105,-2.0751,-2.0473,-1.9551,-1.8997,-1.8793,-1.8235,-1.7922,-1.7922,-1.7922,-1.7922,-1.7922,-1.7922,-1.7922,-1.7922,-1.7922,-1.7922,-1.7922,-1.7922,-1.7922,-1.7922,-1.7922,-1.7922,-1.7909,-1.7813,-1.7998,-1.8315,-1.7869,-1.7542,-1.7451,-1.7183,-1.7205,-1.7715,-1.8101,-1.8241,-1.8422,-1.8794,-1.8975,-1.8987,-1.8987,-1.8987,-1.8987,-1.8987,-1.8987,-1.8987,-1.8987,-1.8987,-1.8987,-1.8999,-1.8987,-1.8987,-1.8999,-1.8774,-1.8356,-1.8247,-1.8247,-1.8096,-1.7877,-1.7755,-1.7711,-1.7501,-1.7334,-1.6853,-1.6797,-1.6606,-1.6136,-1.5485,-1.5054,-1.4893,-1.4475,-1.3997,-1.4277,-1.4412,-1.4289,-2.9602,-2.9665,-2.9927,-3.0111,-3.0111,-3.0462,-3.0642,-3.0642,-3.0642,-3.0642,-3.0642,-3.0584,-3.0495,-3.0203,-2.8225,-2.6969,-2.64,-2.6087,-2.5921,-2.5907,-2.5839,-2.5839,-2.5839,-2.5592,-2.5494,-2.5439,-2.5188,-2.5061,-2.5021,-2.4435,-2.4109,-2.4001,-2.2967,-2.2305,-2.2206,-2.173,-2.1423,-2.1471,-2.1458,-2.141,-2.1458,-2.1623,-2.1321,-2.0582,-1.9958,-1.9445,-1.8888,-1.8262,-1.795,-1.7936,-1.7936,-1.7922,-1.7922,-1.7922,-1.7922,-1.7922,-1.7922,-1.7922,-1.7922,-1.7922,-1.795,-1.795,-1.795,-1.7963,-1.8126,-1.8411,-1.8681,-1.8818,-1.8915,-1.8839,-1.8608,-1.8235,-1.8175,-1.8623,-1.8446,-1.8509,-1.8931,-1.898,-1.8987,-1.8987,-1.8987,-1.8987,-1.8987,-1.8987,-1.8987,-1.8987,-1.8987,-1.8987,-1.8987,-1.8987,-1.8987,-1.8987,-1.8987,-1.8881,-1.8614,-1.856,-1.841,-1.8302,-1.8193,-1.803,-1.7822,-1.7656,-1.749,-1.7379,-1.7323,-1.7088,-1.6729,-1.6415,-1.6136,-1.5857,-1.5656,-1.5395,-1.5153,-1.5598,-1.5499,-3.0266,-3.0266,-3.0401,-3.0401,-3.0462,-3.0568,-3.0642,-3.0642,-3.0642,-3.0642,-3.0642,-3.0642,-3.035,-2.9914,-2.9132,-2.841,-2.779,-2.7126,-2.6548,-2.6193,-2.6002,-2.5893,-2.5893,-2.5798,-2.5647,-2.5494,-2.5522,-2.5564,-2.555,-2.5328,-2.5037,-2.4579,-2.3802,-2.3206,-2.2762,-2.2207,-2.1888,-2.1902,-2.1888,-2.1902,-2.1902,-2.1996,-2.1824,-2.1321,-2.0772,-2.0257,-1.989,-1.8967,-1.8493,-1.848,-1.814,-1.7922,-1.7922,-1.7922,-1.7922,-1.7922,-1.7922,-1.7922,-1.7922,-1.7922,-1.8058,-1.8425,-1.8126,-1.8275,-1.8818,-1.8913,-1.9105,-1.9696,-1.9903,-2.0047,-2.0173,-1.9525,-1.909,-1.9535,-1.9369,-1.9162,-1.9294,-1.9198,-1.8987,-1.8987,-1.8987,-1.8987,-1.8987,-1.8987,-1.8987,-1.8987,-1.8987,-1.8987,-1.8987,-1.8987,-1.8987,-1.8987,-1.8987,-1.8987,-1.8881,-1.8827,-1.8774,-1.8667,-1.856,-1.8452,-1.8302,-1.803,-1.7865,-1.7755,-1.7711,-1.7601,-1.7245,-1.6853,-1.6627,-1.6389,-1.6208,-1.6104,-1.5864,-1.6171,-1.6099,-3.0642,-3.0642,-3.0642,-3.0642,-3.0642,-3.0642,-3.0642,-3.0642,-3.0642,-3.0642,-3.0642,-3.0642,-3.0335,-2.9972,-2.9929,-2.9581,-2.8913,-2.7878,-2.7104,-2.65,-2.6258,-2.6179,-2.6179,-2.6056,-2.5948,-2.5798,-2.5839,-2.5893,-2.5893,-2.5893,-2.5683,-2.5261,-2.4629,-2.4011,-2.3393,-2.2774,-2.2409,-2.224,-2.217,-2.217,-2.2231,-2.2263,-2.2184,-2.1941,-2.1639,-2.1121,-2.0528,-1.9591,-1.8997,-1.8793,-1.8453,-1.8248,-1.8124,-1.8083,-1.8083,-1.8083,-1.8029,-1.8003,-1.8044,-1.8099,-1.8398,-1.8765,-1.867,-1.8886,-1.9591,-1.9469,-1.9795,-2.0319,-2.0698,-2.0969,-2.1124,-2.0585,-2.0143,-2.0357,-2.0016,-1.9811,-1.9759,-1.9448,-1.9146,-1.904,-1.8987,-1.8987,-1.8987,-1.8987,-1.8987,-1.8987,-1.8987,-1.8987,-1.8987,-1.8987,-1.8987,-1.8987,-1.8987,-1.8987,-1.8987,-1.8934,-1.8934,-1.8881,-1.8827,-1.8721,-1.8614,-1.841,-1.8247,-1.8139,-1.8084,-1.7975,-1.77,-1.7312,-1.7022,-1.6775,-1.6673,-1.6627,-1.657,-1.6637,-1.6574,-3.0642,-3.0642,-3.0642,-3.0642,-3.0642,-3.0642,-3.0642,-3.0642,-3.0642,-3.0642,-3.0642,-3.0642,-3.0539,-3.0584,-3.0526,-3.0235,-2.9464,-2.8516,-2.7603,-2.6871,-2.6756,-2.6727,-2.6674,-2.6418,-2.6297,-2.6258,-2.6042,-2.5948,-2.6002,-2.6002,-2.596,-2.5807,-2.5297,-2.4676,-2.4011,-2.3463,-2.2808,-2.2461,-2.232,-2.2231,-2.2217,-2.2463,-2.2463,-2.2278,-2.236,-2.1861,-2.0642,-2.0057,-1.9544,-1.9082,-1.9017,-1.8878,-1.8537,-1.8439,-1.8478,-1.8439,-1.8321,-1.8202,-1.8259,-1.859,-1.8738,-1.9037,-1.9334,-1.9605,-1.9917,-2.0143,-2.0386,-2.0617,-2.0996,-2.1396,-2.1396,-2.1259,-2.1099,-2.0858,-2.0422,-2.022,-2.0118,-1.9862,-1.946,-1.9146,-1.904,-1.8987,-1.8987,-1.8987,-1.8987,-1.8987,-1.8987,-1.8987,-1.8987,-1.8987,-1.8987,-1.8987,-1.8987,-1.8987,-1.8987,-1.8987,-1.8987,-1.8987,-1.8934,-1.8893,-1.8774,-1.856,-1.8506,-1.8398,-1.829,-1.8193,-1.8247,-1.7854,-1.7645,-1.7412,-1.7312,-1.7088,-1.7043,-1.7043,-1.711,-3.0642,-3.0642,-3.0642,-3.0642,-3.0642,-3.0642,-3.0642,-3.0642,-3.0642,-3.0642,-3.0642,-3.0642,-3.0642,-3.0687,-3.0925,-3.0733,-3.0098,-2.9918,-2.904,-2.7613,-2.6997,-2.6846,-2.6779,-2.6712,-2.6645,-2.6606,-2.6312,-2.6312,-2.65,-2.6553,-2.6515,-2.6385,-2.5854,-2.5451,-2.5164,-2.4201,-2.3511,-2.3339,-2.2908,-2.2706,-2.2706,-2.2752,-2.2706,-2.2509,-2.2569,-2.2271,-2.1704,-2.1133,-2.0729,-2.0478,-1.9726,-1.9055,-1.8618,-1.8478,-1.8478,-1.8478,-1.8439,-1.853,-1.8782,-1.8976,-1.933,-1.9758,-1.9836,-2.0134,-2.069,-2.0603,-2.0711,-2.1043,-2.1315,-2.141,-2.141,-2.141,-2.1313,-2.1202,-2.0858,-2.061,-2.056,-2.0258,-1.9862,-1.95,-1.9396,-1.9303,-1.9093,-1.8987,-1.8987,-1.904,-1.904,-1.8987,-1.904,-1.9052,-1.8987,-1.8987,-1.8987,-1.8987,-1.8987,-1.8987,-1.8987,-1.8987,-1.8999,-1.8999,-1.8881,-1.8827,-1.8721,-1.8667,-1.8506,-1.8452,-1.8506,-1.8344,-1.8084,-1.7865,-1.7645,-1.749,-1.7334,-1.7278,-1.7278,-3.0642,-3.0642,-3.0642,-3.0702,-3.0866,-3.0866,-3.0925,-3.1014,-3.0925,-3.0925,-3.1029,-3.0925,-3.0911,-3.1087,-3.1379,-3.1255,-3.0878,-3.0703,-2.9847,-2.8571,-2.7883,-2.7469,-2.7248,-2.7203,-2.7218,-2.7152,-2.7004,-2.7004,-2.7203,-2.7218,-2.7203,-2.71,-2.6775,-2.6385,-2.5971,-2.5018,-2.4326,-2.3894,-2.3221,-2.2888,-2.2888,-2.2888,-2.2857,-2.2752,-2.2706,-2.2615,-2.2434,-2.2079,-2.1676,-2.1205,-2.0161,-1.9424,-1.908,-1.8892,-1.8736,-1.8697,-1.8701,-1.881,-1.9265,-1.9503,-1.9861,-2.0452,-2.0543,-2.0702,-2.1192,-2.1016,-2.1084,-2.1328,-2.141,-2.141,-2.141,-2.141,-2.141,-2.141,-2.1153,-2.0957,-2.0809,-2.056,-2.0271,-1.9914,-1.9668,-1.946,-1.9303,-1.904,-1.9093,-1.9146,-1.9093,-1.9093,-1.9146,-1.9105,-1.9052,-1.904,-1.8987,-1.8987,-1.8987,-1.8987,-1.8987,-1.8987,-1.8987,-1.8999,-1.8934,-1.8934,-1.8881,-1.8881,-1.8774,-1.8774,-1.8774,-1.856,-1.829,-1.8139,-1.7986,-1.7711,-1.749,-1.7323,-1.7323,-3.0642,-3.0642,-3.0642,-3.0925,-3.1219,-3.1336,-3.1495,-3.1766,-3.1495,-3.1495,-3.1709,-3.1437,-3.1495,-3.1807,-3.1879,-3.1875,-3.1708,-3.0838,-3.028,-2.9809,-2.9261,-2.8601,-2.7825,-2.7765,-2.7765,-2.7815,-2.7799,-2.7799,-2.7765,-2.7765,-2.7913,-2.7799,-2.7689,-2.7414,-2.6549,-2.5771,-2.4899,-2.4148,-2.331,-2.2888,-2.2888,-2.2888,-2.2888,-2.2888,-2.2888,-2.2843,-2.2828,-2.2711,-2.2316,-2.1393,-2.0542,-2.012,-2.002,-1.9537,-1.931,-1.9301,-1.9042,-1.9394,-1.9829,-2.0232,-2.0566,-2.101,-2.142,-2.1712,-2.1513,-2.15,-2.1459,-2.1506,-2.1506,-2.1458,-2.1458,-2.1458,-2.1458,-2.141,-2.1361,-2.1166,-2.0894,-2.0845,-2.066,-2.0271,-1.9914,-1.9656,-1.9668,-1.9356,-1.9356,-1.946,-1.9356,-1.9408,-1.9512,-1.946,-1.9146,-1.9093,-1.9146,-1.904,-1.9093,-1.8987,-1.8987,-1.8987,-1.8987,-1.8987,-1.8987,-1.8987,-1.8987,-1.8999,-1.8999,-1.8987,-1.8934,-1.8721,-1.856,-1.8464,-1.8193,-1.7877,-1.7656,-1.7545,-1.749,-3.0642,-3.0628,-3.0984,-3.1176,-3.1336,-3.1595,-3.1766,-3.1879,-3.1823,-3.1823,-3.1879,-3.1823,-3.1823,-3.1936,-3.2272,-3.2422,-3.2214,-3.183,-3.133,-3.0814,-3.0188,-2.9144,-2.8118,-2.7913,-2.7913,-2.7947,-2.7963,-2.7913,-2.7913,-2.7963,-2.7963,-2.7913,-2.7947,-2.7822,-2.7372,-2.6093,-2.5322,-2.484,-2.3547,-2.2888,-2.2888,-2.2888,-2.2888,-2.2888,-2.2888,-2.2888,-2.2888,-2.2888,-2.2598,-2.1917,-2.16,-2.1207,-2.0799,-2.0538,-2.0378,-2.0378,-2.0425,-2.0592,-2.0969,-2.1154,-2.1419,-2.1801,-2.1965,-2.2044,-2.1983,-2.1983,-2.1983,-2.1983,-2.1983,-2.1888,-2.1759,-2.1698,-2.1602,-2.141,-2.141,-2.1361,-2.1264,-2.1202,-2.1055,-2.0696,-2.056,-2.0308,-2.0067,-1.9926,-1.9875,-1.9978,-1.9926,-1.9862,-1.9965,-1.9811,-1.9552,-1.946,-1.946,-1.9251,-1.9146,-1.904,-1.8987,-1.8987,-1.8987,-1.8987,-1.8987,-1.8987,-1.8987,-1.8987,-1.8999,-1.8987,-1.8987,-1.8881,-1.8774,-1.8667,-1.8464,-1.8193,-1.803,-1.792,-1.7865,-3.1146,-3.1204,-3.1437,-3.1652,-3.1879,-3.2104,-3.2327,-3.2437,-3.2272,-3.2327,-3.2382,-3.2272,-3.2327,-3.2492,-3.2765,-3.2701,-3.2457,-3.2021,-3.1428,-3.0749,-3.0038,-2.9202,-2.8573,-2.8415,-2.8415,-2.8415,-2.8415,-2.8415,-2.8415,-2.8415,-2.8415,-2.8415,-2.8415,-2.8319,-2.8036,-2.6529,-2.554,-2.5129,-2.3785,-2.2888,-2.2888,-2.2888,-2.2888,-2.2933,-2.3008,-2.3127,-2.3083,-2.2963,-2.27,-2.241,-2.2135,-2.1801,-2.1452,-2.1133,-2.1003,-2.0988,-2.0988,-2.1194,-2.1657,-2.1772,-2.1985,-2.226,-2.237,-2.2324,-2.2217,-2.217,-2.217,-2.217,-2.217,-2.2123,-2.2044,-2.1983,-2.1855,-2.1664,-2.1554,-2.152,-2.141,-2.1361,-2.1313,-2.1118,-2.0908,-2.0746,-2.0472,-2.0321,-2.0321,-2.0372,-2.0283,-2.0321,-2.0359,-2.0169,-1.9965,-1.9811,-1.9512,-1.9251,-1.9146,-1.904,-1.8987,-1.8987,-1.8987,-1.8987,-1.8987,-1.8987,-1.8987,-1.8987,-1.8987,-1.8987,-1.8987,-1.8987,-1.8946,-1.8839,-1.8721,-1.856,-1.8398,-1.8247,-1.8193,-3.1879,-3.1879,-3.1921,-3.2201,-3.2532,-3.2656,-3.2888,-3.3118,-3.2834,-3.2951,-3.3222,-3.2959,-3.3013,-3.3309,-3.3171,-3.2898,-3.2124,-3.1428,-3.0733,-3.0085,-2.9532,-2.906,-2.9014,-2.8936,-2.8982,-2.8982,-2.9091,-2.9045,-2.8982,-2.9029,-2.9075,-2.8982,-2.9029,-2.8873,-2.8357,-2.698,-2.6016,-2.5392,-2.4177,-2.3303,-2.3186,-2.3157,-2.3157,-2.3187,-2.3246,-2.3363,-2.329,-2.3083,-2.2844,-2.2873,-2.2381,-2.2164,-2.2019,-2.1511,-2.1322,-2.1336,-2.1423,-2.1641,-2.2004,-2.2149,-2.225,-2.2546,-2.2615,-2.2555,-2.237,-2.2324,-2.2356,-2.237,-2.2278,-2.231,-2.2231,-2.2217,-2.2091,-2.1902,-2.1841,-2.1698,-2.1568,-2.1423,-2.141,-2.1361,-2.1055,-2.0908,-2.0759,-2.0623,-2.0472,-2.0809,-2.0723,-2.0723,-2.0723,-2.0623,-2.0321,-2.0016,-1.9656,-1.9251,-1.9146,-1.904,-1.904,-1.8987,-1.8987,-1.8987,-1.8987,-1.8987,-1.8987,-1.8987,-1.8987,-1.8987,-1.8987,-1.8999,-1.8999,-1.8946,-1.8839,-1.8721,-1.8614,-1.8506,-1.8464,-3.1879,-3.1936,-3.2312,-3.2477,-3.2656,-3.3011,-3.3187,-3.3324,-3.3203,-3.3502,-3.3934,-3.3959,-3.3628,-3.3309,-3.3166,-3.2629,-3.1428,-3.0701,-3.0022,-2.9406,-2.9248,-2.9091,-2.9091,-2.9091,-2.9091,-2.9091,-2.9091,-2.9091,-2.9091,-2.9091,-2.9091,-2.9091,-2.9091,-2.9091,-2.8779,-2.7767,-2.6886,-2.6167,-2.5076,-2.4191,-2.3728,-2.3683,-2.3683,-2.3711,-2.3508,-2.3406,-2.3319,-2.3083,-2.2888,-2.2844,-2.2757,-2.2613,-2.2569,-2.2482,-2.2352,-2.2337,-2.2381,-2.2497,-2.2642,-2.2642,-2.2728,-2.2785,-2.2797,-2.2812,-2.2737,-2.2706,-2.2737,-2.2752,-2.2752,-2.2646,-2.2523,-2.2324,-2.2217,-2.2137,-2.2137,-2.2091,-2.1996,-2.165,-2.1458,-2.141,-2.1313,-2.1264,-2.1264,-2.1166,-2.1118,-2.1202,-2.1215,-2.1166,-2.1068,-2.097,-2.066,-2.0308,-1.9965,-1.9604,-1.946,-1.9303,-1.9093,-1.9093,-1.9093,-1.904,-1.904,-1.9093,-1.9093,-1.9093,-1.8987,-1.8987,-1.8987,-1.8987,-1.8999,-1.8999,-1.8946,-1.8881,-1.8827,-1.8721,-1.8667,-3.2563,-3.2563,-3.2834,-3.2942,-3.2942,-3.3187,-3.3482,-3.3719,-3.3767,-3.4162,-3.4541,-3.4194,-3.3625,-3.3245,-3.2598,-3.1697,-3.0765,-3.0006,-2.9501,-2.9138,-2.9091,-2.9091,-2.9091,-2.9091,-2.9091,-2.9091,-2.9091,-2.9091,-2.9091,-2.9091,-2.9091,-2.9091,-2.9091,-2.9091,-2.8996,-2.8107,-2.7193,-2.6437,-2.5525,-2.4694,-2.4088,-2.3982,-2.4124,-2.4067,-2.3739,-2.345,-2.3653,-2.3187,-2.2933,-2.2888,-2.2888,-2.2888,-2.2888,-2.2888,-2.2888,-2.2888,-2.2888,-2.2888,-2.2873,-2.2888,-2.2873,-2.2888,-2.2888,-2.2888,-2.2888,-2.2888,-2.2888,-2.2888,-2.2888,-2.2857,-2.2752,-2.2646,-2.2509,-2.2417,-2.237,-2.2324,-2.2184,-2.1949,-2.1698,-2.1602,-2.1616,-2.1506,-2.1458,-2.141,-2.1361,-2.1313,-2.1313,-2.1264,-2.1215,-2.1068,-2.0908,-2.0597,-2.0321,-2.0067,-1.9862,-1.9604,-1.9251,-1.9251,-1.9239,-1.9146,-1.904,-1.9146,-1.9251,-1.9146,-1.8987,-1.8987,-1.8987,-1.8987,-1.8987,-1.8999,-1.8999,-1.8999,-1.8987,-1.8881,-1.8881,-3.3293,-3.3293,-3.3293,-3.3356,-3.3435,-3.3467,-3.3862,-3.4415,-3.4446,-3.4683,-3.4952,-3.3925,-3.3467,-3.2898,-3.1855,-3.0844,-3.0038,-2.9548,-2.9122,-2.9107,-2.9091,-2.9091,-2.9091,-2.9091,-2.9091,-2.9091,-2.9091,-2.9091,-2.9091,-2.9091,-2.9091,-2.9091,-2.9091,-2.9091,-2.8887,-2.8325,-2.7515,-2.6676,-2.5944,-2.5032,-2.4372,-2.4234,-2.4359,-2.44,-2.4051,-2.3782,-2.3797,-2.3407,-2.2963,-2.2888,-2.2888,-2.2888,-2.2888,-2.2888,-2.2888,-2.2888,-2.2888,-2.2888,-2.2888,-2.2888,-2.2888,-2.2888,-2.2888,-2.2888,-2.2888,-2.2888,-2.2888,-2.2888,-2.2888,-2.2888,-2.2888,-2.2843,-2.2752,-2.2706,-2.2661,-2.2509,-2.237,-2.2278,-2.2184,-2.1841,-2.1712,-2.165,-2.1506,-2.141,-2.141,-2.141,-2.141,-2.1361,-2.1264,-2.1215,-2.1055,-2.0894,-2.066,-2.0321,-2.0067,-1.9965,-1.9604,-1.95,-1.95,-1.9448,-1.9291,-1.9291,-1.9344,-1.9146,-1.8987,-1.8987,-1.8987,-1.8987,-1.8987,-1.8987,-1.8987,-1.8987,-1.8987,-1.8987,-1.8987,-3.3293,-3.3293,-3.3293,-3.3609,-3.4067,-3.413,-3.4541,-3.5126,-3.5189,-3.4905,-3.4494,-3.4178,-3.334,-3.244,-3.1618,-3.0528,-2.9532,-2.9154,-2.9091,-2.9091,-2.9091,-2.9091,-2.9091,-2.9091,-2.9091,-2.9091,-2.9091,-2.9091,-2.9091,-2.9091,-2.9091,-2.9091,-2.9091,-2.9091,-2.9059,-2.8808,-2.8023,-2.7079,-2.6553,-2.5853,-2.4992,-2.4726,-2.4766,-2.4806,-2.4426,-2.4193,-2.3925,-2.3566,-2.3216,-2.2933,-2.2888,-2.2933,-2.2978,-2.2978,-2.2933,-2.2888,-2.2888,-2.2888,-2.2888,-2.2888,-2.2888,-2.2888,-2.2888,-2.2888,-2.2888,-2.2888,-2.2888,-2.2888,-2.2888,-2.2888,-2.2888,-2.2888,-2.2888,-2.2843,-2.2797,-2.2783,-2.2737,-2.2692,-2.2463,-2.203,-2.1888,-2.1712,-2.1506,-2.141,-2.141,-2.141,-2.141,-2.141,-2.1361,-2.1313,-2.1313,-2.1153,-2.0957,-2.0573,-2.022,-2.022,-2.0067,-1.9965,-1.9965,-1.9965,-1.9811,-1.9656,-1.95,-1.9251,-1.9093,-1.8987,-1.8987,-1.8987,-1.8987,-1.8987,-1.8987,-1.8987,-1.8987,-1.8987,-1.8987,-3.3293,-3.3324,-3.3672,-3.4004,-3.432,-3.4699,-3.5268,-3.5805,-3.5552,-3.5189,-3.4604,-3.3751,-3.2692,-3.165,-3.0559,-2.9675,-2.9264,-2.9091,-2.9091,-2.9091,-2.9091,-2.9091,-2.9091,-2.9091,-2.9091,-2.9091,-2.9091,-2.9091,-2.9091,-2.9091,-2.9091,-2.9091,-2.9091,-2.9091,-2.898,-2.8649,-2.8094,-2.7241,-2.672,-2.6072,-2.5116,-2.5005,-2.5005,-2.4926,-2.4686,-2.44,-2.4234,-2.3925,-2.3653,-2.3538,-2.3466,-2.3466,-2.3422,-2.3231,-2.3053,-2.2933,-2.2888,-2.2888,-2.2888,-2.2888,-2.2888,-2.2888,-2.2888,-2.2888,-2.2888,-2.2888,-2.2888,-2.2888,-2.2888,-2.2888,-2.2888,-2.2888,-2.2888,-2.2888,-2.2888,-2.2888,-2.2888,-2.2888,-2.2601,-2.2217,-2.2137,-2.1902,-2.1458,-2.141,-2.141,-2.141,-2.141,-2.141,-2.141,-2.141,-2.141,-2.1313,-2.1166,-2.0921,-2.0623,-2.0523,-2.0472,-2.0422,-2.0422,-2.0422,-2.0271,-2.0016,-1.9708,-1.9448,-1.9303,-1.904,-1.8987,-1.8987,-1.8987,-1.8987,-1.8987,-1.8987,-1.8987,-1.8987,-1.8987,-3.3498,-3.3546,-3.4225,-3.451,-3.462,-3.5126,-3.5679,-3.5995,-3.5442,-3.4905,-3.451,-3.2929,-3.1697,-3.0875,-3.0006,-2.9311,-2.9122,-2.9091,-2.9091,-2.9091,-2.9091,-2.9091,-2.9091,-2.9091,-2.9091,-2.9091,-2.9091,-2.9091,-2.9091,-2.9091,-2.9091,-2.9091,-2.9091,-2.9091,-2.898,-2.8726,-2.7905,-2.713,-2.6577,-2.5851,-2.5211,-2.5005,-2.5005,-2.5005,-2.4742,-2.4564,-2.4457,-2.425,-2.4024,-2.394,-2.394,-2.394,-2.3839,-2.3551,-2.3246,-2.2963,-2.2888,-2.2888,-2.2888,-2.2888,-2.2888,-2.2888,-2.2888,-2.2888,-2.2888,-2.2888,-2.2888,-2.2888,-2.2888,-2.2888,-2.2888,-2.2888,-2.2888,-2.2888,-2.2888,-2.2888,-2.2888,-2.2888,-2.2783,-2.2509,-2.237,-2.2137,-2.1793,-2.165,-2.1698,-2.1554,-2.1554,-2.1458,-2.1458,-2.141,-2.141,-2.141,-2.1313,-2.1215,-2.1019,-2.0957,-2.0858,-2.0772,-2.0809,-2.0858,-2.0623,-2.0334,-2.0016,-1.9708,-1.9251,-1.8987,-1.8987,-1.8987,-1.8987,-1.8987,-1.8987,-1.8987,-1.8987,-1.8987,-1.8987,-3.4178,-3.4225,-3.4952,-3.5268,-3.5252,-3.5347,-3.541,-3.5394,-3.4699,-3.3704,-3.2823,-3.1776,-3.0954,-3.0322,-3.0133,-2.9643,-2.9295,-2.9091,-2.9091,-2.9091,-2.9091,-2.9091,-2.9091,-2.9091,-2.9091,-2.9091,-2.9091,-2.9091,-2.9091,-2.9091,-2.9091,-2.9091,-2.9091,-2.9091,-2.9059,-2.8821,-2.8347,-2.732,-2.6957,-2.6246,-2.5243,-2.5005,-2.5005,-2.4966,-2.4926,-2.4806,-2.458,-2.4457,-2.4359,-2.4109,-2.4024,-2.3839,-2.3551,-2.345,-2.3216,-2.3008,-2.2888,-2.2888,-2.2888,-2.2888,-2.2888,-2.2888,-2.2888,-2.2888,-2.2888,-2.2888,-2.2888,-2.2888,-2.2888,-2.2888,-2.2888,-2.2888,-2.2888,-2.2888,-2.2888,-2.2888,-2.2888,-2.2888,-2.2783,-2.2752,-2.2569,-2.2417,-2.2184,-2.2137,-2.2044,-2.1902,-2.1759,-2.1602,-2.1506,-2.1506,-2.141,-2.141,-2.141,-2.1313,-2.1264,-2.1215,-2.1166,-2.1068,-2.1118,-2.1153,-2.097,-2.0623,-2.0334,-1.9978,-1.9512,-1.9146,-1.9146,-1.9146,-1.904,-1.8987,-1.8987,-1.8987,-1.8987,-1.8987,-1.8987,-3.4541,-3.4968,-3.5679,-3.5742,-3.541,-3.5394,-3.5142,-3.4589,-3.3625,-3.2598,-3.1681,-3.0954,-3.0243,-2.9722,-2.9595,-2.9422,-2.9138,-2.9091,-2.9091,-2.9091,-2.9091,-2.9091,-2.9091,-2.9091,-2.9091,-2.9091,-2.9091,-2.9091,-2.9091,-2.9091,-2.9091,-2.9091,-2.9091,-2.9091,-2.9044,-2.8742,-2.8015,-2.713,-2.634,-2.5654,-2.5163,-2.5005,-2.5005,-2.5005,-2.5005,-2.4902,-2.4822,-2.4782,-2.4726,-2.4523,-2.44,-2.4234,-2.3952,-2.3681,-2.3334,-2.3216,-2.3008,-2.2888,-2.2888,-2.2888,-2.2888,-2.2888,-2.2888,-2.2888,-2.2888,-2.2888,-2.2888,-2.2888,-2.2888,-2.2888,-2.2888,-2.2888,-2.2888,-2.2888,-2.2888,-2.2888,-2.2888,-2.2888,-2.2843,-2.2797,-2.2752,-2.2615,-2.2463,-2.2324,-2.2231,-2.2137,-2.2044,-2.1949,-2.1841,-2.1759,-2.1602,-2.141,-2.141,-2.1361,-2.1361,-2.1313,-2.1313,-2.1264,-2.1264,-2.1313,-2.1215,-2.097,-2.0623,-2.0372,-2.0067,-1.9708,-1.9396,-1.9198,-1.9093,-1.904,-1.8987,-1.8987,-1.8987,-1.8987,-1.8987,-3.4367,-3.4952,-3.5805,-3.5584,-3.4668,-3.4794,-3.432,-3.3388,-3.225,-3.1444,-3.0891,-3.0243,-2.9611,-2.9248,-2.9138,-2.9138,-2.9107,-2.9091,-2.9091,-2.9091,-2.9091,-2.9091,-2.9091,-2.9091,-2.9091,-2.9091,-2.9091,-2.9091,-2.9091,-2.9091,-2.9091,-2.9091,-2.9091,-2.9091,-2.8949,-2.8695,-2.8063,-2.7099,-2.6009,-2.5369,-2.5053,-2.5005,-2.5005,-2.5005,-2.5005,-2.5005,-2.5005,-2.4966,-2.4966,-2.4926,-2.4742,-2.4564,-2.4359,-2.4009,-2.3724,-2.3566,-2.3363,-2.3187,-2.3053,-2.2963,-2.2933,-2.2888,-2.2888,-2.2888,-2.2888,-2.2888,-2.2888,-2.2888,-2.2888,-2.2888,-2.2888,-2.2888,-2.2888,-2.2888,-2.2888,-2.2888,-2.2888,-2.2888,-2.2888,-2.2843,-2.2843,-2.2843,-2.2706,-2.2523,-2.2417,-2.231,-2.2278,-2.2278,-2.2137,-2.1996,-2.1888,-2.1698,-2.1698,-2.165,-2.1554,-2.1506,-2.1471,-2.1423,-2.141,-2.1361,-2.1313,-2.1118,-2.0759,-2.061,-2.0459,-2.0169,-1.9759,-1.946,-1.9158,-1.9052,-1.8987,-1.8987,-1.8987,-1.8987,-1.8987,-3.3403,-3.3561,-3.4857,-3.4288,-3.2697,-3.3182,-3.2677,-3.1571,-3.0717,-3.0354,-3.0164,-2.958,-2.9264,-2.9091,-2.9091,-2.9091,-2.9091,-2.9091,-2.9091,-2.9091,-2.9091,-2.9091,-2.9091,-2.9091,-2.9091,-2.9091,-2.9091,-2.9091,-2.9091,-2.9091,-2.9091,-2.9091,-2.9091,-2.9091,-2.9012,-2.8821,-2.8205,-2.7304,-2.6356,-2.5614,-2.5266,-2.5116,-2.5069,-2.5021,-2.5005,-2.5005,-2.5005,-2.5005,-2.5005,-2.5005,-2.4846,-2.4742,-2.4498,-2.4276,-2.4051,-2.3882,-2.3797,-2.3625,-2.3436,-2.3142,-2.2933,-2.2888,-2.2888,-2.2888,-2.2888,-2.2888,-2.2888,-2.2888,-2.2888,-2.2888,-2.2888,-2.2888,-2.2888,-2.2888,-2.2888,-2.2888,-2.2888,-2.2888,-2.2888,-2.2888,-2.2888,-2.2888,-2.2888,-2.2706,-2.2661,-2.2555,-2.2509,-2.2509,-2.2324,-2.2217,-2.217,-2.2077,-2.2077,-2.1983,-2.1793,-2.1698,-2.1616,-2.1471,-2.141,-2.141,-2.1361,-2.1104,-2.0957,-2.0858,-2.0723,-2.0422,-2.0182,-1.9914,-1.9604,-1.9198,-1.8987,-1.8987,-1.8987,-1.8987,-1.8987,-3.2029,-3.2076,-3.2613,-3.2613,-3.225,-3.2092,-3.1476,-3.0559,-2.9832,-2.9532,-2.9532,-2.9248,-2.9091,-2.9091,-2.9091,-2.9091,-2.9091,-2.9091,-2.9091,-2.9091,-2.9091,-2.9091,-2.9091,-2.9091,-2.9091,-2.9091,-2.9091,-2.9091,-2.9091,-2.9091,-2.9091,-2.9091,-2.9091,-2.9091,-2.9028,-2.8805,-2.8205,-2.7762,-2.702,-2.634,-2.5772,-2.5582,-2.5408,-2.5021,-2.5005,-2.5005,-2.5005,-2.5005,-2.5005,-2.4966,-2.4806,-2.4645,-2.4539,-2.4359,-2.4234,-2.4051,-2.4067,-2.3967,-2.3739,-2.3436,-2.3127,-2.2933,-2.2888,-2.2888,-2.2888,-2.2888,-2.2888,-2.2888,-2.2888,-2.2888,-2.2888,-2.2888,-2.2888,-2.2888,-2.2888,-2.2888,-2.2888,-2.2888,-2.2888,-2.2888,-2.2888,-2.2888,-2.2888,-2.2888,-2.2843,-2.2797,-2.2752,-2.2692,-2.2555,-2.2402,-2.2356,-2.2324,-2.2324,-2.217,-2.1983,-2.1855,-2.1712,-2.1602,-2.1458,-2.1506,-2.1506,-2.1375,-2.1215,-2.1118,-2.1019,-2.0858,-2.066,-2.0459,-2.0118,-1.9604,-1.9251,-1.8987,-1.8987,-1.9093,-1.9146,-3.078,-3.0607,-3.0591,-3.086,-3.1255,-3.1033,-3.0496,-2.9848,-2.9374,-2.9091,-2.9091,-2.9091,-2.9091,-2.9091,-2.9091,-2.9091,-2.9091,-2.9091,-2.9091,-2.9091,-2.9091,-2.9091,-2.9091,-2.9091,-2.9091,-2.9091,-2.9091,-2.9091,-2.9091,-2.9091,-2.9091,-2.9091,-2.9091,-2.9091,-2.898,-2.8695,-2.83,-2.8,-2.7652,-2.7051,-2.6435,-2.6056,-2.5866,-2.5338,-2.5163,-2.5005,-2.5005,-2.5005,-2.5005,-2.4926,-2.4806,-2.4686,-2.4564,-2.4441,-2.4317,-2.4317,-2.4276,-2.4276,-2.4067,-2.3653,-2.3334,-2.3127,-2.2933,-2.2933,-2.2888,-2.2888,-2.2888,-2.2888,-2.2888,-2.2888,-2.2888,-2.2888,-2.2888,-2.2888,-2.2888,-2.2888,-2.2888,-2.2888,-2.2888,-2.2888,-2.2888,-2.2888,-2.2888,-2.2888,-2.2888,-2.2843,-2.2843,-2.2783,-2.2737,-2.2646,-2.2601,-2.2555,-2.2523,-2.2324,-2.2091,-2.2091,-2.2091,-2.1888,-2.1793,-2.1746,-2.1759,-2.1616,-2.1568,-2.1458,-2.141,-2.1348,-2.1153,-2.0908,-2.0409,-1.9926,-1.9668,-1.9408,-1.9512,-1.9617,-1.9565,-2.9832,-2.9154,-2.9201,-2.9233,-2.9485,-2.9943,-2.9817,-2.9311,-2.9138,-2.9091,-2.9091,-2.9091,-2.9091,-2.9091,-2.9091,-2.9091,-2.9091,-2.9091,-2.9091,-2.9091,-2.9091,-2.9091,-2.9137,-2.9137,-2.9167,-2.9121,-2.9167,-2.9183,-2.9183,-2.9183,-2.9183,-2.9074,-2.9027,-2.8996,-2.9059,-2.9075,-2.8758,-2.8189,-2.8047,-2.7683,-2.6988,-2.6404,-2.6119,-2.574,-2.525,-2.5021,-2.5005,-2.5005,-2.5005,-2.4966,-2.4966,-2.4886,-2.4886,-2.4886,-2.4846,-2.4846,-2.4886,-2.4766,-2.4498,-2.3809,-2.3493,-2.3319,-2.3083,-2.3023,-2.2992,-2.2933,-2.2963,-2.3008,-2.2933,-2.2888,-2.2888,-2.2888,-2.2888,-2.2888,-2.2888,-2.2888,-2.2888,-2.2888,-2.2888,-2.2888,-2.2888,-2.2888,-2.2888,-2.2888,-2.2888,-2.2888,-2.2888,-2.2888,-2.2843,-2.2843,-2.2737,-2.2737,-2.2661,-2.2569,-2.2417,-2.2523,-2.2463,-2.2263,-2.2077,-2.1983,-2.1996,-2.1983,-2.1888,-2.1855,-2.1746,-2.1684,-2.1492,-2.1299,-2.0957,-2.066,-2.022,-2.0016,-2.008,-2.008,-1.9926,-2.9343,-2.9091,-2.9091,-2.9091,-2.9122,-2.9358,-2.9327,-2.9153,-2.9091,-2.9091,-2.9091,-2.9091,-2.9091,-2.9091,-2.9137,-2.9137,-2.9137,-2.9091,-2.9091,-2.9137,-2.9137,-2.9229,-2.9259,-2.9259,-2.9243,-2.947,-2.947,-2.9425,-2.9605,-2.938,-2.9335,-2.9287,-2.8928,-2.8726,-2.8965,-2.9044,-2.879,-2.8316,-2.8363,-2.8284,-2.7241,-2.683,-2.6451,-2.6009,-2.5369,-2.5021,-2.5045,-2.5045,-2.5045,-2.5045,-2.5045,-2.5045,-2.5045,-2.5045,-2.5005,-2.5005,-2.5005,-2.4966,-2.4806,-2.4451,-2.4021,-2.3666,-2.3334,-2.3363,-2.3538,-2.3348,-2.329,-2.3172,-2.2963,-2.2933,-2.2888,-2.2888,-2.2888,-2.2888,-2.2888,-2.2888,-2.2888,-2.2888,-2.2888,-2.2888,-2.2888,-2.2888,-2.2888,-2.2888,-2.2888,-2.2888,-2.2888,-2.2888,-2.2888,-2.2888,-2.2843,-2.2843,-2.2797,-2.2752,-2.2706,-2.2661,-2.2615,-2.237,-2.2217,-2.2123,-2.217,-2.2263,-2.2184,-2.2091,-2.2077,-2.203,-2.1888,-2.1746,-2.1746,-2.1492,-2.0957,-2.0523,-2.0472,-2.0321,-2.0131,-2.9091,-2.9091,-2.9091,-2.9091,-2.9091,-2.9091,-2.9091,-2.9091,-2.9091,-2.9091,-2.9091,-2.9091,-2.9167,-2.9213,-2.9259,-2.9289,-2.9335,-2.9335,-2.935,-2.9335,-2.9335,-2.947,-2.9515,-2.9425,-2.947,-2.9649,-2.9621,-2.956,-2.947,-2.938,-2.938,-2.9297,-2.8889,-2.9032,-2.9098,-2.8815,-2.8474,-2.8252,-2.8458,-2.8047,-2.7415,-2.6972,-2.6493,-2.6027,-2.5544,-2.5123,-2.5201,-2.5201,-2.5201,-2.5201,-2.5201,-2.5201,-2.5201,-2.5201,-2.5201,-2.5201,-2.5201,-2.5146,-2.5029,-2.4934,-2.4502,-2.4173,-2.3794,-2.3696,-2.3739,-2.3465,-2.329,-2.3172,-2.3008,-2.2918,-2.2888,-2.2888,-2.2888,-2.2888,-2.2888,-2.2888,-2.2888,-2.2888,-2.2888,-2.2888,-2.2888,-2.2888,-2.2888,-2.2888,-2.2888,-2.2888,-2.2888,-2.2888,-2.2888,-2.2888,-2.2888,-2.2888,-2.2888,-2.2843,-2.2752,-2.2752,-2.2661,-2.2463,-2.2402,-2.2356,-2.2463,-2.2555,-2.2463,-2.237,-2.2324,-2.231,-2.2231,-2.2184,-2.2123,-2.1935,-2.1602,-2.1202,-2.0908,-2.0809,-2.0709,-2.9121,-2.9121,-2.9121,-2.9198,-2.9167,-2.9289,-2.9213,-2.9137,-2.9137,-2.9183,-2.9121,-2.9183,-2.9289,-2.9486,-2.9515,-2.9605,-2.9677,-2.9722,-2.9722,-2.9705,-2.9661,-2.9766,-2.9798,-2.9863,-2.9948,-2.9765,-2.983,-3.0116,-2.9386,-2.9396,-2.947,-2.9422,-2.9259,-2.9367,-2.9127,-2.8339,-2.8084,-2.8338,-2.8211,-2.8049,-2.7842,-2.6878,-2.6564,-2.6198,-2.5806,-2.549,-2.547,-2.5508,-2.5546,-2.5546,-2.5546,-2.5584,-2.5584,-2.5621,-2.5621,-2.5605,-2.5567,-2.5416,-2.5224,-2.5169,-2.513,-2.4839,-2.4451,-2.3979,-2.3681,-2.3666,-2.3465,-2.3216,-2.2963,-2.2918,-2.2888,-2.2888,-2.2888,-2.2888,-2.2888,-2.2888,-2.2888,-2.2888,-2.2888,-2.2888,-2.2888,-2.2888,-2.2888,-2.2888,-2.2888,-2.2888,-2.2888,-2.2888,-2.2888,-2.2888,-2.2888,-2.2888,-2.2888,-2.2888,-2.2843,-2.2843,-2.2797,-2.2646,-2.2692,-2.2692,-2.2797,-2.2797,-2.2706,-2.2615,-2.2601,-2.2555,-2.2509,-2.2463,-2.2463,-2.2263,-2.2077,-2.1888,-2.1589,-2.1684,-2.1636,-2.9761,-2.9951,-3.0133,-3.0227,-3.0243,-3.026,-2.9935,-2.9425,-2.956,-2.9605,-2.9605,-2.9589,-2.9726,-2.9738,-2.9722,-2.9826,-2.9826,-2.9793,-2.9793,-2.9886,-3.0207,-2.9902,-3.0032,-3.0429,-3.0579,-3.09,-3.1124,-3.1063,-3.0729,-3.0271,-2.9694,-2.9689,-2.9399,-2.9459,-2.8973,-2.7881,-2.8233,-2.8351,-2.8222,-2.8164,-2.7955,-2.7024,-2.6832,-2.6631,-2.6008,-2.5697,-2.5621,-2.5659,-2.5659,-2.5642,-2.5605,-2.5605,-2.5621,-2.5621,-2.5621,-2.5605,-2.5696,-2.5696,-2.553,-2.5605,-2.5621,-2.5492,-2.5208,-2.4934,-2.4517,-2.4105,-2.3782,-2.3436,-2.3142,-2.3098,-2.3008,-2.2963,-2.2933,-2.2888,-2.2888,-2.2888,-2.2888,-2.2888,-2.2888,-2.2888,-2.2888,-2.2888,-2.2888,-2.2888,-2.2888,-2.2888,-2.2888,-2.2888,-2.2888,-2.2888,-2.2888,-2.2888,-2.2888,-2.2888,-2.2888,-2.2843,-2.2888,-2.2888,-2.2888,-2.2888,-2.2888,-2.2843,-2.2857,-2.2797,-2.2752,-2.2752,-2.2752,-2.2752,-2.2692,-2.2737,-2.2601,-2.2463,-2.2324,-2.2324,-2.2263,-3.0981,-3.1416,-3.1583,-3.1666,-3.1649,-3.1748,-3.1458,-3.1057,-3.075,-3.0619,-3.0603,-3.0662,-3.0514,-3.0417,-3.0674,-3.094,-3.1041,-3.1508,-3.1465,-3.1133,-3.1113,-3.1224,-3.1331,-3.1413,-3.1786,-3.21,-3.2032,-3.1782,-3.1309,-3.0582,-2.9941,-2.9951,-2.9453,-2.9489,-2.9319,-2.8903,-2.8707,-2.851,-2.8217,-2.8037,-2.764,-2.7097,-2.6789,-2.6786,-2.6059,-2.5847,-2.5807,-2.5807,-2.5807,-2.5844,-2.5844,-2.5844,-2.586,-2.586,-2.5844,-2.5881,-2.5934,-2.597,-2.5897,-2.5934,-2.5934,-2.586,-2.5807,-2.5454,-2.5068,-2.4574,-2.4162,-2.3782,-2.3523,-2.3319,-2.3187,-2.3098,-2.3008,-2.2933,-2.2888,-2.2888,-2.2888,-2.2888,-2.2888,-2.2888,-2.2888,-2.2888,-2.2888,-2.2888,-2.2888,-2.2888,-2.2888,-2.2888,-2.2888,-2.2888,-2.2888,-2.2888,-2.2888,-2.2888,-2.2888,-2.2888,-2.2888,-2.2888,-2.2888,-2.2888,-2.2888,-2.2888,-2.2888,-2.2888,-2.2888,-2.2888,-2.2843,-2.2843,-2.2843,-2.2888,-2.2888,-2.2752,-2.2601,-2.2601,-2.2509,-3.2479,-3.3111,-3.3128,-3.3102,-3.3246,-3.3277,-3.3393,-3.3505,-3.2679,-3.216,-3.2085,-3.2051,-3.1806,-3.1662,-3.2006,-3.2347,-3.254,-3.292,-3.2812,-3.2627,-3.2944,-3.2863,-3.2562,-3.2992,-3.2784,-3.2724,-3.2557,-3.2196,-3.0945,-3.0163,-2.9819,-3.0084,-2.9838,-2.9568,-2.9197,-2.9378,-2.9164,-2.8695,-2.7699,-2.6971,-2.7404,-2.6753,-2.5749,-2.6094,-2.6032,-2.6007,-2.6115,-2.6168,-2.6203,-2.6168,-2.6168,-2.6184,-2.6132,-2.6132,-2.6132,-2.6115,-2.6132,-2.6132,-2.6079,-2.6132,-2.6132,-2.6115,-2.6151,-2.5807,-2.5378,-2.495,-2.4533,-2.4009,-2.3711,-2.3523,-2.3392,-2.326,-2.3172,-2.3008,-2.2888,-2.2888,-2.2888,-2.2888,-2.2888,-2.2888,-2.2888,-2.2888,-2.2888,-2.2888,-2.2888,-2.2888,-2.2888,-2.2888,-2.2888,-2.2888,-2.2888,-2.2888,-2.2888,-2.2888,-2.2888,-2.2888,-2.2888,-2.2888,-2.2888,-2.2888,-2.2888,-2.2888,-2.2888,-2.2888,-2.2888,-2.2888,-2.2888,-2.2888,-2.2888,-2.2888,-2.2888,-2.2888,-2.2843,-2.2783,-2.2692,-3.3619,-3.3882,-3.354,-3.3758,-3.4192,-3.3709,-3.4144,-3.5192,-3.5014,-3.418,-3.3458,-3.3315,-3.3236,-3.3003,-3.3231,-3.3408,-3.3425,-3.3544,-3.3648,-3.3322,-3.3585,-3.3174,-3.306,-3.3339,-3.3316,-3.3027,-3.2731,-3.2276,-3.0869,-2.9963,-2.9239,-2.8923,-2.894,-2.888,-2.8671,-2.9003,-2.8903,-2.8655,-2.7717,-2.7388,-2.8277,-2.7278,-2.6261,-2.6478,-2.6545,-2.6165,-2.6203,-2.6203,-2.6203,-2.6203,-2.6203,-2.6203,-2.6203,-2.6203,-2.6203,-2.6203,-2.6203,-2.6203,-2.6203,-2.6203,-2.6203,-2.6203,-2.6168,-2.6007,-2.5712,-2.5301,-2.4831,-2.4343,-2.3967,-2.3767,-2.3638,-2.3508,-2.3377,-2.3127,-2.2978,-2.2978,-2.2978,-2.2933,-2.2933,-2.2933,-2.2933,-2.2933,-2.2933,-2.2888,-2.2888,-2.2888,-2.2888,-2.2888,-2.2888,-2.2888,-2.2888,-2.2888,-2.2888,-2.2888,-2.2888,-2.2888,-2.2888,-2.2888,-2.2888,-2.2888,-2.2888,-2.2888,-2.2888,-2.2888,-2.2888,-2.2888,-2.2888,-2.2888,-2.2888,-2.2888,-2.2888,-2.2888,-2.2888,-2.2843,-2.2752,-3.2976,-3.333,-3.3142,-3.3266,-3.3547,-3.3196,-3.3705,-3.4635,-3.4776,-3.4571,-3.432,-3.4454,-3.4315,-3.3917,-3.4004,-3.3585,-3.345,-3.3575,-3.3006,-3.283,-3.3045,-3.2645,-3.2826,-3.324,-3.3199,-3.2925,-3.2521,-3.1817,-3.0533,-2.9559,-2.8793,-2.8417,-2.8362,-2.8229,-2.808,-2.818,-2.8428,-2.8412,-2.7665,-2.7992,-2.8771,-2.7379,-2.6402,-2.6568,-2.6468,-2.6203,-2.6203,-2.6203,-2.6203,-2.6203,-2.6203,-2.6203,-2.6203,-2.6203,-2.6203,-2.6203,-2.6203,-2.6203,-2.6203,-2.6203,-2.6203,-2.6203,-2.6203,-2.6043,-2.5897,-2.553,-2.5416,-2.4974,-2.4895,-2.4744,-2.4436,-2.4256,-2.3979,-2.3711,-2.3668,-2.3668,-2.3581,-2.3538,-2.3494,-2.3494,-2.3407,-2.3172,-2.3127,-2.2918,-2.2918,-2.2888,-2.2888,-2.2888,-2.2888,-2.2888,-2.2888,-2.2888,-2.2888,-2.2888,-2.2888,-2.2888,-2.2888,-2.2888,-2.2888,-2.2888,-2.2888,-2.2888,-2.2888,-2.2888,-2.2888,-2.2888,-2.2888,-2.2888,-2.2888,-2.2888,-2.2888,-2.2888,-2.2888,-2.2888,-2.2843,-3.1861,-3.2353,-3.2283,-3.2318,-3.2371,-3.2283,-3.2687,-3.3301,-3.3389,-3.374,-3.423,-3.4844,-3.4477,-3.4179,-3.3968,-3.3283,-3.2932,-3.3088,-3.2424,-3.2109,-3.2284,-3.216,-3.2173,-3.2345,-3.2397,-3.2034,-3.1509,-3.0976,-3.0179,-2.9198,-2.8501,-2.8256,-2.8052,-2.7852,-2.7616,-2.7931,-2.8379,-2.8196,-2.7898,-2.7914,-2.7561,-2.6965,-2.6468,-2.6236,-2.6203,-2.6203,-2.6203,-2.6203,-2.6203,-2.6203,-2.6203,-2.6203,-2.6203,-2.6203,-2.6203,-2.6203,-2.6203,-2.6203,-2.6203,-2.6203,-2.6203,-2.6203,-2.6203,-2.6115,-2.597,-2.5881,-2.577,-2.5696,-2.5621,-2.5416,-2.5052,-2.4815,-2.4533,-2.4261,-2.4261,-2.4177,-2.4094,-2.3967,-2.3925,-2.3925,-2.3653,-2.3421,-2.326,-2.3053,-2.3008,-2.2918,-2.2933,-2.2888,-2.2888,-2.2888,-2.2888,-2.2888,-2.2888,-2.2888,-2.2888,-2.2888,-2.2888,-2.2888,-2.2888,-2.2888,-2.2888,-2.2888,-2.2888,-2.2888,-2.2888,-2.2888,-2.2888,-2.2888,-2.2888,-2.2888,-2.2888,-2.2888,-2.2888,-2.2888,-2.2888,-3.2248,-3.2353,-3.1703,-3.1756,-3.2177,-3.1668,-3.1879,-3.2529,-3.2546,-3.2722,-3.2827,-3.2967,-3.3055,-3.3406,-3.2932,-3.2371,-3.2037,-3.2283,-3.2493,-3.2353,-3.1668,-3.1707,-3.1655,-3.1342,-3.1332,-3.0896,-3.0189,-2.9363,-2.9291,-2.8628,-2.7792,-2.7106,-2.7039,-2.6916,-2.68,-2.7346,-2.8092,-2.7992,-2.834,-2.8489,-2.7479,-2.6899,-2.6369,-2.6203,-2.6203,-2.6203,-2.6203,-2.6203,-2.6203,-2.6203,-2.6203,-2.6203,-2.6203,-2.6203,-2.6203,-2.6203,-2.6203,-2.6203,-2.6203,-2.6203,-2.6203,-2.6203,-2.6203,-2.6168,-2.6079,-2.6079,-2.6007,-2.597,-2.586,-2.553,-2.5262,-2.5185,-2.4934,-2.4719,-2.4599,-2.441,-2.4261,-2.4105,-2.3964,-2.3809,-2.3566,-2.3436,-2.3304,-2.3187,-2.3187,-2.3142,-2.3053,-2.3053,-2.3053,-2.2963,-2.2888,-2.2888,-2.2888,-2.2888,-2.2888,-2.2888,-2.2888,-2.2888,-2.2888,-2.2888,-2.2888,-2.2888,-2.2888,-2.2888,-2.2888,-2.2888,-2.2888,-2.2888,-2.2888,-2.2888,-2.2888,-2.2888,-2.2888,-2.2888,-2.2888]},{"header":{"parameterUnit":"m.s-1","parameterCategory":1,"la1":31.0,"la2":29.5877,"lo1":-88.7671,"lo2":-86.6584,"dy":0.0162,"dx":0.0185,"nx":115,"ny":88,"refTime":"2024-07-01T00:00:00:Z","depth":0,"parameterNumber":3,"parameterNumberName":"V-component_of_WINDS"},"data":[0.0,0.0,0.0,0.0,0.0,0.0,0.0,0.0,0.0,0.0,0.0,0.0,0.0,0.0,0.0,0.0,0.0,0.0,0.0,0.0,0.0,0.0,0.0,0.0,0.0,0.0,0.0,0.0,0.0,0.0,0.0,0.0,0.0,0.0,0.0,0.0,0.0,0.0,0.0,0.0,0.0,0.0,0.0,0.0,0.0,0.0,0.0,0.0,0.0,0.0,0.0,0.0,0.0,0.0,0.0,0.0,0.0,0.0,0.0,0.0,0.0,0.0,0.0,0.0,0.0,0.0,0.0,0.0,0.0,0.0,0.0,0.0,0.0,0.0,0.0,0.0,0.0,0.0,0.0,0.0,0.0,0.0,0.0,0.0,0.0,0.0,0.0,0.0,0.0,0.0,0.0,0.0,0.0,0.0,0.0,0.0,0.0,0.0,0.0,0.0,0.0,0.0,0.0,0.0,0.0,0.0,0.0,0.0,0.0,0.0,0.0,0.0,0.0,0.0,0.0,0.0,0.0,0.0,0.0,0.0,0.0,0.0,0.0,0.0,0.0,0.0,0.0,0.0,0.0,0.0,0.0,0.0,0.0,0.0,0.0,0.0,0.0,0.0,0.0,0.0,0.0,0.0,0.0,0.0,0.0,0.0,0.0,0.0,0.0,0.0,0.0,0.0,0.0,0.0,0.0,0.0,0.0,0.0,0.0,0.0,0.0,0.0,0.0,0.0,0.0,0.0,0.0,0.0,0.0,0.0,0.0,0.0,0.0,0.0,0.0,0.0,0.0,0.0,0.0,0.0,0.0,0.0,0.0,0.0,0.0,0.0,0.0,0.0,0.0,0.0,0.0,0.0,0.0,0.0,0.0,0.0,0.0,0.0,0.0,0.0,0.0,0.0,0.0,0.0,0.0,0.0,0.0,0.0,0.0,0.0,0.0,0.0,0.0,0.0,0.0,0.0,0.0,0.0,0.0,0.0,0.0,0.0,0.0,0.0,0.0,0.0,0.0,0.0,0.0,0.0,0.0,0.0,0.0,0.0,0.0,0.0,0.0,0.0,0.0,0.0,0.0,0.0,0.0,0.0,0.0,0.0,0.0,0.0,0.0,0.0,0.0,0.0,0.0,0.0,0.0,0.0,0.0,0.0,0.0,0.0,0.0,0.0,0.0,0.0,0.0,0.0,0.0,0.0,0.0,0.0,0.0,0.0,0.0,0.0,0.0,0.0,0.0,0.0,0.0,0.0,0.0,0.0,0.0,0.0,0.0,0.0,0.0,0.0,0.0,0.0,0.0,0.0,0.0,0.0,0.0,0.0,0.0,0.0,0.0,0.0,0.0,0.0,0.0,0.0,0.0,0.0,0.0,0.0,0.0,0.0,0.0,0.0,0.0,0.0,0.0,0.0,0.0,0.0,0.0,0.0,0.0,0.0,0.0,0.0,0.0,0.0,0.0,0.0,0.0,0.0,0.0,0.0,0.0,0.0,0.0,0.0,0.0,0.0,0.0,0.0,0.0,0.0,0.0,0.0,0.0,0.0,0.0,0.0,0.0,0.0,0.0,0.0,0.0,0.0,0.0,0.0,0.0,0.0,0.0,0.0,0.0,0.0,0.0,0.0,0.0,0.0,0.0,0.0,0.0,0.0,0.0,0.0,0.0,0.0,0.0,0.0,0.0,0.0,0.0,0.0,0.0,0.0,0.0,0.0,0.0,0.0,0.0,0.0,0.0,0.0,0.0,0.0,0.0,0.0,0.0,0.0,0.0,0.0,0.0,0.0,0.0,0.0,0.0,0.0,0.0,0.0,0.0,0.0,0.0,0.0,0.0,0.0,0.0,0.0,0.0,0.0,0.0,0.0,0.0,0.0,0.0,0.0,0.0,0.0,0.0,0.0,0.0,0.0,0.0,0.0,0.0,0.0,0.0,0.0,0.0,0.0,0.0,0.0,0.0,0.0,0.0,0.0,0.0,0.0,0.0,0.0,0.0,0.0,0.0,0.0,0.0,0.0,0.0,0.0,0.0,0.0,0.0,0.0,0.0,0.0,0.0,0.0,0.0,0.0,0.0,0.0,0.0,0.0,0.0,0.0,0.0,0.0,0.0,0.0,0.0,0.0,0.0,0.0,0.0,0.0,0.0,0.0,0.0,0.0,0.0,0.0,0.0,0.0,0.0,0.0,0.0,0.0,0.0,0.0,0.0,0.0,0.0,0.0,0.0,0.0,0.0,0.0,0.0,0.0,0.0,0.0,0.0,0.0,0.0,0.0,0.0,0.0,0.0,0.0,0.0,0.0,0.0,0.0,0.0,0.0,0.0,0.0,0.0,0.0,0.0,0.0,0.0,0.0,0.0,0.0,0.0,0.0,0.0,0.0,0.0,0.0,0.0,0.0,0.0,0.0,0.0,0.0,0.0,0.0,0.0,0.0,0.0,0.0,0.0,0.0,0.0,0.0,0.0,0.0,0.0,0.0,0.0,0.0,0.0,0.0,0.0,0.0,0.0,0.0,0.0,0.0,0.0,0.0,0.0,0.0,0.0,0.0,0.0,0.0,0.0,0.0,0.0,0.0,0.0,0.0,0.0,0.0,0.0,0.0,0.0,0.0,0.0,0.0,0.0,0.0,0.0,0.0,0.0,0.0,0.0,0.0,0.0,0.0,0.0,0.0,0.0,0.0,0.0,0.0,0.0,0.0,0.0,0.0,0.0,0.0,0.0,0.0,0.0,0.0,0.0,0.0,0.0,0.0,0.0,0.0,0.0,0.0,0.0,0.0,0.0,0.0,0.0,0.0,0.0,0.0,0.0,0.0,0.0,0.0,0.0,0.0,0.0,0.0,0.0,0.0,0.0,0.0,0.0,0.0,0.0,0.0,0.0,0.0,0.0,0.0,0.0,0.0,0.0,0.0,0.0,0.0,0.0,0.0,0.0,0.0,0.0,0.0,0.0,0.0,0.0,0.0,0.0,0.0,0.0,0.0,0.0,0.0,0.0,0.0,0.0,0.0,0.0,0.0,0.0,0.0,0.0,0.0,0.0,0.0,0.0,0.0,0.0,0.0,0.0,0.0,0.0,0.0,0.0,0.0,0.0,0.0,0.0,0.0,0.0,0.0,0.0,0.0,0.0,0.0,0.0,0.0,0.0,0.0,0.0,0.0,0.0,0.0,0.0,0.0,0.0,0.0,0.0,0.0,0.0,0.0,0.0,0.0,0.0,0.0,0.0,0.0,0.0,0.0,0.0,0.0,0.0,0.0,0.0,0.0,0.0,0.0,0.0,0.0,0.0,0.0,0.0,0.0,0.0,0.0,0.0,0.0,0.0,0.0,0.0,0.0,0.0,0.0,0.0,0.0,0.0,0.0,0.0,0.0,0.0,0.0,0.0,0.0,0.0,0.0,0.0,0.0,0.0,0.0,0.0,0.0,0.0,0.0,0.0,0.0,0.0,0.0,0.0,0.0,0.0,0.0,0.0,0.0,0.0,0.0,0.0,0.0,0.0,0.0,0.0,0.0,0.0,0.0,0.0,0.0,0.0,0.0,0.0,0.0,0.0,0.0,0.0,0.0,0.0,0.0,0.0,0.0,0.0,0.0,0.0,0.0,0.0,0.0,0.0,0.0,0.0,0.0,0.0,0.0,0.0,0.0,0.0,0.0,0.0,0.0,0.0,0.0,0.0,0.0,0.0,0.0,0.0,0.0,0.0,0.0,0.0,0.0,0.0,0.0,0.0,0.0,0.0,0.0,0.0,0.0,0.0,0.0,0.0,0.0,0.0,0.0,0.0,0.0,0.0,0.0,0.0,0.0,0.0,0.0,0.0,0.0,0.0,0.0,0.0,0.0,0.0,0.0,0.0,0.0,0.0,0.0,0.0,0.0,0.0,0.0,0.0,0.0,0.0,0.0,0.0,0.0,0.0,0.0,0.0,0.0,0.0,0.0,0.0,0.0,0.0,0.0,0.0,0.0,0.0,0.0,0.0,0.0,0.0,0.0,0.0,0.0,0.0,0.0,0.0,0.0,0.0,0.0,0.0,0.0,0.0,0.0,0.0,0.0,0.0,0.0,0.0,0.0,0.0,0.0,0.0,0.0,0.0,0.0,0.0,0.0,0.0,0.0,0.0,0.0,0.0,0.0,0.0,0.0,0.0,0.0,0.0,0.0,0.0,0.0,0.0,0.0,0.0,0.0,0.0,0.0,0.0,0.0,0.0,0.0,0.0,0.0,0.0,0.0,0.0,0.0,0.0,0.0,0.0,0.0,0.0,0.0,0.0,0.0,0.0,0.0,0.0,0.0,-0.7392,0.0,0.0,0.0,0.0,0.0,0.0,0.0,0.0,0.0,0.0,0.0,0.0,0.0,0.0,0.0,0.0,0.0,0.0,0.0,0.0,0.0,0.0,0.0,0.0,0.0,0.0,0.0,0.0,0.0,0.0,0.0,0.0,0.0,0.0,0.0,0.0,0.0,0.0,0.0,0.0,0.0,0.0,0.0,0.0,0.0,0.0,0.0,0.0,0.0,0.0,0.0,0.0,0.0,0.0,0.0,0.0,0.0,0.0,0.0,0.0,0.0,0.0,0.0,0.0,0.0,0.0,0.0,0.0,0.0,0.0,0.0,0.0,0.0,0.0,0.0,0.0,0.0,0.0,0.0,0.0,0.0,0.0,0.0,0.0,0.0,0.0,0.0,0.0,0.0,0.0,0.0,0.0,0.0,0.0,0.0,0.0,0.0,0.0,0.0,0.0,0.0,0.0,0.0,0.0,0.0,0.0,0.0,0.0,0.0,0.0,-0.7451,-0.7421,-0.7392,-0.7392,-0.7392,0.0,0.0,0.0,0.0,0.0,0.0,0.0,0.0,0.0,0.0,0.0,0.0,0.0,0.0,0.0,0.0,0.0,0.0,0.0,0.0,0.0,0.0,0.0,0.0,0.0,0.0,0.0,0.0,0.0,0.0,0.0,0.0,0.0,0.0,0.0,0.0,0.0,0.0,0.0,0.0,0.0,0.0,0.0,0.0,0.0,0.0,0.0,0.0,0.0,0.0,0.0,0.0,0.0,0.0,0.0,0.0,0.0,0.0,0.0,0.0,0.0,0.0,0.0,0.0,0.0,0.0,0.0,0.0,0.0,0.0,0.0,0.0,0.0,0.0,0.0,0.0,0.0,0.0,0.0,0.0,0.0,0.0,0.0,0.0,0.0,0.0,0.0,0.0,0.0,0.0,0.0,0.0,0.0,0.0,0.0,0.0,0.0,0.0,0.0,0.0,0.0,0.0,0.0,0.0,0.0,0.0,0.0,0.0,0.0,0.0,0.0,0.0,-0.7421,-0.7392,-0.7392,0.0,0.0,0.0,0.0,0.0,0.0,0.0,0.0,0.0,0.0,0.0,0.0,0.0,0.0,0.0,0.0,0.0,0.0,0.0,0.0,0.0,0.0,0.0,0.0,0.0,0.0,0.0,0.0,0.0,0.0,0.0,0.0,0.0,0.0,0.0,0.0,0.0,0.0,0.0,0.0,0.0,0.0,0.0,0.0,0.0,0.0,0.0,0.0,0.0,0.0,0.0,0.0,0.0,0.0,0.0,0.0,0.0,0.0,0.0,0.0,0.0,0.0,0.0,0.0,0.0,0.0,0.0,0.0,0.0,0.0,0.0,0.0,0.0,0.0,0.0,0.0,0.0,0.0,0.0,0.0,0.0,0.0,0.0,0.0,0.0,0.0,0.0,0.0,0.0,0.0,0.0,0.0,0.0,0.0,0.0,0.0,0.0,0.0,0.0,0.0,0.0,0.0,0.0,0.0,0.0,0.0,0.0,0.0,0.0,0.0,-0.7495,-0.7495,-0.7435,0.0,-0.7392,0.0,0.0,0.0,0.0,0.0,0.0,0.0,0.0,0.0,0.0,0.0,0.0,0.0,0.0,0.0,0.0,0.0,0.0,0.0,0.0,0.0,0.0,0.0,0.0,0.0,0.0,0.0,0.0,0.0,0.0,0.0,0.0,0.0,0.0,0.0,0.0,0.0,0.0,0.0,0.0,0.0,0.0,0.0,0.0,0.0,0.0,0.0,0.0,0.0,0.0,0.0,0.0,0.0,0.0,0.0,0.0,0.0,0.0,0.0,0.0,0.0,0.0,0.0,0.0,0.0,0.0,0.0,0.0,0.0,0.0,0.0,0.0,0.0,0.0,0.0,0.0,0.0,0.0,0.0,0.0,0.0,0.0,0.0,0.0,0.0,0.0,0.0,0.0,0.0,0.0,0.0,0.0,0.0,0.0,0.0,0.0,0.0,0.0,0.0,0.0,0.0,0.0,0.0,0.0,0.0,0.0,0.0,0.0,0.0,0.0,0.0,-0.8033,-0.7971,-0.7758,0.0,0.0,0.0,0.0,0.0,0.0,0.0,0.0,0.0,0.0,0.0,0.0,0.0,0.0,0.0,0.0,0.0,0.0,0.0,0.0,0.0,0.0,0.0,0.0,0.0,0.0,0.0,0.0,0.0,0.0,0.0,0.0,0.0,0.0,0.0,0.0,0.0,0.0,0.0,0.0,0.0,0.0,0.0,0.0,0.0,0.0,0.0,0.0,0.0,0.0,0.0,0.0,0.0,0.0,0.0,0.0,0.0,0.0,0.0,0.0,0.0,0.0,0.0,0.0,0.0,0.0,0.0,0.0,0.0,0.0,0.0,0.0,0.0,0.0,0.0,0.0,0.0,0.0,0.0,0.0,0.0,0.0,0.0,0.0,0.0,0.0,0.0,0.0,0.0,0.0,0.0,0.0,0.0,0.0,0.0,0.0,0.0,0.0,0.0,0.0,0.0,0.0,0.0,0.0,0.0,0.0,0.0,0.0,0.0,0.0,-0.8503,0.0,-0.8678,-0.8472,-0.8144,-0.7721,0.0,0.0,0.0,0.0,0.0,0.0,0.0,0.0,0.0,0.0,0.0,0.0,0.0,0.0,0.0,0.0,0.0,0.0,0.0,0.0,0.0,0.0,0.0,0.0,0.0,0.0,0.0,0.0,0.0,0.0,0.0,0.0,0.0,0.0,0.0,0.0,0.0,0.0,0.0,0.0,0.0,0.0,0.0,0.0,0.0,0.0,0.0,0.0,0.0,0.0,0.0,0.0,0.0,0.0,0.0,0.0,0.0,0.0,0.0,0.0,0.0,0.0,0.0,0.0,0.0,0.0,0.0,0.0,0.0,0.0,0.0,0.0,0.0,0.0,0.0,0.0,0.0,0.0,0.0,0.0,0.0,0.0,0.0,0.0,0.0,0.0,0.0,0.0,0.0,0.0,0.0,0.0,0.0,0.0,0.0,0.0,0.0,0.0,0.0,0.0,0.0,0.0,0.0,0.0,0.0,0.0,0.0,0.0,0.0,-0.9224,-0.9503,-0.9365,-0.8803,-0.8471,0.0,0.0,0.0,0.0,0.0,0.0,0.0,0.0,0.0,0.0,0.0,0.0,0.0,0.0,0.0,0.0,0.0,0.0,0.0,0.0,0.0,0.0,0.0,0.0,0.0,0.0,0.0,0.0,0.0,0.0,0.0,0.0,0.0,0.0,0.0,0.0,0.0,0.0,0.0,0.0,0.0,0.0,0.0,0.0,0.0,0.0,0.0,0.0,0.0,0.0,0.0,0.0,0.0,0.0,0.0,0.0,0.0,0.0,0.0,0.0,0.0,0.0,0.0,0.0,0.0,0.0,0.0,0.0,0.0,0.0,0.0,0.0,0.0,0.0,0.0,0.0,0.0,0.0,0.0,0.0,0.0,0.0,0.0,0.0,0.0,0.0,0.0,0.0,0.0,0.0,0.0,0.0,0.0,0.0,0.0,0.0,0.0,0.0,0.0,0.0,0.0,0.0,0.0,0.0,0.0,0.0,0.0,0.0,0.0,-0.8853,-0.9698,-1.0155,0.0,-0.9859,-0.9337,0.0,0.0,0.0,0.0,0.0,0.0,0.0,0.0,0.0,0.0,0.0,0.0,0.0,0.0,0.0,0.0,0.0,0.0,0.0,0.0,0.0,0.0,0.0,0.0,0.0,0.0,0.0,0.0,0.0,0.0,0.0,0.0,0.0,0.0,0.0,0.0,0.0,0.0,0.0,0.0,0.0,0.0,0.0,0.0,0.0,0.0,0.0,0.0,0.0,0.0,0.0,0.0,0.0,0.0,0.0,0.0,0.0,0.0,0.0,0.0,0.0,0.0,0.0,0.0,0.0,0.0,0.0,0.0,0.0,0.0,0.0,0.0,0.0,0.0,0.0,0.0,0.0,0.0,0.0,0.0,0.0,0.0,0.0,0.0,0.0,0.0,0.0,0.0,0.0,0.0,0.0,0.0,0.0,0.0,0.0,0.0,0.0,0.0,0.0,0.0,0.0,0.0,0.0,0.0,0.0,0.0,0.0,0.0,0.0,-0.9779,0.0,-1.0828,0.0,-1.0562,-1.0042,0.0,0.0,0.0,0.0,0.0,0.0,0.0,0.0,0.0,0.0,0.0,0.0,0.0,0.0,0.0,0.0,0.0,0.0,0.0,0.0,0.0,0.0,0.0,0.0,0.0,0.0,0.0,0.0,0.0,0.0,0.0,0.0,0.0,0.0,0.0,0.0,0.0,0.0,0.0,0.0,0.0,0.0,0.0,0.0,0.0,0.0,0.0,0.0,0.0,0.0,0.0,0.0,0.0,0.0,0.0,0.0,0.0,0.0,0.0,0.0,0.0,0.0,0.0,0.0,0.0,0.0,0.0,0.0,0.0,0.0,0.0,0.0,0.0,0.0,0.0,0.0,0.0,0.0,0.0,0.0,0.0,0.0,0.0,0.0,0.0,0.0,0.0,0.0,0.0,0.0,0.0,0.0,0.0,0.0,0.0,0.0,0.0,0.0,0.0,0.0,0.0,0.0,0.0,0.0,0.0,0.0,0.0,0.0,-1.0542,-1.1527,-1.1601,-1.1615,-1.1504,-1.0915,-1.0567,0.0,0.0,0.0,0.0,0.0,0.0,0.0,0.0,0.0,0.0,0.0,0.0,0.0,0.0,0.0,0.0,0.0,0.0,0.0,0.0,0.0,0.0,0.0,0.0,0.0,0.0,0.0,0.0,0.0,0.0,0.0,0.0,0.0,0.0,0.0,0.0,0.0,0.0,0.0,0.0,0.0,0.0,0.0,0.0,0.0,0.0,0.0,0.0,0.0,0.0,0.0,0.0,0.0,0.0,0.0,0.0,0.0,0.0,0.0,0.0,0.0,0.0,0.0,0.0,0.0,0.0,0.0,0.0,0.0,0.0,0.0,0.0,0.0,0.0,0.0,0.0,0.0,0.0,0.0,0.0,0.0,0.0,0.0,0.0,0.0,0.0,0.0,0.0,0.0,0.0,0.0,0.0,0.0,0.0,0.0,0.0,0.0,0.0,0.0,0.0,0.0,0.0,0.0,0.0,0.0,0.0,0.0,0.0,0.0,-1.2355,-1.2726,-1.2887,-1.2783,-1.2115,-1.1603,0.0,0.0,0.0,0.0,0.0,0.0,0.0,0.0,0.0,0.0,0.0,0.0,0.0,0.0,0.0,0.0,0.0,0.0,0.0,0.0,0.0,0.0,0.0,0.0,0.0,0.0,0.0,0.0,0.0,0.0,0.0,0.0,0.0,0.0,0.0,0.0,0.0,0.0,0.0,0.0,0.0,0.0,0.0,0.0,0.0,0.0,0.0,0.0,0.0,0.0,0.0,0.0,0.0,0.0,0.0,0.0,0.0,0.0,0.0,0.0,0.0,0.0,0.0,0.0,0.0,0.0,0.0,0.0,0.0,0.0,0.0,0.0,0.0,0.0,0.0,0.0,0.0,0.0,0.0,0.0,0.0,0.0,0.0,0.0,0.0,0.0,0.0,0.0,0.0,0.0,0.0,0.0,0.0,0.0,0.0,0.0,0.0,0.0,0.0,0.0,0.0,0.0,0.0,0.0,0.0,0.0,0.0,0.0,0.0,-1.4285,-1.4,-1.3785,-1.3718,-1.3234,-1.2679,-1.1997,0.0,0.0,0.0,0.0,0.0,0.0,0.0,0.0,0.0,0.0,0.0,0.0,0.0,0.0,0.0,0.0,0.0,0.0,0.0,0.0,0.0,0.0,0.0,0.0,0.0,0.0,0.0,0.0,0.0,0.0,0.0,0.0,0.0,0.0,0.0,0.0,0.0,0.0,0.0,0.0,0.0,0.0,0.0,0.0,0.0,0.0,0.0,0.0,0.0,0.0,0.0,0.0,0.0,0.0,0.0,0.0,0.0,0.0,0.0,0.0,0.0,0.0,0.0,0.0,0.0,0.0,0.0,0.0,0.0,0.0,0.0,0.0,0.0,0.0,0.0,0.0,0.0,0.0,0.0,0.0,0.0,0.0,0.0,0.0,0.0,0.0,0.0,0.0,0.0,0.0,0.0,0.0,0.0,0.0,0.0,0.0,0.0,0.0,0.0,0.0,0.0,0.0,0.0,0.0,0.0,0.0,0.0,0.0,-1.7076,-1.5476,-1.4587,-1.4472,-1.4328,-1.3791,0.0,0.0,0.0,0.0,0.0,0.0,0.0,0.0,0.0,0.0,0.0,0.0,0.0,0.0,0.0,0.0,0.0,0.0,0.0,0.0,0.0,0.0,0.0,0.0,0.0,0.0,0.0,0.0,0.0,0.0,0.0,0.0,0.0,0.0,0.0,0.0,0.0,0.0,0.0,0.0,0.0,0.0,0.0,0.0,0.0,0.0,0.0,0.0,0.0,0.0,0.0,0.0,0.0,0.0,0.0,0.0,0.0,0.0,0.0,0.0,0.0,0.0,0.0,0.0,0.0,0.0,0.0,0.0,0.0,0.0,0.0,0.0,0.0,0.0,0.0,0.0,0.0,0.0,0.0,0.0,0.0,0.0,0.0,0.0,0.0,0.0,0.0,0.0,0.0,0.0,0.0,0.0,0.0,0.0,0.0,0.0,0.0,0.0,0.0,0.0,0.0,0.0,0.0,0.0,0.0,0.0,0.0,0.0,0.0,-1.8205,-1.7633,-1.729,-1.7276,-1.5899,-1.4775,0.0,0.0,0.0,0.0,0.0,0.0,0.0,0.0,0.0,0.0,0.0,0.0,0.0,0.0,0.0,0.0,0.0,0.0,0.0,0.0,0.0,0.0,0.0,0.0,0.0,0.0,0.0,0.0,0.0,0.0,0.0,0.0,0.0,0.0,0.0,0.0,0.0,0.0,0.0,0.0,0.0,0.0,0.0,0.0,0.0,0.0,0.0,0.0,0.0,0.0,0.0,0.0,0.0,0.0,0.0,0.0,0.0,0.0,0.0,0.0,0.0,0.0,0.0,0.0,0.0,0.0,0.0,0.0,0.0,0.0,0.0,0.0,0.0,0.0,0.0,0.0,0.0,0.0,0.0,0.0,0.0,0.0,0.0,0.0,0.0,0.0,0.0,0.0,0.0,0.0,0.0,0.0,0.0,0.0,0.0,0.0,0.0,0.0,0.0,0.0,0.0,0.0,0.0,0.0,0.0,0.0,0.0,0.0,-1.7502,-1.9402,-1.9512,-1.9675,-1.9871,-1.746,-1.5576,0.0,0.0,0.0,0.0,0.0,0.0,0.0,0.0,0.0,0.0,0.0,0.0,0.0,0.0,0.0,0.0,0.0,0.0,0.0,0.0,0.0,0.0,0.0,0.0,0.0,0.0,0.0,0.0,0.0,0.0,0.0,0.0,0.0,0.0,0.0,0.0,0.0,0.0,0.0,0.0,0.0,0.0,0.0,0.0,0.0,0.0,0.0,0.0,0.0,0.0,0.0,0.0,0.0,0.0,0.0,0.0,0.0,0.0,0.0,0.0,0.0,0.0,0.0,0.0,0.0,0.0,0.0,0.0,0.0,0.0,0.0,0.0,0.0,0.0,0.0,0.0,0.0,0.0,0.0,0.0,0.0,0.0,0.0,0.0,0.0,0.0,0.0,0.0,0.0,0.0,0.0,0.0,0.0,0.0,0.0,0.0,0.0,0.0,0.0,0.0,0.0,0.0,0.0,0.0,0.0,0.0,0.0,0.0,-1.8377,-2.0366,-2.1024,-2.1522,-2.181,-1.8847,-1.6398,0.0,0.0,0.0,0.0,0.0,0.0,0.0,0.0,0.0,0.0,0.0,0.0,0.0,0.0,0.0,0.0,0.0,0.0,0.0,0.0,0.0,0.0,0.0,0.0,0.0,0.0,0.0,0.0,0.0,0.0,0.0,0.0,0.0,0.0,0.0,0.0,0.0,0.0,0.0,0.0,0.0,0.0,0.0,0.0,0.0,0.0,0.0,0.0,0.0,0.0,0.0,0.0,0.0,0.0,0.0,0.0,0.0,0.0,0.0,0.0,0.0,0.0,0.0,0.0,0.0,0.0,0.0,0.0,0.0,0.0,0.0,0.0,0.0,0.0,0.0,0.0,0.0,0.0,0.0,0.0,0.0,0.0,0.0,0.0,0.0,0.0,0.0,0.0,0.0,0.0,0.0,0.0,0.0,0.0,0.0,0.0,0.0,0.0,0.0,0.0,0.0,0.0,0.0,0.0,0.0,0.0,0.0,0.0,-1.9595,-2.1024,-2.1545,-2.1842,-2.1886,-1.9728,-1.7837,0.0,0.0,0.0,0.0,0.0,0.0,0.0,0.0,0.0,0.0,0.0,0.0,0.0,0.0,0.0,0.0,0.0,0.0,0.0,0.0,0.0,0.0,0.0,0.0,0.0,0.0,0.0,0.0,0.0,0.0,0.0,0.0,0.0,0.0,0.0,0.0,0.0,0.0,0.0,0.0,0.0,0.0,0.0,0.0,0.0,0.0,0.0,0.0,-1.1059,0.0,0.0,0.0,0.0,0.0,0.0,0.0,0.0,0.0,0.0,0.0,0.0,0.0,0.0,0.0,0.0,0.0,0.0,0.0,0.0,0.0,0.0,0.0,0.0,0.0,0.0,0.0,0.0,0.0,0.0,0.0,0.0,0.0,0.0,0.0,0.0,0.0,0.0,0.0,0.0,0.0,0.0,0.0,0.0,0.0,0.0,0.0,0.0,0.0,0.0,0.0,0.0,0.0,0.0,0.0,0.0,0.0,0.0,0.0,-1.995,-2.1291,-2.2126,-2.2415,-2.2064,-2.0613,-1.8823,0.0,0.0,0.0,0.0,0.0,0.0,0.0,0.0,0.0,0.0,0.0,0.0,0.0,0.0,0.0,0.0,0.0,0.0,0.0,0.0,0.0,0.0,0.0,0.0,0.0,0.0,0.0,0.0,0.0,0.0,0.0,0.0,0.0,0.0,0.0,0.0,0.0,0.0,0.0,0.0,0.0,0.0,0.0,0.0,0.0,0.0,0.0,0.0,0.0,0.0,0.0,0.0,0.0,0.0,0.0,0.0,0.0,0.0,0.0,0.0,0.0,0.0,0.0,0.0,0.0,0.0,0.0,0.0,0.0,0.0,0.0,0.0,0.0,0.0,0.0,0.0,0.0,0.0,0.0,0.0,0.0,0.0,0.0,0.0,0.0,0.0,0.0,0.0,0.0,0.0,0.0,0.0,0.0,0.0,0.0,0.0,0.0,0.0,0.0,0.0,0.0,0.0,0.0,0.0,0.0,0.0,0.0,-1.8408,-2.0104,-2.146,-2.2655,-2.2978,-2.2301,-2.1242,-1.9502,-1.6919,0.0,0.0,0.0,0.0,0.0,0.0,0.0,0.0,0.0,0.0,0.0,0.0,0.0,0.0,0.0,0.0,0.0,0.0,0.0,0.0,0.0,0.0,0.0,0.0,0.0,0.0,0.0,0.0,0.0,0.0,0.0,0.0,0.0,0.0,0.0,0.0,0.0,0.0,-0.947,-1.0214,0.0,0.0,0.0,0.0,0.0,0.0,0.0,0.0,-1.2033,0.0,0.0,0.0,0.0,0.0,0.0,0.0,0.0,0.0,0.0,0.0,0.0,0.0,0.0,0.0,0.0,0.0,0.0,0.0,0.0,0.0,0.0,0.0,0.0,0.0,0.0,0.0,0.0,0.0,0.0,0.0,0.0,0.0,0.0,0.0,0.0,0.0,0.0,0.0,0.0,0.0,0.0,0.0,0.0,0.0,0.0,0.0,0.0,0.0,0.0,0.0,0.0,0.0,0.0,0.0,0.0,-1.7024,-1.9069,-2.0798,-2.2086,-2.2886,-2.2963,-2.2286,-2.0992,-1.9497,-1.7803,0.0,0.0,0.0,0.0,0.0,0.0,0.0,0.0,0.0,0.0,0.0,0.0,0.0,0.0,0.0,0.0,0.0,0.0,0.0,0.0,0.0,0.0,0.0,0.0,0.0,0.0,0.0,0.0,0.0,0.0,0.0,0.0,0.0,0.0,0.0,0.0,0.0,0.0,0.0,-1.144,-1.2363,0.0,0.0,0.0,0.0,0.0,0.0,0.0,0.0,-1.3493,0.0,0.0,0.0,0.0,0.0,0.0,0.0,0.0,0.0,0.0,0.0,0.0,0.0,0.0,0.0,0.0,0.0,0.0,0.0,0.0,0.0,0.0,0.0,0.0,0.0,0.0,0.0,0.0,0.0,0.0,0.0,0.0,0.0,0.0,0.0,0.0,0.0,0.0,0.0,0.0,0.0,0.0,0.0,0.0,0.0,0.0,0.0,0.0,0.0,0.0,0.0,0.0,0.0,0.0,0.0,-1.7685,-1.9275,-2.0757,-2.224,-2.2609,-2.2532,-2.2079,-2.0704,-1.925,0.0,0.0,0.0,0.0,0.0,0.0,0.0,0.0,0.0,0.0,0.0,0.0,0.0,0.0,0.0,0.0,0.0,0.0,0.0,0.0,0.0,0.0,0.0,0.0,0.0,0.0,0.0,0.0,0.0,0.0,0.0,0.0,0.0,0.0,0.0,0.0,0.0,0.0,0.0,0.0,-1.2297,-1.3421,-1.3778,0.0,0.0,0.0,0.0,0.0,0.0,-1.5243,-1.4955,0.0,0.0,0.0,0.0,0.0,0.0,0.0,0.0,0.0,0.0,0.0,0.0,0.0,0.0,0.0,0.0,0.0,0.0,0.0,0.0,0.0,0.0,0.0,0.0,0.0,0.0,0.0,0.0,0.0,0.0,0.0,0.0,0.0,0.0,0.0,0.0,0.0,0.0,0.0,0.0,0.0,0.0,0.0,0.0,0.0,0.0,0.0,0.0,0.0,0.0,0.0,0.0,0.0,0.0,0.0,-1.813,-1.9311,-2.0609,-2.2024,-2.2033,-2.1919,-2.1751,-2.0137,-1.8772,0.0,0.0,0.0,0.0,0.0,0.0,0.0,0.0,0.0,0.0,0.0,0.0,0.0,0.0,0.0,0.0,0.0,0.0,0.0,0.0,0.0,0.0,0.0,0.0,0.0,0.0,0.0,0.0,0.0,0.0,0.0,0.0,0.0,0.0,0.0,0.0,0.0,0.0,0.0,0.0,0.0,-1.4284,-1.5018,-1.568,0.0,0.0,0.0,0.0,-1.6234,-1.6325,0.0,0.0,0.0,0.0,0.0,0.0,0.0,0.0,0.0,0.0,0.0,0.0,0.0,0.0,0.0,0.0,0.0,0.0,0.0,0.0,0.0,0.0,0.0,0.0,0.0,0.0,0.0,0.0,0.0,0.0,0.0,0.0,0.0,0.0,0.0,0.0,0.0,0.0,0.0,0.0,0.0,0.0,0.0,0.0,0.0,0.0,0.0,0.0,0.0,0.0,0.0,0.0,0.0,0.0,0.0,0.0,-1.8161,-1.9544,-2.0624,-2.1347,-2.1105,-2.1105,-2.1341,-1.9026,-1.7811,0.0,0.0,0.0,0.0,0.0,0.0,0.0,0.0,0.0,0.0,0.0,0.0,0.0,0.0,0.0,0.0,0.0,0.0,0.0,0.0,0.0,0.0,0.0,0.0,0.0,0.0,0.0,0.0,0.0,0.0,0.0,0.0,0.0,0.0,0.0,0.0,0.0,0.0,0.0,0.0,0.0,-1.5035,-1.5766,-1.5958,-1.601,0.0,0.0,-1.6997,-1.6978,-1.6997,0.0,0.0,0.0,0.0,0.0,0.0,0.0,0.0,0.0,0.0,0.0,0.0,0.0,0.0,0.0,0.0,0.0,0.0,0.0,0.0,0.0,0.0,0.0,0.0,0.0,0.0,0.0,0.0,0.0,0.0,0.0,0.0,0.0,0.0,0.0,0.0,0.0,0.0,0.0,0.0,0.0,0.0,0.0,0.0,0.0,0.0,0.0,0.0,0.0,0.0,0.0,0.0,0.0,0.0,0.0,-1.6334,-1.7893,-1.917,-2.0186,-2.0938,-2.0494,-2.0421,-2.0783,-1.8796,-1.7614,0.0,0.0,0.0,0.0,0.0,0.0,0.0,0.0,0.0,0.0,0.0,0.0,0.0,0.0,0.0,0.0,0.0,0.0,0.0,0.0,0.0,0.0,0.0,0.0,0.0,0.0,0.0,0.0,0.0,0.0,0.0,0.0,0.0,0.0,0.0,0.0,0.0,0.0,0.0,0.0,0.0,0.0,-1.6566,-1.7398,0.0,0.0,0.0,-1.9018,-1.8957,0.0,0.0,0.0,0.0,0.0,0.0,0.0,0.0,0.0,0.0,0.0,0.0,0.0,0.0,0.0,0.0,0.0,0.0,0.0,0.0,0.0,0.0,0.0,0.0,0.0,0.0,0.0,0.0,0.0,0.0,0.0,0.0,0.0,0.0,0.0,0.0,0.0,0.0,0.0,0.0,0.0,0.0,0.0,0.0,0.0,0.0,0.0,0.0,0.0,0.0,0.0,0.0,0.0,0.0,0.0,0.0,0.0,-1.7682,-1.8821,-1.9745,-2.04,-1.9878,-1.9753,-2.0085,-1.85,0.0,0.0,0.0,0.0,0.0,0.0,0.0,0.0,0.0,0.0,0.0,0.0,0.0,0.0,0.0,0.0,0.0,0.0,0.0,0.0,0.0,0.0,0.0,0.0,0.0,0.0,0.0,-0.6065,0.0,0.0,0.0,0.0,0.0,0.0,0.0,0.0,0.0,0.0,0.0,0.0,0.0,0.0,-1.6843,-1.7661,-1.8853,-1.9618,0.0,0.0,-2.0638,-2.0194,-1.9855,-1.9299,0.0,0.0,0.0,0.0,0.0,0.0,0.0,0.0,0.0,0.0,0.0,0.0,0.0,0.0,0.0,0.0,0.0,0.0,0.0,0.0,0.0,0.0,0.0,0.0,0.0,0.0,0.0,0.0,0.0,0.0,0.0,0.0,0.0,0.0,0.0,0.0,0.0,0.0,0.0,0.0,0.0,0.0,0.0,0.0,0.0,0.0,0.0,0.0,0.0,0.0,0.0,0.0,0.0,0.0,0.0,-1.7632,-1.8785,-1.9443,-1.9487,-1.9153,-1.9116,-1.942,-1.7769,-1.6976,0.0,0.0,0.0,0.0,0.0,0.0,0.0,0.0,0.0,0.0,0.0,0.0,0.0,0.0,0.0,0.0,0.0,0.0,0.0,0.0,0.0,0.0,0.0,0.0,0.0,0.0,0.0,0.0,0.0,0.0,0.0,0.0,0.0,0.0,0.0,0.0,0.0,0.0,0.0,0.0,0.0,-1.8367,-1.923,-1.9918,-2.0325,0.0,0.0,-2.1039,-1.9602,-1.9912,-1.963,-1.7611,0.0,0.0,0.0,0.0,0.0,0.0,0.0,0.0,0.0,0.0,0.0,0.0,0.0,0.0,0.0,0.0,0.0,0.0,0.0,0.0,0.0,0.0,0.0,0.0,0.0,0.0,0.0,0.0,0.0,0.0,0.0,0.0,0.0,0.0,0.0,0.0,0.0,0.0,0.0,0.0,0.0,0.0,0.0,0.0,0.0,0.0,0.0,0.0,0.0,0.0,0.0,0.0,0.0,-1.6804,-1.7185,-1.8448,-1.9101,-1.9101,-1.8974,-1.8936,-1.9101,-1.8137,-1.7403,0.0,0.0,0.0,0.0,0.0,0.0,0.0,0.0,0.0,0.0,0.0,0.0,0.0,0.0,0.0,0.0,0.0,0.0,0.0,0.0,0.0,0.0,0.0,0.0,0.0,0.0,0.0,0.0,-0.8084,-0.8737,-0.9225,0.0,0.0,0.0,0.0,0.0,0.0,0.0,0.0,0.0,0.0,-1.8633,-1.9928,-2.069,0.0,0.0,-2.1755,-2.2091,-2.148,-2.0825,-2.0148,-1.9399,-1.8176,0.0,0.0,0.0,0.0,0.0,0.0,0.0,0.0,0.0,0.0,0.0,0.0,0.0,0.0,0.0,0.0,0.0,0.0,0.0,0.0,0.0,0.0,0.0,0.0,0.0,0.0,0.0,0.0,0.0,0.0,0.0,0.0,0.0,0.0,0.0,0.0,0.0,0.0,0.0,0.0,0.0,0.0,0.0,0.0,0.0,0.0,0.0,0.0,0.0,0.0,0.0,0.0,-1.6783,-1.6858,-1.8118,-1.876,-1.8798,-1.8798,-1.8774,-1.8769,-1.8243,-1.7591,0.0,0.0,0.0,0.0,0.0,0.0,0.0,0.0,0.0,0.0,0.0,0.0,0.0,0.0,0.0,0.0,0.0,0.0,0.0,0.0,0.0,0.0,0.0,0.0,0.0,0.0,0.0,0.0,-0.837,-0.9035,-0.9607,0.0,0.0,0.0,0.0,0.0,0.0,0.0,0.0,0.0,0.0,-1.943,-2.0567,-2.1436,-2.191,-2.1936,-2.2384,-2.2625,-2.2419,-2.1487,-2.0718,-2.0593,0.0,0.0,0.0,0.0,0.0,0.0,0.0,0.0,0.0,0.0,0.0,0.0,0.0,0.0,0.0,0.0,0.0,0.0,0.0,0.0,0.0,0.0,0.0,0.0,0.0,0.0,0.0,-1.0683,0.0,0.0,-1.0677,0.0,0.0,0.0,0.0,0.0,0.0,0.0,0.0,0.0,0.0,0.0,0.0,0.0,0.0,0.0,0.0,0.0,0.0,0.0,0.0,0.0,0.0,-1.6927,-1.681,-1.7937,-1.8517,-1.8517,-1.8517,-1.8517,-1.8503,-1.7927,-1.7345,-1.6726,0.0,0.0,0.0,0.0,0.0,0.0,0.0,0.0,0.0,0.0,0.0,0.0,0.0,0.0,0.0,0.0,0.0,0.0,0.0,0.0,0.0,0.0,0.0,0.0,0.0,0.0,-0.8383,-0.9032,-0.9523,0.0,0.0,0.0,0.0,0.0,0.0,0.0,0.0,0.0,0.0,-1.9679,-2.1173,-2.1293,-2.2073,-2.2651,-2.266,-2.2694,-2.2453,-2.1798,-2.1608,-2.134,0.0,0.0,0.0,0.0,0.0,0.0,0.0,0.0,0.0,0.0,0.0,0.0,0.0,0.0,0.0,0.0,0.0,0.0,0.0,0.0,0.0,0.0,0.0,0.0,0.0,0.0,0.0,-1.2657,-1.3005,0.0,0.0,0.0,0.0,0.0,0.0,0.0,0.0,0.0,0.0,0.0,-1.6317,-1.6102,0.0,0.0,0.0,0.0,0.0,0.0,0.0,0.0,0.0,0.0,0.0,0.0,-1.7036,-1.7345,-1.8096,-1.8478,-1.8478,-1.8478,-1.8478,-1.8503,-1.8282,-1.7534,-1.6087,0.0,0.0,0.0,0.0,0.0,0.0,0.0,0.0,0.0,0.0,0.0,0.0,0.0,0.0,0.0,0.0,0.0,0.0,0.0,0.0,0.0,0.0,0.0,0.0,0.0,-0.8623,0.0,0.0,0.0,0.0,0.0,0.0,0.0,0.0,0.0,0.0,0.0,-1.8188,-1.9866,-2.0738,-2.1409,-2.2027,-2.238,-2.2659,0.0,0.0,0.0,0.0,0.0,0.0,0.0,0.0,0.0,0.0,0.0,0.0,0.0,0.0,-1.8979,-1.7487,-1.7185,-1.7185,-1.7283,0.0,0.0,0.0,0.0,0.0,0.0,0.0,0.0,0.0,0.0,0.0,0.0,0.0,0.0,-1.4385,0.0,-1.4787,0.0,0.0,0.0,0.0,0.0,0.0,0.0,0.0,-1.7309,-1.7731,-1.8078,-1.7865,-1.7766,0.0,-1.7327,-1.6346,0.0,0.0,0.0,0.0,0.0,0.0,0.0,0.0,-1.7277,-1.7604,-1.8208,-1.8478,-1.8478,-1.8478,-1.8478,-1.8517,-1.8307,-1.752,-1.6101,-1.5244,-1.4164,0.0,0.0,0.0,0.0,0.0,0.0,0.0,0.0,0.0,0.0,0.0,0.0,0.0,0.0,0.0,0.0,0.0,0.0,0.0,0.0,0.0,0.0,0.0,-0.8922,0.0,0.0,0.0,0.0,0.0,0.0,0.0,0.0,0.0,-1.7502,-1.8153,-1.9209,-2.0797,-2.1299,-2.1718,-2.2275,0.0,0.0,0.0,0.0,0.0,0.0,0.0,-2.1987,-2.2038,-2.1606,-2.1285,-2.1357,-2.1196,-2.1173,-2.1482,0.0,0.0,-1.8968,-1.8616,-1.8616,-1.8694,-1.8732,-1.9145,-2.0297,-2.0588,-2.0807,0.0,0.0,0.0,0.0,0.0,0.0,0.0,0.0,-1.5675,-1.5948,0.0,-1.6,0.0,0.0,0.0,0.0,0.0,-1.6984,0.0,0.0,-1.8974,-1.9572,-2.0288,-1.9712,-1.9418,-1.9348,-1.8278,-1.7702,-1.7632,-1.7235,0.0,0.0,0.0,0.0,0.0,0.0,-1.7687,-1.766,-1.8222,-1.8478,-1.8478,-1.8478,-1.8478,-1.8517,-1.7955,-1.7365,-1.6705,-1.5567,-1.4628,-1.404,-1.2836,0.0,0.0,0.0,0.0,0.0,0.0,0.0,0.0,0.0,0.0,0.0,0.0,0.0,0.0,0.0,0.0,0.0,0.0,0.0,0.0,-0.8933,0.0,0.0,0.0,0.0,0.0,0.0,0.0,0.0,0.0,0.0,-1.7387,-1.9192,-2.0566,-2.0553,0.0,0.0,0.0,0.0,-2.2685,-2.2712,-2.2712,-2.2712,-2.2712,-2.2694,-2.2694,-2.2694,0.0,0.0,-2.2773,-2.226,-2.2049,-2.272,-2.2225,-2.1548,-2.0945,-2.074,-2.0762,-2.0767,-2.0823,-2.1036,-2.1153,-2.1345,-2.1426,-1.9369,0.0,0.0,0.0,0.0,-1.6866,-1.7525,-1.881,-1.8475,-1.8162,-1.7754,-1.7754,0.0,0.0,0.0,0.0,0.0,0.0,-1.8679,-1.988,-1.9894,-2.0075,-2.0386,-2.0203,-2.0133,-2.0091,-1.9782,-1.9599,-1.9585,-1.9457,-1.8511,-1.6775,0.0,0.0,0.0,0.0,-1.7838,-1.8236,-1.8419,-1.8478,-1.8478,-1.8478,-1.8478,-1.8478,-1.8349,-1.7969,-1.7365,-1.7,-1.6101,-1.4642,-1.3841,0.0,0.0,0.0,0.0,0.0,0.0,0.0,0.0,0.0,0.0,0.0,0.0,0.0,0.0,0.0,0.0,0.0,0.0,0.0,-0.8981,-0.9609,-1.0458,0.0,0.0,0.0,0.0,0.0,0.0,0.0,0.0,0.0,-1.9423,-2.0029,-2.0705,0.0,0.0,-2.1911,-2.2027,-2.2287,-2.2497,-2.2605,-2.2659,0.0,-2.2712,-2.2712,-2.2712,-2.2712,-2.2712,-2.2712,-2.2712,-2.2548,-2.2522,-2.2747,-2.2565,-2.2367,-2.2185,-2.1725,-2.1444,-2.1481,-2.1552,-2.1838,-2.2493,-2.2686,-2.2754,-2.2395,-2.0119,-1.9723,-1.9696,-1.9922,-1.968,-2.0034,-2.0767,-2.033,-1.9824,-1.9276,-1.9262,-1.884,-1.8152,-1.8204,0.0,0.0,0.0,-1.974,-2.0737,-2.0679,-2.0806,-2.1088,-2.1117,-2.1102,-2.1102,-2.085,-2.0751,-2.0751,-2.0512,-1.9655,-1.8194,0.0,0.0,-1.7955,-1.7969,-1.8138,-1.8503,-1.8478,-1.8478,-1.8478,-1.8478,-1.8478,-1.8478,-1.8478,-1.8335,-1.7969,-1.7731,-1.6972,-1.5609,-1.4786,-1.377,0.0,0.0,0.0,0.0,0.0,0.0,0.0,0.0,0.0,0.0,0.0,-1.0093,0.0,0.0,0.0,0.0,-0.8846,-0.8986,-0.9919,-1.0685,0.0,0.0,0.0,0.0,0.0,0.0,0.0,-1.8896,-1.9754,-2.0402,-2.0661,-2.0724,-2.1008,-2.1552,-2.1738,-2.184,-2.1911,0.0,-2.226,-2.2326,-2.2398,-2.2436,-2.2552,-2.2596,-2.2605,-2.2703,-2.2712,-2.2712,-2.2712,-2.2712,-2.2712,-2.2712,-2.2712,-2.2712,-2.2712,-2.2332,-2.2039,-2.2141,-2.2191,-2.2447,-2.3049,-2.3175,-2.3241,-2.4783,-2.423,-2.2971,-2.2409,-2.2325,-2.2325,-2.2002,-2.1541,-2.1541,-2.1159,-2.0625,-2.0625,-2.0583,-2.054,-2.054,0.0,-2.0611,-2.0569,-2.0864,-2.1457,-2.14,-2.1682,-2.217,-2.2156,-2.217,-2.2156,-2.1654,-2.1386,-2.1358,-2.0807,-2.0512,-2.0456,-1.9824,-1.9207,-1.859,-1.8548,-1.852,-1.8478,-1.8478,-1.8478,-1.8478,-1.8478,-1.8478,-1.8478,-1.8478,-1.8478,-1.8464,-1.7927,-1.7323,-1.6691,-1.5469,-1.429,-1.3148,0.0,0.0,0.0,0.0,0.0,0.0,0.0,0.0,0.0,0.0,0.0,0.0,0.0,0.0,0.0,-0.9514,0.0,-1.1251,-1.2153,0.0,0.0,0.0,-1.7258,-1.7888,-1.8724,-1.9544,-2.0289,0.0,0.0,-2.1244,-2.1294,-2.1309,-2.1386,-2.1601,-2.1751,-2.1797,-2.1882,-2.1998,-2.2027,-2.1998,-2.2084,-2.2377,-2.2432,-2.2497,-2.2676,-2.2712,-2.2712,-2.2712,-2.2712,-2.2712,-2.2712,-2.2712,-2.2712,-2.2712,-2.2677,-2.2712,-2.2677,-2.2756,-2.2876,-2.2919,-2.302,-2.3095,-2.6287,-2.609,-2.5331,-2.4474,-2.3681,-2.3667,-2.3568,-2.3442,-2.3442,-2.3041,-2.2465,-2.2451,-2.2198,-2.1763,-2.1749,-2.2002,-2.2437,-2.1974,-2.2086,-2.2606,-2.2184,-2.203,-2.217,-2.217,-2.217,-2.217,-2.2076,-2.2006,-2.1945,-2.1819,-2.151,-2.1074,-2.095,-2.0288,-1.9221,-1.9179,-1.8955,-1.8478,-1.8478,-1.8478,-1.8478,-1.8478,-1.8478,-1.8478,-1.8478,-1.8478,-1.8464,-1.7927,-1.7323,-1.6726,-1.5483,-1.4443,-1.3713,-1.2696,0.0,0.0,0.0,0.0,0.0,0.0,0.0,0.0,0.0,-1.1656,-1.2256,0.0,-1.1775,0.0,-1.2257,-1.2596,-1.3451,-1.4643,0.0,0.0,-1.753,-1.8401,-1.9106,-1.9496,-2.0031,-2.0814,-2.1004,-2.1147,-2.1277,-2.1294,-2.1309,-2.134,-2.1433,-2.1556,-2.1634,-2.1768,-2.1869,-2.1945,-2.1974,-2.2101,-2.2349,-2.2542,-2.2649,-2.2703,-2.2712,-2.2712,-2.2712,-2.2712,-2.2712,-2.2712,-2.2712,-2.2712,-2.2712,-2.2712,-2.2712,-2.2712,-2.2738,-2.279,-2.2893,-2.2944,-2.2995,-2.7242,-2.7186,-2.6456,-2.5798,-2.5261,-2.4994,-2.4779,-2.4526,-2.4526,-2.416,-2.3533,-2.3533,-2.3336,-2.3027,-2.3076,-2.3259,-2.3491,-2.3168,-2.321,-2.3505,-2.3168,-2.3027,-2.3027,-2.3062,-2.2859,-2.2592,-2.2578,-2.2451,-2.2184,-2.217,-2.2002,-2.1724,-2.1724,-2.1201,-2.0274,-1.9993,-1.9516,-1.8899,-1.8644,-1.8478,-1.8478,-1.8478,-1.8478,-1.8478,-1.8478,-1.8478,-1.8503,-1.818,-1.7604,-1.6719,-1.6017,-1.5103,-1.3951,-1.3248,-1.2781,0.0,0.0,0.0,0.0,0.0,0.0,0.0,0.0,0.0,0.0,0.0,-1.3648,-1.4458,-1.4267,-1.4498,-1.5494,-1.6305,-1.7153,-1.8145,-1.8687,-1.9264,-2.0051,-2.0321,-2.0607,-2.1039,-2.1167,-2.1311,-2.1601,-2.1665,-2.1811,-2.2216,-2.2297,-2.2248,-2.2036,-2.2278,-2.2603,-2.2602,-2.2353,-2.2129,-2.2099,-2.236,-2.2569,-2.2569,-2.2632,-2.2712,-2.2712,-2.2712,-2.2712,-2.2712,-2.2712,-2.2712,-2.2712,-2.2712,-2.2712,-2.2712,-2.2712,-2.2738,-2.279,-2.2816,-2.2842,-2.7902,-2.7846,-2.697,-2.6649,-2.6764,-2.6245,-2.5669,-2.5093,-2.5093,-2.4797,-2.4357,-2.4343,-2.4343,-2.4343,-2.4357,-2.4343,-2.4343,-2.4272,-2.4272,-2.4343,-2.4188,-2.4146,-2.423,-2.4146,-2.3822,-2.3224,-2.3224,-2.2901,-2.2325,-2.2344,-2.2255,-2.2184,-2.217,-2.1917,-2.1428,-2.0878,-2.0274,-1.9516,-1.8953,-1.8604,-1.859,-1.8559,-1.8478,-1.8478,-1.8478,-1.8478,-1.8478,-1.8447,-1.7913,-1.6874,-1.6768,-1.5918,-1.4232,-1.405,-1.3741,0.0,-1.3049,0.0,0.0,0.0,0.0,0.0,0.0,0.0,0.0,-1.4776,-1.5561,-1.6409,-1.5994,-1.6207,-1.7347,-1.7621,-1.8161,-1.9256,-1.959,-1.9971,-2.0649,-2.0893,-2.1023,-2.1038,-2.1102,-2.1455,-2.1999,-2.2141,-2.2529,-2.3199,-2.3409,-2.3264,-2.283,-2.309,-2.34,-2.3513,-2.2978,-2.2556,-2.2236,-2.2346,-2.2536,-2.253,-2.2566,-2.2676,-2.2659,-2.2685,-2.2712,-2.2712,-2.2712,-2.2712,-2.2712,-2.2712,-2.2712,-2.2712,-2.2712,-2.2712,-2.2712,-2.2712,-2.2712,-2.8521,-2.845,-2.7788,-2.7241,-2.6807,-2.668,-2.6287,-2.5711,-2.5711,-2.5655,-2.5542,-2.5542,-2.5556,-2.5542,-2.5542,-2.5556,-2.5514,-2.5075,-2.5064,-2.5514,-2.4568,-2.4371,-2.4807,-2.4343,-2.4047,-2.3935,-2.3935,-2.3547,-2.2915,-2.2915,-2.2662,-2.2184,-2.217,-2.2128,-2.2016,0.0,0.0,0.0,-1.9585,-1.9221,-1.9207,-1.877,-1.8478,-1.8478,-1.8478,0.0,-1.8464,-1.8002,-1.7674,-1.7436,-1.6958,0.0,0.0,0.0,0.0,0.0,0.0,0.0,0.0,0.0,0.0,0.0,-1.6074,-1.6197,-1.5473,-1.6712,-1.7609,-1.7823,-1.8238,-1.8639,-1.8886,-1.9395,-1.9842,-2.0073,-2.0138,-2.0218,-2.0392,-2.0543,-2.0628,-2.0628,-2.1216,-2.1782,-2.2091,-2.2417,-2.2794,-2.3211,-2.3554,-2.384,-2.3875,-2.3665,-2.3511,-2.3497,-2.3503,-2.3473,-2.3391,-2.3117,-2.2962,-2.2942,-2.2632,-2.2518,-2.2556,-2.263,-2.2703,-2.272,-2.2712,-2.2712,-2.2712,-2.2712,-2.2712,-2.2712,-2.2712,-2.2712,-2.2712,-2.2712,-2.2712,-2.9139,0.0,-2.8163,-2.7718,0.0,-2.7189,-2.6903,-2.6778,-2.616,-2.5839,-2.5702,-2.5839,-2.5853,-2.5702,-2.5839,-2.5893,-2.5879,-2.557,-2.5598,-2.5851,-2.5261,-2.5135,-2.5416,-2.5121,-2.4864,-2.4568,-2.4568,-2.4039,-2.314,-2.3097,-2.2774,-2.217,-2.217,-2.217,-2.217,-2.217,-2.178,-2.0879,-2.0231,-1.9754,-1.939,-1.9095,-1.8787,-1.8531,-1.8478,0.0,0.0,0.0,0.0,0.0,0.0,0.0,0.0,0.0,0.0,-1.53,-1.4977,-1.498,-1.5258,-1.5553,-1.5876,-1.6185,-1.7096,-1.7577,-1.7377,-1.8235,-1.89,-1.9208,-1.9595,-1.9795,-1.9795,-2.0104,-2.0304,-2.0304,-2.0304,-2.0339,-2.0438,-2.0755,-2.0976,-2.107,-2.1686,-2.2342,-2.2781,-2.3022,-2.3415,-2.3935,-2.4284,-2.4506,-2.4681,-2.4537,-2.4325,-2.4045,-2.407,-2.4027,-2.3718,-2.3572,-2.3451,-2.3401,-2.334,-2.3351,-2.3481,-2.3141,-2.2971,-2.3148,-2.2907,-2.2596,-2.2685,-2.2712,-2.2712,-2.2712,-2.2712,-2.2712,-2.2712,-2.2712,-2.2712,-2.9602,-2.9498,-2.847,-2.8257,-2.8629,-2.7754,-2.7537,-2.7619,0.0,0.0,0.0,-2.5798,-2.5798,-2.5592,-2.5798,-2.5893,-2.5893,-2.5893,-2.595,-2.6048,-2.595,-2.595,-2.6048,-2.595,-2.5626,-2.5149,-2.5135,-2.4545,-2.3449,-2.3308,-2.2957,-2.2395,-2.224,-2.217,-2.217,-2.217,-2.1978,-2.1471,-2.085,-2.0288,-1.9782,-1.9502,-1.9151,-1.8686,-1.8574,-1.8478,-1.8478,-1.8478,-1.8278,-1.7801,-1.7773,-1.7492,-1.6888,-1.6845,-1.6803,-1.6705,-1.6691,-1.6733,-1.6845,-1.6845,-1.6937,-1.7071,-1.7741,-1.8446,-1.9106,-1.929,-1.9621,-2.0243,-2.0304,-2.0304,-2.0304,-2.0304,-2.0304,-2.0304,-2.0304,-2.0369,-2.0612,-2.1113,-2.145,-2.1688,-2.2242,-2.2916,-2.3491,-2.3655,-2.4014,-2.4713,-2.4808,-2.495,-2.5123,-2.5214,-2.5142,-2.477,-2.4729,-2.4535,-2.4048,-2.3862,-2.3933,-2.395,-2.4017,-2.421,-2.4315,-2.3894,-2.3596,-2.3938,-2.3339,-2.3031,-2.29,-2.2953,-2.2823,-2.2703,-2.2712,-2.2712,-2.2712,-2.2712,-2.2712,-2.9602,-2.9602,-2.938,-2.9119,-2.8689,-2.8554,-2.801,-2.7266,-2.6818,-2.6385,-2.5839,-2.5893,-2.5893,-2.5839,-2.5893,-2.5893,-2.5893,-2.5893,-2.6174,-2.6638,-2.6132,-2.6174,-2.6638,-2.6146,-2.5851,-2.5767,-2.5767,-2.5402,-2.4727,-2.423,-2.3603,-2.2971,-2.2451,-2.217,-2.217,-2.217,-2.2189,-2.2044,-2.1499,-2.1147,-2.1034,-1.9978,-1.9348,-1.9249,-1.8745,-1.8478,-1.8478,-1.8478,-1.8475,-1.8391,-1.8391,-1.8096,-1.752,-1.7478,-1.7239,-1.6733,-1.6691,-1.6916,-1.7436,-1.7478,-1.7814,-1.8507,-1.8726,-1.8919,-1.9317,-1.9576,-1.9889,-2.027,-2.027,-2.0304,-2.0304,-2.0304,-2.0304,-2.0304,-2.032,-2.052,-2.1095,-2.1327,-2.1636,-2.2161,-2.2786,-2.3281,-2.3585,-2.3955,-2.4256,-2.4558,-2.4589,-2.4508,-2.4751,-2.5201,-2.5508,-2.5486,-2.5454,-2.5405,-2.513,-2.4745,-2.4457,-2.4408,-2.4144,-2.41,-2.4377,-2.4337,-2.4371,-2.4758,-2.4557,-2.4248,-2.3788,-2.365,-2.3357,-2.2936,-2.2781,-2.2712,-2.2712,-2.2712,-2.2712,-2.9602,-2.9602,-2.9415,-2.9199,-2.8934,-2.8747,-2.8269,-2.7629,-2.7338,-2.6617,-2.5693,-2.5936,-2.5869,-2.5467,-2.5729,-2.5893,-2.5893,-2.5893,-2.6034,-2.6273,-2.602,-2.6048,-2.6273,-2.602,-2.5893,-2.5893,-2.5893,-2.5584,-2.4994,-2.4737,-2.4053,-2.3126,-2.2479,-2.217,-2.217,-2.217,-2.217,-2.217,-2.1949,-2.164,-2.1302,-2.0414,-1.974,-1.9404,-1.8787,-1.8478,-1.8478,-1.8478,-1.8478,-1.8478,-1.8478,-1.8352,-1.8124,-1.811,-1.7969,-1.7702,-1.7674,-1.7801,-1.8082,-1.8096,-1.8247,-1.863,-1.8697,-1.8812,-1.9101,-1.9435,-1.9711,-1.9995,-2.003,-2.01,-2.027,-2.0304,-2.0304,-2.0304,-2.0613,-2.0967,-2.1337,-2.2031,-2.2501,-2.2825,-2.3425,-2.3881,-2.3962,-2.4158,-2.4302,-2.4441,-2.4441,-2.4508,-2.4574,-2.4966,-2.5333,-2.541,-2.5524,-2.5578,-2.56,-2.5357,-2.5114,-2.5098,-2.4912,-2.4898,-2.5092,-2.4962,-2.4828,-2.5207,-2.4999,-2.462,-2.4385,-2.4063,-2.3684,-2.3436,-2.2909,-2.2763,-2.2712,-2.2712,-2.2712,-2.9602,-2.9602,-2.9352,-2.9162,-2.9099,-2.8651,-2.8314,-2.7999,-2.7675,-2.6836,-2.5868,-2.6081,-2.5802,-2.5265,-2.5633,-2.5798,-2.5798,-2.5893,-2.5893,-2.5893,-2.5893,-2.5893,-2.5893,-2.5893,-2.5893,-2.5893,-2.5893,-2.564,-2.5219,-2.505,-2.4334,-2.3154,-2.2479,-2.217,-2.217,-2.217,-2.217,-2.217,-2.217,-2.1945,-2.1527,-2.0892,-2.0288,-1.9655,-1.9011,-1.8618,-1.8531,-1.8478,-1.8478,-1.8478,-1.8478,-1.8478,-1.8478,-1.8478,-1.8478,-1.8478,-1.8478,-1.8478,-1.8478,-1.8478,-1.8478,-1.8478,-1.8478,-1.8595,-1.8798,-1.904,-1.9362,-1.9717,-1.9909,-2.003,-2.022,-2.0304,-2.0366,-2.052,-2.0983,-2.146,-2.1793,-2.2671,-2.3379,-2.3533,-2.3994,-2.4287,-2.4302,-2.4302,-2.4302,-2.4302,-2.4426,-2.4508,-2.4549,-2.4751,-2.4966,-2.5123,-2.5333,-2.5464,-2.5524,-2.5508,-2.5492,-2.5578,-2.5584,-2.5619,-2.5721,-2.5288,-2.5168,-2.5664,-2.5293,-2.497,-2.5073,-2.4717,-2.4299,-2.4087,-2.3729,-2.335,-2.3367,-2.3367,-2.3074,-2.9602,-2.9602,-2.954,-2.9352,-2.9035,-2.8406,-2.8145,-2.8,-2.767,-2.7171,-2.654,-2.6136,-2.5887,-2.5796,-2.563,-2.5578,-2.5578,-2.5798,-2.5893,-2.5893,-2.5893,-2.5893,-2.5893,-2.5893,-2.5893,-2.5893,-2.5893,-2.5851,-2.5739,-2.5233,-2.4348,-2.3168,-2.2479,-2.2184,-2.217,-2.217,-2.217,-2.217,-2.217,-2.2156,-2.2118,-2.1541,-2.0906,-2.033,-1.9642,-1.9039,-1.8548,-1.8478,-1.8478,-1.8478,-1.8478,-1.8478,-1.8478,-1.8478,-1.8478,-1.8478,-1.8478,-1.8478,-1.8478,-1.8478,-1.8478,-1.8478,-1.8478,-1.8517,-1.8556,-1.8581,-1.895,-1.9617,-2.008,-2.02,-2.0304,-2.0335,-2.0613,-2.1147,-2.1353,-2.1747,-2.2809,-2.3209,-2.3517,-2.4148,-2.4241,-2.4302,-2.4302,-2.4302,-2.4302,-2.4302,-2.4343,-2.4343,-2.4385,-2.4523,-2.463,-2.471,-2.4871,-2.5123,-2.5256,-2.5333,-2.5371,-2.554,-2.5578,-2.5675,-2.5758,-2.5888,-2.595,-2.5946,-2.6167,-2.5883,-2.5676,-2.553,-2.5302,-2.4888,-2.4689,-2.4695,-2.4764,-2.4615,-2.4167,-2.9035,-2.8972,-2.9035,-2.878,-2.8457,-2.7921,-2.7736,-2.7736,-2.759,-2.7392,-2.7092,-2.6638,-2.6268,-2.6089,-2.5864,-2.572,-2.575,-2.5702,-2.5647,-2.5702,-2.5839,-2.5893,-2.5893,-2.5893,-2.5893,-2.5893,-2.5893,-2.5893,-2.5795,-2.5275,-2.4531,-2.3737,-2.3041,-2.255,-2.2212,-2.217,-2.217,-2.217,-2.217,-2.217,-2.21,-2.164,-2.1203,-2.085,-1.9964,-1.9291,-1.9011,-1.8675,-1.8478,-1.8478,-1.8478,-1.8478,-1.8478,-1.8478,-1.8478,-1.8478,-1.8478,-1.8478,-1.8478,-1.8478,-1.8478,-1.8478,-1.8478,-1.8478,-1.8517,-1.862,-1.9056,-1.9719,-1.9819,-1.9984,-2.0527,-2.0783,-2.1183,-2.1778,-2.2224,-2.2701,-2.3194,-2.364,-2.4025,-2.4271,-2.4302,-2.4302,-2.4302,-2.4302,-2.4302,-2.4302,-2.4302,-2.4302,-2.4317,-2.4385,-2.4426,-2.4426,-2.4508,-2.4766,-2.5045,-2.5139,-2.5178,-2.5256,-2.5333,-2.547,-2.5546,-2.5712,-2.5844,-2.6118,-2.6137,-2.616,-2.6101,-2.5828,-2.5615,-2.5398,-2.5107,-2.5005,-2.5005,-2.4871,-2.4452,-2.8587,-2.8587,-2.8457,-2.8341,-2.8079,-2.7669,-2.7469,-2.7469,-2.7469,-2.7469,-2.7484,-2.7079,-2.6803,-2.6569,-2.6022,-2.5702,-2.5544,-2.5379,-2.5383,-2.5369,-2.5578,-2.5619,-2.5674,-2.5743,-2.5798,-2.5798,-2.5839,-2.5893,-2.5823,-2.5275,-2.4741,-2.4301,-2.3491,-2.2873,-2.2451,-2.2297,-2.217,-2.217,-2.217,-2.217,-2.2114,-2.1703,-2.1394,-2.1201,-2.0245,-1.9586,-1.9376,-1.8801,-1.8478,-1.8478,-1.8478,-1.8478,-1.8478,-1.8478,-1.8478,-1.8478,-1.8478,-1.8478,-1.8478,-1.8478,-1.8478,-1.8478,-1.8478,-1.8478,-1.8545,-1.8853,-1.9216,-1.9641,-1.9759,-2.018,-2.0797,-2.122,-2.1727,-2.237,-2.2961,-2.3348,-2.3579,-2.4056,-2.4287,-2.4302,-2.4302,-2.4302,-2.4302,-2.4302,-2.4302,-2.4302,-2.4302,-2.4302,-2.4302,-2.4317,-2.4302,-2.4302,-2.4317,-2.4467,-2.4806,-2.4886,-2.4886,-2.5021,-2.5178,-2.524,-2.5294,-2.5464,-2.5578,-2.5828,-2.5864,-2.5941,-2.6075,-2.5899,-2.5814,-2.5795,-2.5584,-2.5381,-2.5493,-2.5215,-2.5128,-2.8587,-2.8522,-2.8276,-2.8079,-2.8079,-2.7669,-2.7469,-2.7469,-2.7469,-2.7469,-2.7469,-2.7417,-2.7458,-2.7315,-2.6091,-2.5149,-2.4727,-2.4973,-2.5032,-2.5018,-2.5061,-2.5061,-2.5061,-2.5369,-2.5494,-2.555,-2.5743,-2.5839,-2.5797,-2.5303,-2.4966,-2.4854,-2.368,-2.3097,-2.2895,-2.2404,-2.2184,-2.2137,-2.2123,-2.217,-2.2123,-2.1908,-2.1602,-2.1313,-2.0667,-2.0049,-1.9474,-1.8829,-1.8506,-1.8492,-1.8492,-1.8478,-1.8478,-1.8478,-1.8478,-1.8478,-1.8478,-1.8478,-1.8478,-1.8478,-1.8506,-1.8506,-1.8506,-1.852,-1.8689,-1.9065,-1.9429,-1.9487,-2.0284,-2.0831,-2.1219,-2.154,-2.2049,-2.2692,-2.3086,-2.3585,-2.4122,-2.4184,-2.4302,-2.4302,-2.4302,-2.4302,-2.4302,-2.4302,-2.4302,-2.4302,-2.4302,-2.4302,-2.4302,-2.4302,-2.4302,-2.4302,-2.4302,-2.4385,-2.4589,-2.463,-2.4766,-2.4846,-2.4926,-2.5045,-2.5217,-2.5333,-2.5448,-2.5524,-2.5562,-2.5696,-2.5885,-2.6016,-2.6075,-2.6132,-2.6184,-2.6135,-2.5982,-2.6219,-2.6051,-2.7855,-2.7855,-2.7736,-2.7736,-2.7669,-2.7523,-2.7469,-2.7469,-2.7469,-2.7469,-2.7469,-2.7469,-2.7327,-2.6935,-2.6461,-2.5919,-2.5353,-2.5295,-2.5083,-2.4748,-2.4892,-2.5005,-2.5005,-2.5131,-2.5313,-2.5494,-2.5411,-2.5342,-2.5328,-2.5108,-2.4819,-2.4365,-2.3595,-2.3004,-2.2564,-2.2014,-2.1698,-2.1712,-2.1698,-2.1712,-2.1712,-2.1616,-2.154,-2.1602,-2.1046,-2.0703,-2.0597,-1.9641,-1.9067,-1.9053,-1.8703,-1.8478,-1.8478,-1.8478,-1.8478,-1.8478,-1.8478,-1.8478,-1.8478,-1.8478,-1.87,-1.8997,-1.8689,-1.8925,-1.9487,-1.9585,-1.9698,-2.0485,-2.0882,-2.131,-2.1728,-2.1973,-2.2352,-2.2974,-2.3393,-2.3663,-2.3933,-2.4135,-2.4302,-2.4302,-2.4302,-2.4302,-2.4302,-2.4302,-2.4302,-2.4302,-2.4302,-2.4302,-2.4302,-2.4302,-2.4302,-2.4302,-2.4302,-2.4302,-2.4385,-2.4426,-2.4467,-2.4549,-2.463,-2.471,-2.4846,-2.5045,-2.5162,-2.524,-2.5294,-2.5371,-2.5567,-2.5828,-2.5974,-2.6101,-2.6191,-2.6279,-2.6401,-2.626,-2.6144,-2.7469,-2.7469,-2.7469,-2.7469,-2.7469,-2.7469,-2.7469,-2.7469,-2.7469,-2.7469,-2.7469,-2.7469,-2.7314,-2.6987,-2.6948,-2.6634,-2.6033,-2.5546,-2.4945,-2.439,-2.4593,-2.4734,-2.4734,-2.4835,-2.4948,-2.5131,-2.5061,-2.5005,-2.5005,-2.5005,-2.4801,-2.4394,-2.3784,-2.3187,-2.259,-2.1993,-2.164,-2.1477,-2.141,-2.141,-2.1375,-2.1313,-2.1423,-2.1561,-2.1172,-2.1029,-2.1257,-2.0288,-1.9586,-1.9376,-1.8943,-1.857,-1.8363,-1.8321,-1.8321,-1.8321,-1.8347,-1.84,-1.8442,-1.8661,-1.8969,-1.9348,-1.9249,-1.9557,-2.0288,-2.0161,-2.0498,-2.1133,-2.1527,-2.1809,-2.2066,-2.2171,-2.2469,-2.301,-2.3436,-2.361,-2.3653,-2.3909,-2.4177,-2.4261,-2.4302,-2.4302,-2.4302,-2.4302,-2.4302,-2.4302,-2.4302,-2.4302,-2.4302,-2.4302,-2.4302,-2.4302,-2.4302,-2.4302,-2.4302,-2.4343,-2.4343,-2.4385,-2.4426,-2.4508,-2.4589,-2.4766,-2.4886,-2.4966,-2.5005,-2.5084,-2.5278,-2.5546,-2.5717,-2.5832,-2.5921,-2.5974,-2.601,-2.599,-2.5892,-2.7469,-2.7469,-2.7469,-2.7469,-2.7469,-2.7469,-2.7469,-2.7469,-2.7469,-2.7469,-2.7469,-2.7469,-2.7497,-2.7417,-2.7365,-2.7104,-2.6413,-2.5452,-2.4745,-2.4302,-2.4197,-2.4171,-2.4229,-2.4421,-2.4523,-2.4593,-2.4821,-2.4948,-2.4892,-2.4892,-2.4851,-2.4813,-2.4216,-2.3622,-2.3187,-2.2461,-2.193,-2.1502,-2.1367,-2.1375,-2.1361,-2.1131,-2.1131,-2.1326,-2.1126,-2.1111,-2.1282,-2.0679,-2.0062,-1.9503,-1.9183,-1.8714,-1.8058,-1.7963,-1.7922,-1.7963,-1.8083,-1.8202,-1.8339,-1.8918,-1.9319,-1.9628,-2.0021,-2.0302,-2.0625,-2.095,-2.1203,-2.1443,-2.1837,-2.2156,-2.2156,-2.2207,-2.2331,-2.2663,-2.3083,-2.326,-2.3348,-2.3566,-2.3925,-2.4177,-2.4261,-2.4302,-2.4302,-2.4302,-2.4302,-2.4302,-2.4302,-2.4302,-2.4302,-2.4302,-2.4302,-2.4302,-2.4302,-2.4302,-2.4302,-2.4302,-2.4302,-2.4302,-2.4343,-2.44,-2.4467,-2.463,-2.467,-2.4751,-2.4831,-2.4926,-2.4886,-2.5146,-2.5317,-2.5454,-2.5546,-2.5696,-2.5749,-2.5749,-2.5728,-2.7469,-2.7469,-2.7469,-2.7469,-2.7469,-2.7469,-2.7469,-2.7469,-2.7469,-2.7469,-2.7469,-2.7469,-2.7469,-2.739,-2.7121,-2.6598,-2.6049,-2.5327,-2.4912,-2.4645,-2.4308,-2.4067,-2.4112,-2.4157,-2.4203,-2.4274,-2.4536,-2.4536,-2.439,-2.4332,-2.4403,-2.4284,-2.3794,-2.3424,-2.316,-2.2273,-2.1639,-2.148,-2.1083,-2.0898,-2.0898,-2.0848,-2.0898,-2.1082,-2.1046,-2.1135,-2.1328,-2.0767,-2.037,-2.0124,-1.93,-1.8562,-1.8058,-1.7922,-1.7922,-1.7922,-1.7963,-1.8289,-1.8782,-1.9059,-1.967,-2.0371,-2.054,-2.085,-2.1426,-2.1428,-2.1541,-2.1791,-2.2072,-2.217,-2.217,-2.217,-2.2263,-2.2342,-2.2663,-2.2889,-2.2934,-2.3201,-2.3566,-2.3867,-2.3952,-2.4051,-2.4219,-2.4302,-2.4302,-2.4261,-2.4261,-2.4302,-2.4261,-2.4276,-2.4302,-2.4302,-2.4302,-2.4302,-2.4302,-2.4302,-2.4302,-2.4302,-2.4317,-2.4317,-2.4385,-2.4426,-2.4508,-2.4549,-2.467,-2.471,-2.467,-2.4791,-2.5005,-2.5162,-2.5317,-2.5448,-2.5578,-2.5616,-2.5616,-2.7469,-2.7469,-2.7469,-2.7403,-2.7188,-2.7188,-2.7121,-2.696,-2.7121,-2.7121,-2.6973,-2.7121,-2.7108,-2.6905,-2.6564,-2.6226,-2.5795,-2.5086,-2.4713,-2.4619,-2.4131,-2.3773,-2.3582,-2.3543,-2.3556,-2.3603,-2.3682,-2.3682,-2.3543,-2.3556,-2.3543,-2.3454,-2.3173,-2.2936,-2.2876,-2.2037,-2.1522,-2.142,-2.1,-2.0699,-2.0699,-2.0699,-2.0762,-2.0848,-2.0898,-2.0997,-2.1104,-2.077,-2.057,-2.03,-1.93,-1.8432,-1.8028,-1.7772,-1.7625,-1.7666,-1.7747,-1.8085,-1.8767,-1.9082,-1.9775,-2.0812,-2.0997,-2.1251,-2.1945,-2.1763,-2.1833,-2.2086,-2.217,-2.217,-2.217,-2.217,-2.217,-2.217,-2.2388,-2.2572,-2.2709,-2.2934,-2.3216,-2.3523,-2.3754,-2.3925,-2.4051,-2.4261,-2.4219,-2.4177,-2.4219,-2.4219,-2.4177,-2.4234,-2.4276,-2.4261,-2.4302,-2.4302,-2.4302,-2.4302,-2.4302,-2.4302,-2.4302,-2.4317,-2.4343,-2.4343,-2.4385,-2.4385,-2.4467,-2.4467,-2.4467,-2.463,-2.4831,-2.4966,-2.51,-2.5294,-2.5448,-2.5562,-2.5562,-2.7469,-2.7469,-2.7469,-2.7121,-2.6782,-2.6645,-2.6427,-2.607,-2.6427,-2.6427,-2.6139,-2.6496,-2.6427,-2.5988,-2.5931,-2.5812,-2.5677,-2.464,-2.4086,-2.3924,-2.3484,-2.3058,-2.2836,-2.2786,-2.2786,-2.2725,-2.2713,-2.2713,-2.2786,-2.2786,-2.2604,-2.2713,-2.2724,-2.2598,-2.2475,-2.1913,-2.1549,-2.1458,-2.0989,-2.0699,-2.0699,-2.0699,-2.0699,-2.0699,-2.0699,-2.0749,-2.0736,-2.072,-2.0629,-2.0301,-1.9239,-1.8517,-1.8105,-1.7591,-1.7463,-1.7531,-1.7525,-1.8007,-1.8572,-1.9283,-2.0034,-2.0919,-2.142,-2.1902,-2.1988,-2.1974,-2.1932,-2.2077,-2.2077,-2.2123,-2.2123,-2.2123,-2.2123,-2.217,-2.2217,-2.2402,-2.2603,-2.2649,-2.2844,-2.3216,-2.3523,-2.3739,-2.3754,-2.4009,-2.4009,-2.3925,-2.4009,-2.3967,-2.3882,-2.3925,-2.4177,-2.4219,-2.4177,-2.4261,-2.4219,-2.4302,-2.4302,-2.4302,-2.4302,-2.4302,-2.4302,-2.4302,-2.4302,-2.4317,-2.4317,-2.4302,-2.4343,-2.4508,-2.463,-2.4726,-2.4926,-2.5178,-2.5333,-2.541,-2.5448,-2.7469,-2.7456,-2.7053,-2.6863,-2.6645,-2.6277,-2.607,-2.5931,-2.6,-2.6,-2.5931,-2.6,-2.6,-2.5861,-2.5441,-2.5217,-2.4943,-2.4095,-2.3395,-2.301,-2.2542,-2.2464,-2.2567,-2.2604,-2.2604,-2.2531,-2.2543,-2.2604,-2.2604,-2.2543,-2.2543,-2.2604,-2.2531,-2.253,-2.2464,-2.1895,-2.1627,-2.1498,-2.1017,-2.0699,-2.0699,-2.0699,-2.0699,-2.0699,-2.0699,-2.0699,-2.0699,-2.0699,-2.0437,-1.9996,-1.9706,-1.9179,-1.8728,-1.8493,-1.8349,-1.8349,-1.8472,-1.8869,-1.9554,-1.99,-2.0415,-2.1145,-2.1397,-2.1568,-2.1602,-2.1602,-2.1602,-2.1602,-2.1602,-2.1698,-2.1855,-2.1888,-2.1983,-2.217,-2.217,-2.2217,-2.231,-2.2342,-2.248,-2.2785,-2.2934,-2.3157,-2.3392,-2.3538,-2.3581,-2.3494,-2.3538,-2.3566,-2.348,-2.361,-2.3824,-2.3925,-2.3925,-2.4094,-2.4177,-2.4261,-2.4302,-2.4302,-2.4302,-2.4302,-2.4302,-2.4302,-2.4302,-2.4302,-2.4317,-2.4302,-2.4302,-2.4385,-2.4467,-2.4549,-2.4726,-2.4926,-2.5045,-2.5123,-2.5162,-2.6837,-2.6769,-2.6496,-2.6208,-2.5931,-2.5652,-2.537,-2.5229,-2.5441,-2.537,-2.53,-2.5441,-2.537,-2.5158,-2.4802,-2.453,-2.4237,-2.3479,-2.2834,-2.234,-2.1824,-2.1806,-2.1925,-2.2002,-2.2002,-2.2002,-2.2002,-2.2002,-2.2002,-2.2002,-2.2002,-2.2002,-2.2002,-2.2125,-2.2201,-2.1675,-2.143,-2.1462,-2.1043,-2.0699,-2.0699,-2.0699,-2.0699,-2.0649,-2.0536,-2.0372,-2.0422,-2.0586,-2.0529,-2.0178,-1.993,-1.963,-1.9316,-1.9028,-1.8911,-1.8898,-1.8898,-1.9252,-1.9845,-2.0038,-2.0412,-2.1032,-2.1229,-2.1277,-2.1361,-2.141,-2.141,-2.141,-2.141,-2.1458,-2.1568,-2.1602,-2.1759,-2.1949,-2.203,-2.2091,-2.217,-2.2217,-2.2263,-2.2449,-2.2618,-2.274,-2.3038,-2.3172,-2.3172,-2.3127,-2.3231,-2.3172,-2.3113,-2.3304,-2.348,-2.361,-2.3882,-2.4094,-2.4177,-2.4261,-2.4302,-2.4302,-2.4302,-2.4302,-2.4302,-2.4302,-2.4302,-2.4302,-2.4302,-2.4302,-2.4302,-2.4302,-2.4359,-2.4441,-2.4508,-2.463,-2.4751,-2.4886,-2.4926,-2.5931,-2.5931,-2.5849,-2.5499,-2.5075,-2.4945,-2.4671,-2.4394,-2.4743,-2.4718,-2.4583,-2.4837,-2.4765,-2.42,-2.4322,-2.3902,-2.3339,-2.2834,-2.2329,-2.1858,-2.1456,-2.1308,-2.1371,-2.1411,-2.1348,-2.1348,-2.1233,-2.1296,-2.1348,-2.1285,-2.1221,-2.1348,-2.1285,-2.1463,-2.1661,-2.1269,-2.1161,-2.1212,-2.0832,-2.0527,-2.0423,-2.0398,-2.0398,-2.0334,-2.0207,-2.0042,-2.0156,-2.0422,-2.066,-2.0686,-2.0152,-1.9956,-1.9826,-1.9368,-1.9198,-1.9211,-1.929,-1.9486,-1.9812,-2.0031,-2.021,-2.0841,-2.0997,-2.1033,-2.1229,-2.1277,-2.1215,-2.1229,-2.1326,-2.1264,-2.1375,-2.1361,-2.152,-2.1712,-2.1746,-2.1888,-2.2044,-2.2184,-2.217,-2.2217,-2.248,-2.2618,-2.2754,-2.2904,-2.3038,-2.2709,-2.2814,-2.2814,-2.2814,-2.2904,-2.3172,-2.3436,-2.3739,-2.4094,-2.4177,-2.4261,-2.4261,-2.4302,-2.4302,-2.4302,-2.4302,-2.4302,-2.4302,-2.4302,-2.4302,-2.4302,-2.4302,-2.4317,-2.4317,-2.4359,-2.4441,-2.4508,-2.4589,-2.467,-2.4726,-2.5931,-2.5861,-2.5358,-2.5146,-2.4945,-2.4539,-2.4334,-2.4212,-2.4345,-2.4565,-2.4768,-2.49,-2.4657,-2.42,-2.4097,-2.3707,-2.2834,-2.2306,-2.1812,-2.1365,-2.125,-2.1233,-2.1233,-2.1233,-2.1233,-2.1233,-2.1233,-2.1233,-2.1233,-2.1233,-2.1233,-2.1233,-2.1233,-2.1233,-2.1295,-2.1114,-2.0818,-2.0628,-2.0397,-2.012,-1.9822,-1.9784,-1.9784,-1.972,-1.9901,-1.9991,-2.0093,-2.0422,-2.0699,-2.066,-2.0581,-2.045,-2.0411,-2.0332,-2.0214,-2.0201,-2.024,-2.0345,-2.0476,-2.0476,-2.0555,-2.0696,-2.0799,-2.0812,-2.0835,-2.0898,-2.0835,-2.0848,-2.0848,-2.0934,-2.1095,-2.1277,-2.1361,-2.1471,-2.1471,-2.152,-2.1616,-2.1935,-2.2123,-2.217,-2.2263,-2.231,-2.231,-2.2402,-2.2449,-2.2342,-2.2356,-2.2402,-2.2495,-2.2586,-2.2844,-2.3157,-2.348,-2.3782,-2.3925,-2.4051,-2.4219,-2.4219,-2.4219,-2.4261,-2.4261,-2.4219,-2.4219,-2.4219,-2.4302,-2.4302,-2.4302,-2.4302,-2.4317,-2.4317,-2.4359,-2.4385,-2.4426,-2.4508,-2.4549,-2.5099,-2.5099,-2.4743,-2.4599,-2.4599,-2.4334,-2.4326,-2.4499,-2.4533,-2.482,-2.5096,-2.4843,-2.443,-2.4154,-2.3684,-2.3029,-2.2352,-2.1801,-2.1433,-2.1267,-2.1233,-2.1233,-2.1233,-2.1233,-2.1233,-2.1233,-2.1233,-2.1233,-2.1233,-2.1233,-2.1233,-2.1233,-2.1233,-2.1233,-2.1164,-2.1084,-2.0772,-2.0377,-2.0213,-1.9907,-1.9506,-1.942,-1.9275,-1.9316,-1.9656,-1.994,-1.9759,-2.0334,-2.0649,-2.0699,-2.0699,-2.0699,-2.0699,-2.0699,-2.0699,-2.0699,-2.0699,-2.0699,-2.0686,-2.0699,-2.0686,-2.0699,-2.0699,-2.0699,-2.0699,-2.0699,-2.0699,-2.0699,-2.0699,-2.0762,-2.0848,-2.0934,-2.1082,-2.118,-2.1229,-2.1277,-2.1423,-2.1664,-2.1888,-2.1983,-2.1996,-2.2077,-2.2123,-2.217,-2.2217,-2.2263,-2.2263,-2.231,-2.2356,-2.2495,-2.2618,-2.2875,-2.3172,-2.3392,-2.3566,-2.3782,-2.4094,-2.4094,-2.4078,-2.4177,-2.4261,-2.4177,-2.4094,-2.4177,-2.4302,-2.4302,-2.4302,-2.4302,-2.4302,-2.4317,-2.4317,-2.4317,-2.4302,-2.4385,-2.4385,-2.4189,-2.4189,-2.4189,-2.4235,-2.4292,-2.4315,-2.4602,-2.5004,-2.5027,-2.5199,-2.5394,-2.4648,-2.4315,-2.3902,-2.3144,-2.2409,-2.1824,-2.1468,-2.1256,-2.1244,-2.1233,-2.1233,-2.1233,-2.1233,-2.1233,-2.1233,-2.1233,-2.1233,-2.1233,-2.1233,-2.1233,-2.1233,-2.1233,-2.1233,-2.1181,-2.1055,-2.0734,-2.0193,-2.0088,-1.9734,-1.9214,-1.9105,-1.8946,-1.8893,-1.9303,-1.9604,-1.9617,-2.008,-2.0586,-2.0699,-2.0699,-2.0699,-2.0699,-2.0699,-2.0699,-2.0699,-2.0699,-2.0699,-2.0699,-2.0699,-2.0699,-2.0699,-2.0699,-2.0699,-2.0699,-2.0699,-2.0699,-2.0699,-2.0699,-2.0699,-2.0699,-2.0749,-2.0848,-2.0898,-2.0947,-2.1082,-2.1229,-2.1326,-2.1423,-2.1746,-2.1902,-2.1935,-2.2077,-2.217,-2.217,-2.217,-2.217,-2.2217,-2.231,-2.2356,-2.248,-2.2603,-2.2844,-2.3172,-2.3392,-2.348,-2.3782,-2.3867,-2.3867,-2.3909,-2.4036,-2.4036,-2.3994,-2.4177,-2.4302,-2.4302,-2.4302,-2.4302,-2.4302,-2.4302,-2.4302,-2.4302,-2.4302,-2.4302,-2.4302,-2.4189,-2.4189,-2.4189,-2.4418,-2.4751,-2.4797,-2.5096,-2.552,-2.5566,-2.536,-2.5061,-2.4832,-2.4223,-2.3569,-2.2972,-2.218,-2.1456,-2.1279,-2.1233,-2.1233,-2.1233,-2.1233,-2.1233,-2.1233,-2.1233,-2.1233,-2.1233,-2.1233,-2.1233,-2.1233,-2.1233,-2.1233,-2.1233,-2.1233,-2.121,-2.1123,-2.0641,-1.9946,-1.9738,-1.9305,-1.8663,-1.8464,-1.841,-1.8356,-1.8827,-1.9158,-1.946,-1.9862,-2.0271,-2.0649,-2.0699,-2.0649,-2.0599,-2.0599,-2.0649,-2.0699,-2.0699,-2.0699,-2.0699,-2.0699,-2.0699,-2.0699,-2.0699,-2.0699,-2.0699,-2.0699,-2.0699,-2.0699,-2.0699,-2.0699,-2.0699,-2.0699,-2.0699,-2.0749,-2.0799,-2.0785,-2.0835,-2.0885,-2.1131,-2.1554,-2.1698,-2.1902,-2.2077,-2.217,-2.217,-2.217,-2.217,-2.217,-2.2217,-2.2263,-2.2263,-2.2388,-2.2572,-2.2949,-2.326,-2.326,-2.3392,-2.348,-2.348,-2.348,-2.361,-2.3739,-2.3867,-2.4094,-2.4219,-2.4302,-2.4302,-2.4302,-2.4302,-2.4302,-2.4302,-2.4302,-2.4302,-2.4302,-2.4302,-2.4189,-2.4212,-2.4464,-2.4705,-2.4935,-2.521,-2.5624,-2.6014,-2.583,-2.5566,-2.5142,-2.4522,-2.3752,-2.2995,-2.2203,-2.1659,-2.136,-2.1233,-2.1233,-2.1233,-2.1233,-2.1233,-2.1233,-2.1233,-2.1233,-2.1233,-2.1233,-2.1233,-2.1233,-2.1233,-2.1233,-2.1233,-2.1233,-2.1233,-2.1152,-2.0911,-2.0412,-1.9792,-1.9413,-1.8942,-1.8164,-1.8084,-1.8084,-1.8193,-1.8518,-1.8893,-1.9105,-1.946,-1.9759,-1.9926,-2.0042,-2.0042,-2.0093,-2.0283,-2.0485,-2.0649,-2.0699,-2.0699,-2.0699,-2.0699,-2.0699,-2.0699,-2.0699,-2.0699,-2.0699,-2.0699,-2.0699,-2.0699,-2.0699,-2.0699,-2.0699,-2.0699,-2.0699,-2.0699,-2.0699,-2.0699,-2.0699,-2.0699,-2.0983,-2.1361,-2.1471,-2.1712,-2.2123,-2.217,-2.217,-2.217,-2.217,-2.217,-2.217,-2.217,-2.217,-2.2263,-2.2402,-2.2632,-2.2904,-2.2994,-2.3038,-2.3083,-2.3083,-2.3083,-2.3216,-2.3436,-2.3696,-2.3909,-2.4051,-2.4261,-2.4302,-2.4302,-2.4302,-2.4302,-2.4302,-2.4302,-2.4302,-2.4302,-2.4302,-2.4338,-2.4372,-2.4866,-2.5073,-2.5153,-2.552,-2.5922,-2.6152,-2.575,-2.536,-2.5073,-2.3925,-2.3029,-2.2432,-2.1801,-2.1296,-2.1256,-2.1233,-2.1233,-2.1233,-2.1233,-2.1233,-2.1233,-2.1233,-2.1233,-2.1233,-2.1233,-2.1233,-2.1233,-2.1233,-2.1233,-2.1233,-2.1233,-2.1233,-2.1152,-2.0871,-2.0274,-1.9711,-1.931,-1.8782,-1.8233,-1.8084,-1.8084,-1.8084,-1.8476,-1.8679,-1.8851,-1.9117,-1.9368,-1.9473,-1.9473,-1.9473,-1.9565,-1.985,-2.0207,-2.0586,-2.0699,-2.0699,-2.0699,-2.0699,-2.0699,-2.0699,-2.0699,-2.0699,-2.0699,-2.0699,-2.0699,-2.0699,-2.0699,-2.0699,-2.0699,-2.0699,-2.0699,-2.0699,-2.0699,-2.0699,-2.0699,-2.0699,-2.0785,-2.1082,-2.1229,-2.1471,-2.1793,-2.1935,-2.1888,-2.203,-2.203,-2.2123,-2.2123,-2.217,-2.217,-2.217,-2.2263,-2.2356,-2.254,-2.2572,-2.2663,-2.2768,-2.2709,-2.2663,-2.2904,-2.3187,-2.3436,-2.3696,-2.4094,-2.4302,-2.4302,-2.4302,-2.4302,-2.4302,-2.4302,-2.4302,-2.4302,-2.4302,-2.4302,-2.4832,-2.4866,-2.5394,-2.5624,-2.5612,-2.5681,-2.5727,-2.5716,-2.521,-2.4487,-2.3738,-2.3087,-2.249,-2.203,-2.1893,-2.1537,-2.1284,-2.1233,-2.1233,-2.1233,-2.1233,-2.1233,-2.1233,-2.1233,-2.1233,-2.1233,-2.1233,-2.1233,-2.1233,-2.1233,-2.1233,-2.1233,-2.1233,-2.1233,-2.121,-2.094,-2.0595,-1.9849,-1.9585,-1.9069,-1.8256,-1.8084,-1.8084,-1.8139,-1.8193,-1.8356,-1.8691,-1.8851,-1.8946,-1.9263,-1.9368,-1.9565,-1.985,-1.994,-2.0271,-2.0536,-2.0699,-2.0699,-2.0699,-2.0699,-2.0699,-2.0699,-2.0699,-2.0699,-2.0699,-2.0699,-2.0699,-2.0699,-2.0699,-2.0699,-2.0699,-2.0699,-2.0699,-2.0699,-2.0699,-2.0699,-2.0699,-2.0699,-2.0785,-2.0848,-2.1046,-2.118,-2.1423,-2.1471,-2.1568,-2.1712,-2.1855,-2.1983,-2.2077,-2.2077,-2.217,-2.217,-2.217,-2.2263,-2.231,-2.2356,-2.2402,-2.2495,-2.2449,-2.2388,-2.2586,-2.2904,-2.3187,-2.3494,-2.3882,-2.4177,-2.4177,-2.4177,-2.4261,-2.4302,-2.4302,-2.4302,-2.4302,-2.4302,-2.4302,-2.5096,-2.5406,-2.5922,-2.5968,-2.5727,-2.5716,-2.5532,-2.513,-2.443,-2.3684,-2.3018,-2.249,-2.1973,-2.1594,-2.1502,-2.1376,-2.1267,-2.1233,-2.1233,-2.1233,-2.1233,-2.1233,-2.1233,-2.1233,-2.1233,-2.1233,-2.1233,-2.1233,-2.1233,-2.1233,-2.1233,-2.1233,-2.1233,-2.1233,-2.1198,-2.0882,-2.0354,-1.9711,-1.9137,-1.8553,-1.8199,-1.8084,-1.8084,-1.8084,-1.8084,-1.8259,-1.8367,-1.8422,-1.8464,-1.8732,-1.8893,-1.9105,-1.9396,-1.9695,-2.0105,-2.0271,-2.0536,-2.0699,-2.0699,-2.0699,-2.0699,-2.0699,-2.0699,-2.0699,-2.0699,-2.0699,-2.0699,-2.0699,-2.0699,-2.0699,-2.0699,-2.0699,-2.0699,-2.0699,-2.0699,-2.0699,-2.0699,-2.0699,-2.0749,-2.0799,-2.0848,-2.0997,-2.1131,-2.1277,-2.1375,-2.1471,-2.1568,-2.1664,-2.1746,-2.1855,-2.1983,-2.217,-2.217,-2.2217,-2.2217,-2.2263,-2.2263,-2.231,-2.231,-2.2263,-2.2356,-2.2586,-2.2904,-2.3127,-2.3392,-2.3696,-2.3952,-2.4135,-2.4219,-2.4261,-2.4302,-2.4302,-2.4302,-2.4302,-2.4302,-2.4969,-2.5394,-2.6014,-2.5853,-2.5187,-2.5279,-2.4935,-2.4258,-2.3431,-2.2846,-2.2444,-2.1973,-2.1514,-2.125,-2.1267,-2.1267,-2.1244,-2.1233,-2.1233,-2.1233,-2.1233,-2.1233,-2.1233,-2.1233,-2.1233,-2.1233,-2.1233,-2.1233,-2.1233,-2.1233,-2.1233,-2.1233,-2.1233,-2.1233,-2.1129,-2.0848,-2.0389,-1.9688,-1.8896,-1.8347,-1.8118,-1.8084,-1.8084,-1.8084,-1.8084,-1.8084,-1.8084,-1.8139,-1.8139,-1.8193,-1.8476,-1.8679,-1.8946,-1.9356,-1.9643,-1.9862,-2.0131,-2.0334,-2.0485,-2.0586,-2.0649,-2.0699,-2.0699,-2.0699,-2.0699,-2.0699,-2.0699,-2.0699,-2.0699,-2.0699,-2.0699,-2.0699,-2.0699,-2.0699,-2.0699,-2.0699,-2.0699,-2.0699,-2.0699,-2.0749,-2.0749,-2.0749,-2.0898,-2.1095,-2.118,-2.1264,-2.1326,-2.1326,-2.1471,-2.1616,-2.1698,-2.1888,-2.1888,-2.1935,-2.203,-2.2077,-2.2137,-2.2184,-2.217,-2.2217,-2.2263,-2.2449,-2.2754,-2.2889,-2.3024,-2.3304,-2.3653,-2.3925,-2.4193,-2.4276,-2.4302,-2.4302,-2.4302,-2.4302,-2.4302,-2.4269,-2.4384,-2.5325,-2.4912,-2.3647,-2.4108,-2.3741,-2.2937,-2.2317,-2.2053,-2.1916,-2.1491,-2.1261,-2.1233,-2.1233,-2.1233,-2.1233,-2.1233,-2.1233,-2.1233,-2.1233,-2.1233,-2.1233,-2.1233,-2.1233,-2.1233,-2.1233,-2.1233,-2.1233,-2.1233,-2.1233,-2.1233,-2.1233,-2.1233,-2.1175,-2.094,-2.0492,-1.9838,-1.9149,-1.8609,-1.8357,-1.8164,-1.813,-1.8096,-1.8084,-1.8084,-1.8084,-1.8084,-1.8084,-1.8084,-1.8302,-1.8476,-1.8798,-1.9052,-1.9303,-1.9512,-1.9617,-1.9823,-2.0016,-2.0385,-2.0649,-2.0699,-2.0699,-2.0699,-2.0699,-2.0699,-2.0699,-2.0699,-2.0699,-2.0699,-2.0699,-2.0699,-2.0699,-2.0699,-2.0699,-2.0699,-2.0699,-2.0699,-2.0699,-2.0699,-2.0699,-2.0699,-2.0699,-2.0898,-2.0947,-2.1033,-2.1082,-2.1082,-2.1277,-2.1361,-2.141,-2.1506,-2.1506,-2.1602,-2.1793,-2.1888,-2.1996,-2.2137,-2.217,-2.217,-2.2217,-2.2434,-2.2572,-2.2663,-2.2814,-2.3083,-2.3319,-2.3523,-2.3782,-2.4135,-2.4302,-2.4302,-2.4302,-2.4302,-2.4302,-2.327,-2.3305,-2.3695,-2.3695,-2.3431,-2.3316,-2.2868,-2.2203,-2.1675,-2.1456,-2.1456,-2.125,-2.1233,-2.1233,-2.1233,-2.1233,-2.1233,-2.1233,-2.1233,-2.1233,-2.1233,-2.1233,-2.1233,-2.1233,-2.1233,-2.1233,-2.1233,-2.1233,-2.1233,-2.1233,-2.1233,-2.1233,-2.1233,-2.1233,-2.1187,-2.0928,-2.0492,-2.0171,-1.9631,-1.9137,-1.8724,-1.8586,-1.846,-1.8096,-1.8084,-1.8084,-1.8084,-1.8084,-1.8084,-1.8139,-1.8356,-1.8572,-1.8744,-1.8946,-1.9105,-1.9303,-1.9316,-1.9408,-1.9656,-2.0016,-2.0372,-2.0649,-2.0699,-2.0699,-2.0699,-2.0699,-2.0699,-2.0699,-2.0699,-2.0699,-2.0699,-2.0699,-2.0699,-2.0699,-2.0699,-2.0699,-2.0699,-2.0699,-2.0699,-2.0699,-2.0699,-2.0699,-2.0699,-2.0699,-2.0749,-2.0799,-2.0848,-2.0885,-2.1033,-2.1166,-2.1215,-2.1277,-2.1277,-2.141,-2.1602,-2.1759,-2.1902,-2.1983,-2.2123,-2.2077,-2.2077,-2.2231,-2.2356,-2.2449,-2.254,-2.2663,-2.2844,-2.3024,-2.3348,-2.3782,-2.4094,-2.4302,-2.4302,-2.4219,-2.4177,-2.2363,-2.2237,-2.2226,-2.2421,-2.2708,-2.2547,-2.2157,-2.1686,-2.1342,-2.1233,-2.1233,-2.1233,-2.1233,-2.1233,-2.1233,-2.1233,-2.1233,-2.1233,-2.1233,-2.1233,-2.1233,-2.1233,-2.1233,-2.1233,-2.1233,-2.1233,-2.1233,-2.1233,-2.1233,-2.1233,-2.1233,-2.1233,-2.1233,-2.1233,-2.1152,-2.0848,-2.0561,-2.0343,-2.009,-1.9654,-1.9206,-1.8931,-1.8793,-1.8324,-1.8199,-1.8084,-1.8084,-1.8084,-1.8084,-1.8193,-1.8356,-1.8518,-1.8679,-1.8839,-1.8999,-1.8999,-1.9052,-1.9052,-1.9316,-1.9759,-2.0105,-2.0372,-2.0649,-2.0649,-2.0699,-2.0699,-2.0699,-2.0699,-2.0699,-2.0699,-2.0699,-2.0699,-2.0699,-2.0699,-2.0699,-2.0699,-2.0699,-2.0699,-2.0699,-2.0699,-2.0699,-2.0699,-2.0699,-2.0699,-2.0699,-2.0749,-2.0749,-2.0785,-2.0835,-2.0934,-2.0983,-2.1033,-2.1095,-2.1277,-2.152,-2.152,-2.152,-2.1698,-2.1793,-2.1841,-2.1855,-2.1996,-2.2044,-2.2123,-2.217,-2.2203,-2.2388,-2.2618,-2.3068,-2.3538,-2.3754,-2.3967,-2.3882,-2.3797,-2.3839,-2.1675,-2.1279,-2.1314,-2.1337,-2.1422,-2.1755,-2.1663,-2.1296,-2.1267,-2.1233,-2.1233,-2.1233,-2.1233,-2.1233,-2.1233,-2.1233,-2.1233,-2.1233,-2.1233,-2.1233,-2.1233,-2.1233,-2.1169,-2.1169,-2.1094,-2.1158,-2.1094,-2.1106,-2.1106,-2.1106,-2.1106,-2.1123,-2.1089,-2.1164,-2.121,-2.1221,-2.0894,-2.0481,-2.0377,-2.0113,-1.9608,-1.9183,-1.8977,-1.8701,-1.8345,-1.8096,-1.8084,-1.8084,-1.8084,-1.8139,-1.8139,-1.8247,-1.8247,-1.8247,-1.8302,-1.8302,-1.8247,-1.841,-1.8798,-1.954,-1.9888,-2.0093,-2.0422,-2.0549,-2.0612,-2.0649,-2.0586,-2.0536,-2.0649,-2.0699,-2.0699,-2.0699,-2.0699,-2.0699,-2.0699,-2.0699,-2.0699,-2.0699,-2.0699,-2.0699,-2.0699,-2.0699,-2.0699,-2.0699,-2.0699,-2.0699,-2.0699,-2.0699,-2.0749,-2.0749,-2.0835,-2.0835,-2.0947,-2.1046,-2.118,-2.1095,-2.1131,-2.1313,-2.1506,-2.1602,-2.1616,-2.1602,-2.1698,-2.1759,-2.1841,-2.1874,-2.2063,-2.2249,-2.2572,-2.2844,-2.326,-2.3436,-2.3407,-2.3407,-2.3538,-2.1319,-2.1233,-2.1233,-2.1233,-2.1256,-2.133,-2.1307,-2.1181,-2.1233,-2.1233,-2.1233,-2.1233,-2.1233,-2.1233,-2.1169,-2.1169,-2.1169,-2.1233,-2.1233,-2.1169,-2.1169,-2.1042,-2.0967,-2.0967,-2.0955,-2.0635,-2.0635,-2.07,-2.0442,-2.0764,-2.0828,-2.0794,-2.0825,-2.0871,-2.1141,-2.1198,-2.0917,-2.0572,-2.0607,-2.0549,-1.9792,-1.9493,-1.9218,-1.8896,-1.8347,-1.8096,-1.803,-1.803,-1.803,-1.803,-1.803,-1.803,-1.803,-1.803,-1.8084,-1.8084,-1.8084,-1.8139,-1.8356,-1.8762,-1.9279,-1.9683,-2.0105,-2.0131,-1.9926,-2.0118,-2.0156,-2.0321,-2.0586,-2.0649,-2.0699,-2.0699,-2.0699,-2.0699,-2.0699,-2.0699,-2.0699,-2.0699,-2.0699,-2.0699,-2.0699,-2.0699,-2.0699,-2.0699,-2.0699,-2.0699,-2.0699,-2.0699,-2.0699,-2.0699,-2.0749,-2.0749,-2.0799,-2.0848,-2.0898,-2.0947,-2.0997,-2.1229,-2.1361,-2.1458,-2.141,-2.1313,-2.1423,-2.152,-2.1506,-2.1554,-2.1698,-2.1841,-2.1841,-2.2063,-2.2572,-2.2994,-2.3038,-2.3172,-2.3363,-2.1233,-2.1233,-2.1233,-2.1233,-2.1233,-2.1233,-2.1233,-2.1233,-2.1233,-2.1233,-2.1233,-2.1233,-2.1094,-2.1031,-2.0967,-2.0892,-2.0828,-2.0828,-2.0839,-2.0828,-2.0828,-2.0635,-2.0571,-2.07,-2.0635,-2.0377,-2.0453,-2.0506,-2.0635,-2.0764,-2.0764,-2.061,-2.0511,-2.0613,-2.0756,-2.0648,-2.0687,-2.0527,-2.0676,-2.0377,-1.9918,-1.9597,-1.916,-1.8737,-1.8305,-1.792,-1.781,-1.781,-1.781,-1.781,-1.781,-1.781,-1.781,-1.781,-1.781,-1.781,-1.781,-1.7854,-1.8018,-1.8116,-1.8632,-1.9056,-1.9527,-1.9708,-1.9656,-1.9952,-2.0156,-2.0321,-2.0536,-2.0636,-2.0699,-2.0699,-2.0699,-2.0699,-2.0699,-2.0699,-2.0699,-2.0699,-2.0699,-2.0699,-2.0699,-2.0699,-2.0699,-2.0699,-2.0699,-2.0699,-2.0699,-2.0699,-2.0699,-2.0699,-2.0699,-2.0699,-2.0699,-2.0749,-2.0848,-2.0848,-2.0947,-2.1131,-2.1166,-2.1215,-2.1131,-2.1033,-2.1131,-2.1229,-2.1277,-2.1264,-2.1375,-2.1423,-2.1458,-2.165,-2.1983,-2.2342,-2.2618,-2.2709,-2.2799,-2.1158,-2.1158,-2.1158,-2.1019,-2.1094,-2.0892,-2.1031,-2.1169,-2.1169,-2.1106,-2.1158,-2.1106,-2.0892,-2.0646,-2.0571,-2.0442,-2.0302,-2.0237,-2.0237,-2.0226,-2.0291,-2.0172,-2.0194,-2.0238,-2.0391,-2.0553,-2.0597,-2.0698,-2.1058,-2.0775,-2.0635,-2.0602,-2.0392,-2.0373,-2.0206,-1.9935,-2.0125,-2.0307,-2.0216,-2.0007,-1.986,-1.926,-1.886,-1.843,-1.807,-1.7601,-1.7423,-1.7368,-1.7312,-1.7312,-1.7312,-1.7256,-1.7256,-1.72,-1.72,-1.719,-1.7245,-1.7468,-1.7744,-1.7788,-1.7843,-1.8213,-1.8762,-1.9331,-1.9695,-1.9683,-1.9952,-2.0271,-2.0586,-2.0636,-2.0699,-2.0699,-2.0699,-2.0699,-2.0699,-2.0699,-2.0699,-2.0699,-2.0699,-2.0699,-2.0699,-2.0699,-2.0699,-2.0699,-2.0699,-2.0699,-2.0699,-2.0699,-2.0699,-2.0699,-2.0699,-2.0699,-2.0699,-2.0699,-2.0749,-2.0749,-2.0799,-2.0934,-2.0885,-2.0885,-2.0799,-2.0799,-2.0898,-2.0997,-2.0983,-2.1033,-2.1082,-2.1131,-2.1131,-2.1313,-2.1506,-2.1698,-2.1969,-2.1874,-2.1921,-2.0074,-1.9824,-1.9475,-1.9257,-1.9267,-1.9278,-1.9814,-2.07,-2.0506,-2.0442,-2.0442,-2.0431,-2.0335,-2.0248,-2.0237,-2.0118,-2.0118,-2.0096,-2.0096,-2.0064,-1.9899,-2.0074,-2.0162,-2.0236,-2.0432,-2.0549,-2.0601,-2.0658,-2.0243,-2.0226,-2.0313,-2.0215,-2.0017,-1.9964,-1.9635,-1.8984,-1.9404,-1.9576,-1.9488,-1.9538,-1.9393,-1.8748,-1.8441,-1.8217,-1.7709,-1.7333,-1.72,-1.7145,-1.7145,-1.7134,-1.719,-1.719,-1.72,-1.72,-1.72,-1.719,-1.7088,-1.7088,-1.7301,-1.719,-1.72,-1.7357,-1.7733,-1.8116,-1.8643,-1.9174,-1.9604,-2.0016,-2.0385,-2.0435,-2.0536,-2.0586,-2.0649,-2.0699,-2.0699,-2.0699,-2.0699,-2.0699,-2.0699,-2.0699,-2.0699,-2.0699,-2.0699,-2.0699,-2.0699,-2.0699,-2.0699,-2.0699,-2.0699,-2.0699,-2.0699,-2.0699,-2.0699,-2.0699,-2.0699,-2.0749,-2.0699,-2.0699,-2.0699,-2.0699,-2.0699,-2.0749,-2.0762,-2.0799,-2.0848,-2.0848,-2.0848,-2.0848,-2.0885,-2.0835,-2.0983,-2.1131,-2.1277,-2.1277,-2.1313,-1.9453,-1.9346,-1.9071,-1.8933,-1.8923,-1.8795,-1.9277,-1.9881,-1.9779,-1.9695,-1.9684,-1.9628,-1.9533,-1.9285,-1.9354,-1.9334,-1.9209,-1.9308,-1.9377,-1.9172,-1.9536,-1.9322,-1.9483,-2.0012,-2.0153,-2.0352,-2.0603,-2.0738,-2.0139,-1.986,-1.9911,-1.9824,-1.9587,-1.9426,-1.9222,-1.8859,-1.8731,-1.8781,-1.8765,-1.8823,-1.8643,-1.8191,-1.7984,-1.7813,-1.7248,-1.7108,-1.692,-1.692,-1.692,-1.6864,-1.6864,-1.6864,-1.6874,-1.6874,-1.6864,-1.6807,-1.6761,-1.6705,-1.6818,-1.6761,-1.6761,-1.6874,-1.692,-1.7412,-1.7963,-1.8602,-1.9133,-1.9604,-1.9914,-2.0182,-2.0334,-2.0435,-2.0536,-2.0649,-2.0699,-2.0699,-2.0699,-2.0699,-2.0699,-2.0699,-2.0699,-2.0699,-2.0699,-2.0699,-2.0699,-2.0699,-2.0699,-2.0699,-2.0699,-2.0699,-2.0699,-2.0699,-2.0699,-2.0699,-2.0699,-2.0699,-2.0699,-2.0699,-2.0699,-2.0699,-2.0699,-2.0699,-2.0699,-2.0699,-2.0699,-2.0699,-2.0749,-2.0749,-2.0749,-2.0699,-2.0699,-2.0848,-2.0983,-2.0983,-2.1082,-1.9132,-1.9407,-1.9416,-1.9111,-1.9291,-1.8923,-1.8797,-1.8956,-1.8867,-1.8943,-1.8994,-1.8974,-1.8735,-1.8557,-1.8665,-1.8582,-1.8598,-1.872,-1.8753,-1.8086,-1.8639,-1.8783,-1.899,-1.9144,-1.9992,-2.0349,-2.0542,-2.0709,-2.0482,-1.9965,-1.9457,-1.9444,-1.9284,-1.9019,-1.8511,-1.8626,-1.849,-1.8281,-1.7988,-1.7852,-1.8224,-1.7791,-1.7043,-1.6945,-1.6825,-1.6648,-1.6477,-1.6431,-1.6374,-1.6431,-1.6431,-1.6441,-1.6488,-1.6488,-1.6488,-1.6477,-1.6488,-1.6488,-1.6534,-1.6488,-1.6488,-1.6477,-1.642,-1.692,-1.7523,-1.8127,-1.8655,-1.9356,-1.972,-1.9914,-2.0067,-2.022,-2.0321,-2.0536,-2.0699,-2.0699,-2.0699,-2.0699,-2.0699,-2.0699,-2.0699,-2.0699,-2.0699,-2.0699,-2.0699,-2.0699,-2.0699,-2.0699,-2.0699,-2.0699,-2.0699,-2.0699,-2.0699,-2.0699,-2.0699,-2.0699,-2.0699,-2.0699,-2.0699,-2.0699,-2.0699,-2.0699,-2.0699,-2.0699,-2.0699,-2.0699,-2.0699,-2.0699,-2.0699,-2.0699,-2.0699,-2.0699,-2.0749,-2.0785,-2.0885,-1.8349,-1.811,-1.746,-1.7293,-1.7516,-1.7175,-1.7397,-1.7835,-1.784,-1.8174,-1.8642,-1.8657,-1.8518,-1.8294,-1.8326,-1.8328,-1.8338,-1.8118,-1.846,-1.8281,-1.833,-1.8389,-1.9183,-1.9248,-2.0018,-2.0638,-2.0852,-2.0365,-1.9666,-1.9089,-1.8627,-1.8249,-1.826,-1.8134,-1.7916,-1.8123,-1.8061,-1.7905,-1.7488,-1.7532,-1.8101,-1.7378,-1.6649,-1.6707,-1.6748,-1.6509,-1.6374,-1.6374,-1.6374,-1.6374,-1.6374,-1.6374,-1.6374,-1.6374,-1.6374,-1.6374,-1.6374,-1.6374,-1.6374,-1.6374,-1.6374,-1.6374,-1.6431,-1.6648,-1.7099,-1.7634,-1.829,-1.8934,-1.9408,-1.9592,-1.9747,-1.9901,-2.0055,-2.0372,-2.0599,-2.0599,-2.0599,-2.0649,-2.0649,-2.0649,-2.0649,-2.0649,-2.0649,-2.0699,-2.0699,-2.0699,-2.0699,-2.0699,-2.0699,-2.0699,-2.0699,-2.0699,-2.0699,-2.0699,-2.0699,-2.0699,-2.0699,-2.0699,-2.0699,-2.0699,-2.0699,-2.0699,-2.0699,-2.0699,-2.0699,-2.0699,-2.0699,-2.0699,-2.0699,-2.0699,-2.0699,-2.0699,-2.0699,-2.0749,-2.0848,-1.6893,-1.68,-1.6344,-1.6225,-1.6362,-1.6191,-1.6439,-1.6893,-1.6961,-1.7331,-1.7866,-1.8031,-1.7959,-1.775,-1.7796,-1.767,-1.7506,-1.7478,-1.709,-1.709,-1.7478,-1.7358,-1.8009,-1.8711,-1.8783,-1.9298,-1.9444,-1.9023,-1.8619,-1.8114,-1.7644,-1.7585,-1.7637,-1.7554,-1.7461,-1.7523,-1.7678,-1.7668,-1.7203,-1.7491,-1.7978,-1.7108,-1.6498,-1.6601,-1.6539,-1.6374,-1.6374,-1.6374,-1.6374,-1.6374,-1.6374,-1.6374,-1.6374,-1.6374,-1.6374,-1.6374,-1.6374,-1.6374,-1.6374,-1.6374,-1.6374,-1.6374,-1.6374,-1.6591,-1.6818,-1.7301,-1.7468,-1.8061,-1.817,-1.8309,-1.875,-1.8951,-1.9331,-1.972,-1.9772,-1.9772,-1.9875,-1.9926,-1.9978,-1.9978,-2.008,-2.0321,-2.0372,-2.0636,-2.0636,-2.0699,-2.0699,-2.0699,-2.0699,-2.0699,-2.0699,-2.0699,-2.0699,-2.0699,-2.0699,-2.0699,-2.0699,-2.0699,-2.0699,-2.0699,-2.0699,-2.0699,-2.0699,-2.0699,-2.0699,-2.0699,-2.0699,-2.0699,-2.0699,-2.0699,-2.0699,-2.0699,-2.0699,-2.0699,-2.0749,-1.554,-1.578,-1.5745,-1.5762,-1.5788,-1.5745,-1.5942,-1.6242,-1.6285,-1.6456,-1.6788,-1.7089,-1.6816,-1.667,-1.6567,-1.6233,-1.6151,-1.6497,-1.599,-1.5834,-1.5921,-1.6386,-1.6659,-1.6838,-1.7407,-1.7665,-1.7646,-1.7794,-1.7688,-1.7199,-1.6957,-1.74,-1.7359,-1.7236,-1.7172,-1.7368,-1.7647,-1.7533,-1.7348,-1.7358,-1.7222,-1.685,-1.6539,-1.6394,-1.6374,-1.6374,-1.6374,-1.6374,-1.6374,-1.6374,-1.6374,-1.6374,-1.6374,-1.6374,-1.6374,-1.6374,-1.6374,-1.6374,-1.6374,-1.6374,-1.6374,-1.6374,-1.6374,-1.6477,-1.6705,-1.6807,-1.6976,-1.7088,-1.72,-1.7468,-1.7952,-1.8278,-1.8655,-1.904,-1.904,-1.9146,-1.9251,-1.9408,-1.946,-1.946,-1.9759,-2.0003,-2.022,-2.0485,-2.0536,-2.0636,-2.0649,-2.0699,-2.0699,-2.0699,-2.0699,-2.0699,-2.0699,-2.0699,-2.0699,-2.0699,-2.0699,-2.0699,-2.0699,-2.0699,-2.0699,-2.0699,-2.0699,-2.0699,-2.0699,-2.0699,-2.0699,-2.0699,-2.0699,-2.0699,-2.0699,-2.0699,-2.0699,-2.0699,-2.0699,-1.5728,-1.578,-1.5463,-1.5489,-1.5694,-1.5446,-1.5548,-1.5865,-1.5874,-1.5959,-1.6011,-1.6079,-1.6122,-1.6293,-1.6062,-1.5788,-1.5625,-1.5745,-1.5848,-1.578,-1.5446,-1.5809,-1.6129,-1.6056,-1.6747,-1.6775,-1.6562,-1.636,-1.6488,-1.6114,-1.5965,-1.6207,-1.6167,-1.6333,-1.6746,-1.7088,-1.7554,-1.7491,-1.7709,-1.7802,-1.7171,-1.6808,-1.6477,-1.6374,-1.6374,-1.6374,-1.6374,-1.6374,-1.6374,-1.6374,-1.6374,-1.6374,-1.6374,-1.6374,-1.6374,-1.6374,-1.6374,-1.6374,-1.6374,-1.6374,-1.6374,-1.6374,-1.6374,-1.6431,-1.6534,-1.6534,-1.6648,-1.6705,-1.6874,-1.7301,-1.7689,-1.7799,-1.8116,-1.8375,-1.8536,-1.8815,-1.904,-1.9174,-1.9319,-1.954,-1.9862,-2.0016,-2.0169,-2.0334,-2.0334,-2.0385,-2.0485,-2.0485,-2.0485,-2.0586,-2.0699,-2.0699,-2.0699,-2.0699,-2.0699,-2.0699,-2.0699,-2.0699,-2.0699,-2.0699,-2.0699,-2.0699,-2.0699,-2.0699,-2.0699,-2.0699,-2.0699,-2.0699,-2.0699,-2.0699,-2.0699,-2.0699,-2.0699,-2.0699,-2.0699]}]]